<?xml version="1.0" encoding="UTF-8"?>
<gpx xmlns:xsi="http://www.w3.org/2001/XMLSchema-instance" xmlns="http://www.topografix.com/GPX/1/1" xsi:schemaLocation="http://www.topografix.com/GPX/1/1 http://www.topografix.com/GPX/1/1/gpx.xsd" version="1.1">
  <metadata>
    <name>Saugerties Triathlon New Half Distance</name>
    <copyright author="OpenStreetMap contributors">
      <year>2020</year>
      <license>https://www.openstreetmap.org/copyright</license>
    </copyright>
    <link href="https://www.strava.com/routes/2925443331966555198"/>
  </metadata>
  <trk>
    <name>Saugerties Triathlon New Half Distance</name>
    <link href="https://www.strava.com/routes/2925443331966555198"/>
    <type>Radfahrt</type>
    <trkseg>
      <trkpt lat="42.07299" lon="-73.950945">
        <ele>22.119991</ele>
        <time>2022-10-10T07:58:00.000Z</time>
      </trkpt>
      <trkpt lat="42.073728" lon="-73.950531">
        <ele>28.819992</ele>
        <time>2022-10-10T07:58:09.000Z</time>
      </trkpt>
      <trkpt lat="42.074043" lon="-73.950617">
        <ele>30.259996</ele>
        <time>2022-10-10T07:58:13.000Z</time>
      </trkpt>
      <trkpt lat="42.0744740003" lon="-73.9508699983">
        <ele>33.779996</ele>
        <time>2022-10-10T07:58:18.000Z</time>
      </trkpt>
      <trkpt lat="42.07492" lon="-73.951102">
        <ele>37.919997</ele>
        <time>2022-10-10T07:58:23.000Z</time>
      </trkpt>
      <trkpt lat="42.0754700002" lon="-73.951345998">
        <ele>41.310002</ele>
        <time>2022-10-10T07:58:29.000Z</time>
      </trkpt>
      <trkpt lat="42.076013" lon="-73.951573">
        <ele>44.790001</ele>
        <time>2022-10-10T07:58:35.000Z</time>
      </trkpt>
      <trkpt lat="42.0766020006" lon="-73.951855328">
        <ele>45.88</ele>
        <time>2022-10-10T07:58:42.000Z</time>
      </trkpt>
      <trkpt lat="42.0771860006" lon="-73.9521426614">
        <ele>46.190002</ele>
        <time>2022-10-10T07:58:49.000Z</time>
      </trkpt>
      <trkpt lat="42.07778" lon="-73.952429">
        <ele>46.739999</ele>
        <time>2022-10-10T07:58:56.000Z</time>
      </trkpt>
      <trkpt lat="42.077817" lon="-73.952324">
        <ele>46.680003</ele>
        <time>2022-10-10T07:58:57.000Z</time>
      </trkpt>
      <trkpt lat="42.077775" lon="-73.952425">
        <ele>46.739998</ele>
        <time>2022-10-10T07:58:58.000Z</time>
      </trkpt>
      <trkpt lat="42.0780450054" lon="-73.9516220067">
        <ele>46.599992</ele>
        <time>2022-10-10T07:59:05.000Z</time>
      </trkpt>
      <trkpt lat="42.0783260054" lon="-73.9508340067">
        <ele>46.699998</ele>
        <time>2022-10-10T07:59:12.000Z</time>
      </trkpt>
      <trkpt lat="42.078596" lon="-73.950053">
        <ele>47.030003</ele>
        <time>2022-10-10T07:59:19.000Z</time>
      </trkpt>
      <trkpt lat="42.0789610096" lon="-73.9490080122">
        <ele>47.26</ele>
        <time>2022-10-10T07:59:29.000Z</time>
      </trkpt>
      <trkpt lat="42.0793340096" lon="-73.9479410122">
        <ele>47.580008</ele>
        <time>2022-10-10T07:59:39.000Z</time>
      </trkpt>
      <trkpt lat="42.079694" lon="-73.946899">
        <ele>47.019992</ele>
        <time>2022-10-10T07:59:48.000Z</time>
      </trkpt>
      <trkpt lat="42.079781" lon="-73.946536">
        <ele>46.799995</ele>
        <time>2022-10-10T07:59:51.000Z</time>
      </trkpt>
      <trkpt lat="42.0800280054" lon="-73.9454210044">
        <ele>45.540002</ele>
        <time>2022-10-10T08:00:01.000Z</time>
      </trkpt>
      <trkpt lat="42.080286" lon="-73.944303">
        <ele>46.290004</ele>
        <time>2022-10-10T08:00:11.000Z</time>
      </trkpt>
      <trkpt lat="42.080362" lon="-73.944143">
        <ele>46.919995</ele>
        <time>2022-10-10T08:00:13.000Z</time>
      </trkpt>
      <trkpt lat="42.080364" lon="-73.944127">
        <ele>46.939994</ele>
        <time>2022-10-10T08:00:13.000Z</time>
      </trkpt>
      <trkpt lat="42.080546" lon="-73.944087">
        <ele>46.850001</ele>
        <time>2022-10-10T08:00:15.000Z</time>
      </trkpt>
      <trkpt lat="42.080721" lon="-73.944123">
        <ele>46.729994</ele>
        <time>2022-10-10T08:00:17.000Z</time>
      </trkpt>
      <trkpt lat="42.081532" lon="-73.944093">
        <ele>46.470004</ele>
        <time>2022-10-10T08:00:26.000Z</time>
      </trkpt>
      <trkpt lat="42.0822590001" lon="-73.9439656695">
        <ele>44.619994</ele>
        <time>2022-10-10T08:00:34.000Z</time>
      </trkpt>
      <trkpt lat="42.082968" lon="-73.9438493361">
        <ele>43.780003</ele>
        <time>2022-10-10T08:00:42.000Z</time>
      </trkpt>
      <trkpt lat="42.083699" lon="-73.943717">
        <ele>42.58</ele>
        <time>2022-10-10T08:00:50.000Z</time>
      </trkpt>
      <trkpt lat="42.084191" lon="-73.943398">
        <ele>42.86</ele>
        <time>2022-10-10T08:00:56.000Z</time>
      </trkpt>
      <trkpt lat="42.084427" lon="-73.943227">
        <ele>42.889994</ele>
        <time>2022-10-10T08:00:59.000Z</time>
      </trkpt>
      <trkpt lat="42.084968" lon="-73.942645">
        <ele>47.290009</ele>
        <time>2022-10-10T08:01:07.000Z</time>
      </trkpt>
      <trkpt lat="42.085336" lon="-73.942413">
        <ele>49.370009</ele>
        <time>2022-10-10T08:01:12.000Z</time>
      </trkpt>
      <trkpt lat="42.085659" lon="-73.942242">
        <ele>50.360003</ele>
        <time>2022-10-10T08:01:16.000Z</time>
      </trkpt>
      <trkpt lat="42.0862230002" lon="-73.9420490019">
        <ele>51.219999</ele>
        <time>2022-10-10T08:01:22.000Z</time>
      </trkpt>
      <trkpt lat="42.086808" lon="-73.941836">
        <ele>51.239994</ele>
        <time>2022-10-10T08:01:29.000Z</time>
      </trkpt>
      <trkpt lat="42.087399" lon="-73.941723">
        <ele>52.369994</ele>
        <time>2022-10-10T08:01:36.000Z</time>
      </trkpt>
      <trkpt lat="42.088126" lon="-73.941669">
        <ele>53.960009</ele>
        <time>2022-10-10T08:01:44.000Z</time>
      </trkpt>
      <trkpt lat="42.088301" lon="-73.941678">
        <ele>53.700009</ele>
        <time>2022-10-10T08:01:46.000Z</time>
      </trkpt>
      <trkpt lat="42.088516" lon="-73.941602">
        <ele>52.84</ele>
        <time>2022-10-10T08:01:48.000Z</time>
      </trkpt>
      <trkpt lat="42.08882" lon="-73.941459">
        <ele>51.820004</ele>
        <time>2022-10-10T08:01:52.000Z</time>
      </trkpt>
      <trkpt lat="42.089252" lon="-73.941135">
        <ele>48.719994</ele>
        <time>2022-10-10T08:01:58.000Z</time>
      </trkpt>
      <trkpt lat="42.089464" lon="-73.940956">
        <ele>47.839996</ele>
        <time>2022-10-10T08:02:01.000Z</time>
      </trkpt>
      <trkpt lat="42.089705" lon="-73.940672">
        <ele>47.179995</ele>
        <time>2022-10-10T08:02:05.000Z</time>
      </trkpt>
      <trkpt lat="42.090011" lon="-73.940273">
        <ele>46.859991</ele>
        <time>2022-10-10T08:02:10.000Z</time>
      </trkpt>
      <trkpt lat="42.090352" lon="-73.939976">
        <ele>46.619999</ele>
        <time>2022-10-10T08:02:15.000Z</time>
      </trkpt>
      <trkpt lat="42.090575" lon="-73.939837">
        <ele>46.370003</ele>
        <time>2022-10-10T08:02:18.000Z</time>
      </trkpt>
      <trkpt lat="42.090704" lon="-73.939793">
        <ele>46.429995</ele>
        <time>2022-10-10T08:02:19.000Z</time>
      </trkpt>
      <trkpt lat="42.091437" lon="-73.939653">
        <ele>47.620005</ele>
        <time>2022-10-10T08:02:27.000Z</time>
      </trkpt>
      <trkpt lat="42.091871" lon="-73.939618">
        <ele>48.269996</ele>
        <time>2022-10-10T08:02:32.000Z</time>
      </trkpt>
      <trkpt lat="42.0923690001" lon="-73.9396419997">
        <ele>49.120005</ele>
        <time>2022-10-10T08:02:38.000Z</time>
      </trkpt>
      <trkpt lat="42.092867" lon="-73.939698">
        <ele>51.029992</ele>
        <time>2022-10-10T08:02:44.000Z</time>
      </trkpt>
      <trkpt lat="42.093237" lon="-73.939752">
        <ele>52.420001</ele>
        <time>2022-10-10T08:02:48.000Z</time>
      </trkpt>
      <trkpt lat="42.094076" lon="-73.939966">
        <ele>54.420003</ele>
        <time>2022-10-10T08:02:57.000Z</time>
      </trkpt>
      <trkpt lat="42.094431" lon="-73.939998">
        <ele>54.980009</ele>
        <time>2022-10-10T08:03:01.000Z</time>
      </trkpt>
      <trkpt lat="42.094613" lon="-73.939966">
        <ele>55.779993</ele>
        <time>2022-10-10T08:03:03.000Z</time>
      </trkpt>
      <trkpt lat="42.095021" lon="-73.939809">
        <ele>57.850007</ele>
        <time>2022-10-10T08:03:08.000Z</time>
      </trkpt>
      <trkpt lat="42.0955040003" lon="-73.9396180013">
        <ele>59.659992</ele>
        <time>2022-10-10T08:03:14.000Z</time>
      </trkpt>
      <trkpt lat="42.095952" lon="-73.939426">
        <ele>60.59</ele>
        <time>2022-10-10T08:03:19.000Z</time>
      </trkpt>
      <trkpt lat="42.096622" lon="-73.939208">
        <ele>58.640008</ele>
        <time>2022-10-10T08:03:27.000Z</time>
      </trkpt>
      <trkpt lat="42.097499" lon="-73.939016">
        <ele>56.300004</ele>
        <time>2022-10-10T08:03:37.000Z</time>
      </trkpt>
      <trkpt lat="42.098289" lon="-73.938904">
        <ele>54.770004</ele>
        <time>2022-10-10T08:03:46.000Z</time>
      </trkpt>
      <trkpt lat="42.098886" lon="-73.938878">
        <ele>52.570008</ele>
        <time>2022-10-10T08:03:53.000Z</time>
      </trkpt>
      <trkpt lat="42.099343" lon="-73.938835">
        <ele>49.580008</ele>
        <time>2022-10-10T08:03:58.000Z</time>
      </trkpt>
      <trkpt lat="42.099634" lon="-73.938763">
        <ele>48.199994</ele>
        <time>2022-10-10T08:04:01.000Z</time>
      </trkpt>
      <trkpt lat="42.1003670005" lon="-73.9384580034">
        <ele>47.059996</ele>
        <time>2022-10-10T08:04:10.000Z</time>
      </trkpt>
      <trkpt lat="42.101105" lon="-73.938163">
        <ele>47.14</ele>
        <time>2022-10-10T08:04:19.000Z</time>
      </trkpt>
      <trkpt lat="42.1016250002" lon="-73.937921002">
        <ele>47.209996</ele>
        <time>2022-10-10T08:04:25.000Z</time>
      </trkpt>
      <trkpt lat="42.102144" lon="-73.937684">
        <ele>47.879991</ele>
        <time>2022-10-10T08:04:31.000Z</time>
      </trkpt>
      <trkpt lat="42.102678" lon="-73.937547">
        <ele>49.860004</ele>
        <time>2022-10-10T08:04:37.000Z</time>
      </trkpt>
      <trkpt lat="42.103009" lon="-73.937507">
        <ele>50.229995</ele>
        <time>2022-10-10T08:04:41.000Z</time>
      </trkpt>
      <trkpt lat="42.103385" lon="-73.937557">
        <ele>51.149995</ele>
        <time>2022-10-10T08:04:45.000Z</time>
      </trkpt>
      <trkpt lat="42.103983" lon="-73.937729">
        <ele>51.620004</ele>
        <time>2022-10-10T08:04:52.000Z</time>
      </trkpt>
      <trkpt lat="42.1045140001" lon="-73.9378379991">
        <ele>49.860001</ele>
        <time>2022-10-10T08:04:58.000Z</time>
      </trkpt>
      <trkpt lat="42.10505" lon="-73.937946">
        <ele>47.61</ele>
        <time>2022-10-10T08:05:04.000Z</time>
      </trkpt>
      <trkpt lat="42.105287" lon="-73.937954">
        <ele>46.760007</ele>
        <time>2022-10-10T08:05:07.000Z</time>
      </trkpt>
      <trkpt lat="42.1061" lon="-73.9378900015">
        <ele>45.669998</ele>
        <time>2022-10-10T08:05:16.000Z</time>
      </trkpt>
      <trkpt lat="42.1069089999" lon="-73.9378290015">
        <ele>46.529995</ele>
        <time>2022-10-10T08:05:25.000Z</time>
      </trkpt>
      <trkpt lat="42.10772" lon="-73.937775">
        <ele>49.819993</ele>
        <time>2022-10-10T08:05:34.000Z</time>
      </trkpt>
      <trkpt lat="42.108031" lon="-73.937735">
        <ele>51.319992</ele>
        <time>2022-10-10T08:05:37.000Z</time>
      </trkpt>
      <trkpt lat="42.108444" lon="-73.937629">
        <ele>52.929994</ele>
        <time>2022-10-10T08:05:42.000Z</time>
      </trkpt>
      <trkpt lat="42.108627" lon="-73.937558">
        <ele>53.210002</ele>
        <time>2022-10-10T08:05:44.000Z</time>
      </trkpt>
      <trkpt lat="42.1092470018" lon="-73.9371825108">
        <ele>53.669993</ele>
        <time>2022-10-10T08:05:52.000Z</time>
      </trkpt>
      <trkpt lat="42.1098690023" lon="-73.9368070144">
        <ele>53.140005</ele>
        <time>2022-10-10T08:06:00.000Z</time>
      </trkpt>
      <trkpt lat="42.1104710018" lon="-73.9364565108">
        <ele>52.46</ele>
        <time>2022-10-10T08:06:07.000Z</time>
      </trkpt>
      <trkpt lat="42.111097" lon="-73.936088">
        <ele>52.04</ele>
        <time>2022-10-10T08:06:15.000Z</time>
      </trkpt>
      <trkpt lat="42.111379" lon="-73.935976">
        <ele>51.940001</ele>
        <time>2022-10-10T08:06:18.000Z</time>
      </trkpt>
      <trkpt lat="42.111584" lon="-73.935927">
        <ele>51.189994</ele>
        <time>2022-10-10T08:06:20.000Z</time>
      </trkpt>
      <trkpt lat="42.111785" lon="-73.935935">
        <ele>51.189996</ele>
        <time>2022-10-10T08:06:22.000Z</time>
      </trkpt>
      <trkpt lat="42.112522" lon="-73.936201">
        <ele>52.290005</ele>
        <time>2022-10-10T08:06:30.000Z</time>
      </trkpt>
      <trkpt lat="42.112761" lon="-73.936249">
        <ele>53.220008</ele>
        <time>2022-10-10T08:06:33.000Z</time>
      </trkpt>
      <trkpt lat="42.112963" lon="-73.936255">
        <ele>53.84</ele>
        <time>2022-10-10T08:06:35.000Z</time>
      </trkpt>
      <trkpt lat="42.113411" lon="-73.936259">
        <ele>54.600001</ele>
        <time>2022-10-10T08:06:40.000Z</time>
      </trkpt>
      <trkpt lat="42.113907" lon="-73.936189">
        <ele>55.360002</ele>
        <time>2022-10-10T08:06:46.000Z</time>
      </trkpt>
      <trkpt lat="42.1146650003" lon="-73.935992671">
        <ele>55.289992</ele>
        <time>2022-10-10T08:06:55.000Z</time>
      </trkpt>
      <trkpt lat="42.1154340004" lon="-73.9358063377">
        <ele>51.519996</ele>
        <time>2022-10-10T08:07:04.000Z</time>
      </trkpt>
      <trkpt lat="42.116185" lon="-73.935637">
        <ele>47.330005</ele>
        <time>2022-10-10T08:07:12.000Z</time>
      </trkpt>
      <trkpt lat="42.116478" lon="-73.935534">
        <ele>47.219991</ele>
        <time>2022-10-10T08:07:15.000Z</time>
      </trkpt>
      <trkpt lat="42.116654" lon="-73.935436">
        <ele>47.379994</ele>
        <time>2022-10-10T08:07:17.000Z</time>
      </trkpt>
      <trkpt lat="42.116973" lon="-73.93519">
        <ele>47.92</ele>
        <time>2022-10-10T08:07:21.000Z</time>
      </trkpt>
      <trkpt lat="42.117198" lon="-73.934968">
        <ele>48.069993</ele>
        <time>2022-10-10T08:07:24.000Z</time>
      </trkpt>
      <trkpt lat="42.117214" lon="-73.934959">
        <ele>48.059991</ele>
        <time>2022-10-10T08:07:24.000Z</time>
      </trkpt>
      <trkpt lat="42.117261" lon="-73.935264">
        <ele>47.259992</ele>
        <time>2022-10-10T08:07:27.000Z</time>
      </trkpt>
      <trkpt lat="42.1173460035" lon="-73.9361549986">
        <ele>47.030003</ele>
        <time>2022-10-10T08:07:34.000Z</time>
      </trkpt>
      <trkpt lat="42.117421" lon="-73.937041">
        <ele>47.429991</ele>
        <time>2022-10-10T08:07:41.000Z</time>
      </trkpt>
      <trkpt lat="42.117523" lon="-73.937683">
        <ele>45.930003</ele>
        <time>2022-10-10T08:07:46.000Z</time>
      </trkpt>
      <trkpt lat="42.117578" lon="-73.937855">
        <ele>45.929994</ele>
        <time>2022-10-10T08:07:48.000Z</time>
      </trkpt>
      <trkpt lat="42.1179756713" lon="-73.9385899911">
        <ele>44.220005</ele>
        <time>2022-10-10T08:07:56.000Z</time>
      </trkpt>
      <trkpt lat="42.118348338" lon="-73.9393119912">
        <ele>43.340006</ele>
        <time>2022-10-10T08:08:03.000Z</time>
      </trkpt>
      <trkpt lat="42.118742" lon="-73.940056">
        <ele>43.360002</ele>
        <time>2022-10-10T08:08:11.000Z</time>
      </trkpt>
      <trkpt lat="42.119158" lon="-73.940958">
        <ele>43.439993</ele>
        <time>2022-10-10T08:08:20.000Z</time>
      </trkpt>
      <trkpt lat="42.1194363378" lon="-73.941666327">
        <ele>43.309998</ele>
        <time>2022-10-10T08:08:27.000Z</time>
      </trkpt>
      <trkpt lat="42.1197186711" lon="-73.9423796604">
        <ele>43.280008</ele>
        <time>2022-10-10T08:08:34.000Z</time>
      </trkpt>
      <trkpt lat="42.120009" lon="-73.943095">
        <ele>43.340002</ele>
        <time>2022-10-10T08:08:41.000Z</time>
      </trkpt>
      <trkpt lat="42.1202510018" lon="-73.9437319977">
        <ele>43.540005</ele>
        <time>2022-10-10T08:08:47.000Z</time>
      </trkpt>
      <trkpt lat="42.120495" lon="-73.944361">
        <ele>44.099995</ele>
        <time>2022-10-10T08:08:53.000Z</time>
      </trkpt>
      <trkpt lat="42.120594" lon="-73.944719">
        <ele>44.340009</ele>
        <time>2022-10-10T08:08:56.000Z</time>
      </trkpt>
      <trkpt lat="42.120679" lon="-73.945151">
        <ele>46.169991</ele>
        <time>2022-10-10T08:09:00.000Z</time>
      </trkpt>
      <trkpt lat="42.120737" lon="-73.945288">
        <ele>46.559992</ele>
        <time>2022-10-10T08:09:01.000Z</time>
      </trkpt>
      <trkpt lat="42.120957" lon="-73.94558">
        <ele>46.329998</ele>
        <time>2022-10-10T08:09:04.000Z</time>
      </trkpt>
      <trkpt lat="42.121342" lon="-73.946551">
        <ele>45.220003</ele>
        <time>2022-10-10T08:09:13.000Z</time>
      </trkpt>
      <trkpt lat="42.1216400021" lon="-73.9472279971">
        <ele>45.250002</ele>
        <time>2022-10-10T08:09:19.000Z</time>
      </trkpt>
      <trkpt lat="42.12194" lon="-73.947894">
        <ele>46.010009</ele>
        <time>2022-10-10T08:09:25.000Z</time>
      </trkpt>
      <trkpt lat="42.122296" lon="-73.948632">
        <ele>49.879993</ele>
        <time>2022-10-10T08:09:32.000Z</time>
      </trkpt>
      <trkpt lat="42.122339" lon="-73.948641">
        <ele>49.900001</ele>
        <time>2022-10-10T08:09:32.000Z</time>
      </trkpt>
      <trkpt lat="42.122377" lon="-73.948437">
        <ele>49.970005</ele>
        <time>2022-10-10T08:09:34.000Z</time>
      </trkpt>
      <trkpt lat="42.122373" lon="-73.948447">
        <ele>49.970007</ele>
        <time>2022-10-10T08:09:34.000Z</time>
      </trkpt>
      <trkpt lat="42.12243" lon="-73.948208">
        <ele>49.99</ele>
        <time>2022-10-10T08:09:36.000Z</time>
      </trkpt>
      <trkpt lat="42.122557" lon="-73.947859">
        <ele>49.900001</ele>
        <time>2022-10-10T08:09:39.000Z</time>
      </trkpt>
      <trkpt lat="42.122639" lon="-73.947753">
        <ele>49.899997</ele>
        <time>2022-10-10T08:09:40.000Z</time>
      </trkpt>
      <trkpt lat="42.122778" lon="-73.947573">
        <ele>49.980009</ele>
        <time>2022-10-10T08:09:42.000Z</time>
      </trkpt>
      <trkpt lat="42.12343" lon="-73.946962">
        <ele>50.539997</ele>
        <time>2022-10-10T08:09:51.000Z</time>
      </trkpt>
      <trkpt lat="42.123545" lon="-73.946789">
        <ele>51.000005</ele>
        <time>2022-10-10T08:09:53.000Z</time>
      </trkpt>
      <trkpt lat="42.123588" lon="-73.946681">
        <ele>51.339991</ele>
        <time>2022-10-10T08:09:54.000Z</time>
      </trkpt>
      <trkpt lat="42.123624" lon="-73.946501">
        <ele>52.3</ele>
        <time>2022-10-10T08:09:56.000Z</time>
      </trkpt>
      <trkpt lat="42.1240480016" lon="-73.945886004">
        <ele>57.110009</ele>
        <time>2022-10-10T08:10:03.000Z</time>
      </trkpt>
      <trkpt lat="42.124474" lon="-73.945292">
        <ele>58.409997</ele>
        <time>2022-10-10T08:10:10.000Z</time>
      </trkpt>
      <trkpt lat="42.1250550018" lon="-73.9446510056">
        <ele>58.999996</ele>
        <time>2022-10-10T08:10:18.000Z</time>
      </trkpt>
      <trkpt lat="42.125626" lon="-73.944029">
        <ele>58.920004</ele>
        <time>2022-10-10T08:10:26.000Z</time>
      </trkpt>
      <trkpt lat="42.125911" lon="-73.943753">
        <ele>59.119995</ele>
        <time>2022-10-10T08:10:30.000Z</time>
      </trkpt>
      <trkpt lat="42.125909" lon="-73.943764">
        <ele>59.120009</ele>
        <time>2022-10-10T08:10:30.000Z</time>
      </trkpt>
      <trkpt lat="42.1263110007" lon="-73.9433790024">
        <ele>58.550009</ele>
        <time>2022-10-10T08:10:35.000Z</time>
      </trkpt>
      <trkpt lat="42.126721" lon="-73.943015">
        <ele>57.019998</ele>
        <time>2022-10-10T08:10:40.000Z</time>
      </trkpt>
      <trkpt lat="42.127148" lon="-73.942734">
        <ele>55.679998</ele>
        <time>2022-10-10T08:10:45.000Z</time>
      </trkpt>
      <trkpt lat="42.127388" lon="-73.942606">
        <ele>54.050003</ele>
        <time>2022-10-10T08:10:48.000Z</time>
      </trkpt>
      <trkpt lat="42.127895" lon="-73.942432">
        <ele>51.529996</ele>
        <time>2022-10-10T08:10:54.000Z</time>
      </trkpt>
      <trkpt lat="42.128666" lon="-73.942322">
        <ele>49.040004</ele>
        <time>2022-10-10T08:11:03.000Z</time>
      </trkpt>
      <trkpt lat="42.129502" lon="-73.942111">
        <ele>48.299991</ele>
        <time>2022-10-10T08:11:12.000Z</time>
      </trkpt>
      <trkpt lat="42.129628" lon="-73.942068">
        <ele>48.279995</ele>
        <time>2022-10-10T08:11:13.000Z</time>
      </trkpt>
      <trkpt lat="42.12978" lon="-73.941939">
        <ele>47.790003</ele>
        <time>2022-10-10T08:11:15.000Z</time>
      </trkpt>
      <trkpt lat="42.129877" lon="-73.941746">
        <ele>47.720009</ele>
        <time>2022-10-10T08:11:17.000Z</time>
      </trkpt>
      <trkpt lat="42.129885" lon="-73.941677">
        <ele>47.639993</ele>
        <time>2022-10-10T08:11:18.000Z</time>
      </trkpt>
      <trkpt lat="42.129876" lon="-73.941692">
        <ele>47.650004</ele>
        <time>2022-10-10T08:11:18.000Z</time>
      </trkpt>
      <trkpt lat="42.1300323394" lon="-73.9408560042">
        <ele>47.959992</ele>
        <time>2022-10-10T08:11:25.000Z</time>
      </trkpt>
      <trkpt lat="42.1301796727" lon="-73.9400100044">
        <ele>49.319999</ele>
        <time>2022-10-10T08:11:32.000Z</time>
      </trkpt>
      <trkpt lat="42.130333" lon="-73.939162">
        <ele>51.569993</ele>
        <time>2022-10-10T08:11:39.000Z</time>
      </trkpt>
      <trkpt lat="42.130372" lon="-73.939023">
        <ele>51.570007</ele>
        <time>2022-10-10T08:11:40.000Z</time>
      </trkpt>
      <trkpt lat="42.130598" lon="-73.939152">
        <ele>51.579996</ele>
        <time>2022-10-10T08:11:43.000Z</time>
      </trkpt>
      <trkpt lat="42.131118" lon="-73.9392529993">
        <ele>51.849999</ele>
        <time>2022-10-10T08:11:49.000Z</time>
      </trkpt>
      <trkpt lat="42.131633" lon="-73.939339">
        <ele>52.009992</ele>
        <time>2022-10-10T08:11:55.000Z</time>
      </trkpt>
      <trkpt lat="42.131779" lon="-73.939385">
        <ele>51.939998</ele>
        <time>2022-10-10T08:11:57.000Z</time>
      </trkpt>
      <trkpt lat="42.132014" lon="-73.939583">
        <ele>51.239996</ele>
        <time>2022-10-10T08:12:00.000Z</time>
      </trkpt>
      <trkpt lat="42.132323" lon="-73.93996">
        <ele>49.540007</ele>
        <time>2022-10-10T08:12:05.000Z</time>
      </trkpt>
      <trkpt lat="42.1326180011" lon="-73.9404889974">
        <ele>48.560009</ele>
        <time>2022-10-10T08:12:10.000Z</time>
      </trkpt>
      <trkpt lat="42.132916" lon="-73.941015">
        <ele>48.299996</ele>
        <time>2022-10-10T08:12:15.000Z</time>
      </trkpt>
      <trkpt lat="42.133289" lon="-73.941701">
        <ele>49.220007</ele>
        <time>2022-10-10T08:12:22.000Z</time>
      </trkpt>
      <trkpt lat="42.133468" lon="-73.941983">
        <ele>51.060009</ele>
        <time>2022-10-10T08:12:25.000Z</time>
      </trkpt>
      <trkpt lat="42.133765" lon="-73.942247">
        <ele>53.860006</ele>
        <time>2022-10-10T08:12:29.000Z</time>
      </trkpt>
      <trkpt lat="42.133809" lon="-73.942344">
        <ele>53.830008</ele>
        <time>2022-10-10T08:12:30.000Z</time>
      </trkpt>
      <trkpt lat="42.134096" lon="-73.943407">
        <ele>50.689998</ele>
        <time>2022-10-10T08:12:39.000Z</time>
      </trkpt>
      <trkpt lat="42.134151" lon="-73.943543">
        <ele>49.039991</ele>
        <time>2022-10-10T08:12:40.000Z</time>
      </trkpt>
      <trkpt lat="42.134327" lon="-73.943723">
        <ele>47.839991</ele>
        <time>2022-10-10T08:12:42.000Z</time>
      </trkpt>
      <trkpt lat="42.134955" lon="-73.944354">
        <ele>47.530008</ele>
        <time>2022-10-10T08:12:51.000Z</time>
      </trkpt>
      <trkpt lat="42.1354130013" lon="-73.9448619964">
        <ele>47.849994</ele>
        <time>2022-10-10T08:12:58.000Z</time>
      </trkpt>
      <trkpt lat="42.135874" lon="-73.945376">
        <ele>49.219999</ele>
        <time>2022-10-10T08:13:05.000Z</time>
      </trkpt>
      <trkpt lat="42.136047" lon="-73.945516">
        <ele>50.559995</ele>
        <time>2022-10-10T08:13:07.000Z</time>
      </trkpt>
      <trkpt lat="42.136189" lon="-73.945577">
        <ele>51.17</ele>
        <time>2022-10-10T08:13:09.000Z</time>
      </trkpt>
      <trkpt lat="42.136333" lon="-73.945606">
        <ele>51.169991</ele>
        <time>2022-10-10T08:13:11.000Z</time>
      </trkpt>
      <trkpt lat="42.136997" lon="-73.945338">
        <ele>52.230006</ele>
        <time>2022-10-10T08:13:19.000Z</time>
      </trkpt>
      <trkpt lat="42.137112" lon="-73.945337">
        <ele>51.919996</ele>
        <time>2022-10-10T08:13:20.000Z</time>
      </trkpt>
      <trkpt lat="42.137231" lon="-73.945378">
        <ele>51.610007</ele>
        <time>2022-10-10T08:13:21.000Z</time>
      </trkpt>
      <trkpt lat="42.137357" lon="-73.945432">
        <ele>50.910001</ele>
        <time>2022-10-10T08:13:22.000Z</time>
      </trkpt>
      <trkpt lat="42.137448" lon="-73.945569">
        <ele>50.590008</ele>
        <time>2022-10-10T08:13:24.000Z</time>
      </trkpt>
      <trkpt lat="42.137564" lon="-73.945773">
        <ele>50.309997</ele>
        <time>2022-10-10T08:13:26.000Z</time>
      </trkpt>
      <trkpt lat="42.137827" lon="-73.946574">
        <ele>48.120009</ele>
        <time>2022-10-10T08:13:33.000Z</time>
      </trkpt>
      <trkpt lat="42.1382320175" lon="-73.9474766387">
        <ele>48.499992</ele>
        <time>2022-10-10T08:13:42.000Z</time>
      </trkpt>
      <trkpt lat="42.1386200279" lon="-73.9483822886">
        <ele>51.959991</ele>
        <time>2022-10-10T08:13:51.000Z</time>
      </trkpt>
      <trkpt lat="42.1390220314" lon="-73.9492619496">
        <ele>53.980003</ele>
        <time>2022-10-10T08:14:00.000Z</time>
      </trkpt>
      <trkpt lat="42.1394160279" lon="-73.9501746219">
        <ele>52.620003</ele>
        <time>2022-10-10T08:14:09.000Z</time>
      </trkpt>
      <trkpt lat="42.1398050174" lon="-73.9510613053">
        <ele>49.769993</ele>
        <time>2022-10-10T08:14:17.000Z</time>
      </trkpt>
      <trkpt lat="42.140203" lon="-73.951953">
        <ele>50.179994</ele>
        <time>2022-10-10T08:14:26.000Z</time>
      </trkpt>
      <trkpt lat="42.140475" lon="-73.952405">
        <ele>50.179991</ele>
        <time>2022-10-10T08:14:31.000Z</time>
      </trkpt>
      <trkpt lat="42.1409240016" lon="-73.9530239953">
        <ele>50.000008</ele>
        <time>2022-10-10T08:14:38.000Z</time>
      </trkpt>
      <trkpt lat="42.141396" lon="-73.953666">
        <ele>50.65</ele>
        <time>2022-10-10T08:14:45.000Z</time>
      </trkpt>
      <trkpt lat="42.141706" lon="-73.953574">
        <ele>50.869995</ele>
        <time>2022-10-10T08:14:49.000Z</time>
      </trkpt>
      <trkpt lat="42.141712" lon="-73.953562">
        <ele>50.310002</ele>
        <time>2022-10-10T08:14:49.000Z</time>
      </trkpt>
      <trkpt lat="42.141384" lon="-73.953666">
        <ele>50.460006</ele>
        <time>2022-10-10T08:14:53.000Z</time>
      </trkpt>
      <trkpt lat="42.1407650001" lon="-73.9538730021">
        <ele>50.429994</ele>
        <time>2022-10-10T08:15:00.000Z</time>
      </trkpt>
      <trkpt lat="42.140141" lon="-73.954073">
        <ele>51.499997</ele>
        <time>2022-10-10T08:15:07.000Z</time>
      </trkpt>
      <trkpt lat="42.139845" lon="-73.954245">
        <ele>51.749993</ele>
        <time>2022-10-10T08:15:11.000Z</time>
      </trkpt>
      <trkpt lat="42.139399" lon="-73.954635">
        <ele>52.629996</ele>
        <time>2022-10-10T08:15:17.000Z</time>
      </trkpt>
      <trkpt lat="42.1387420004" lon="-73.954937003">
        <ele>53.999995</ele>
        <time>2022-10-10T08:15:25.000Z</time>
      </trkpt>
      <trkpt lat="42.138096" lon="-73.95522">
        <ele>55.349994</ele>
        <time>2022-10-10T08:15:33.000Z</time>
      </trkpt>
      <trkpt lat="42.137408" lon="-73.95541">
        <ele>57.769991</ele>
        <time>2022-10-10T08:15:41.000Z</time>
      </trkpt>
      <trkpt lat="42.137149" lon="-73.955441">
        <ele>60.309997</ele>
        <time>2022-10-10T08:15:44.000Z</time>
      </trkpt>
      <trkpt lat="42.136572" lon="-73.955576">
        <ele>60.889996</ele>
        <time>2022-10-10T08:15:51.000Z</time>
      </trkpt>
      <trkpt lat="42.136281" lon="-73.955666">
        <ele>61.410005</ele>
        <time>2022-10-10T08:15:54.000Z</time>
      </trkpt>
      <trkpt lat="42.13601" lon="-73.955773">
        <ele>61.410009</ele>
        <time>2022-10-10T08:15:57.000Z</time>
      </trkpt>
      <trkpt lat="42.135591" lon="-73.956036">
        <ele>62.269997</ele>
        <time>2022-10-10T08:16:02.000Z</time>
      </trkpt>
      <trkpt lat="42.1351040003" lon="-73.9563510025">
        <ele>63.879999</ele>
        <time>2022-10-10T08:16:08.000Z</time>
      </trkpt>
      <trkpt lat="42.134627" lon="-73.956659">
        <ele>64.560006</ele>
        <time>2022-10-10T08:16:14.000Z</time>
      </trkpt>
      <trkpt lat="42.133857" lon="-73.957048">
        <ele>64.210001</ele>
        <time>2022-10-10T08:16:23.000Z</time>
      </trkpt>
      <trkpt lat="42.13349" lon="-73.957179">
        <ele>64.489993</ele>
        <time>2022-10-10T08:16:27.000Z</time>
      </trkpt>
      <trkpt lat="42.13323" lon="-73.957255">
        <ele>64.479992</ele>
        <time>2022-10-10T08:16:30.000Z</time>
      </trkpt>
      <trkpt lat="42.132841" lon="-73.957297">
        <ele>64.990004</ele>
        <time>2022-10-10T08:16:34.000Z</time>
      </trkpt>
      <trkpt lat="42.132551" lon="-73.957361">
        <ele>65.860004</ele>
        <time>2022-10-10T08:16:37.000Z</time>
      </trkpt>
      <trkpt lat="42.132342" lon="-73.957413">
        <ele>66.890001</ele>
        <time>2022-10-10T08:16:39.000Z</time>
      </trkpt>
      <trkpt lat="42.1317710004" lon="-73.9576980025">
        <ele>69.780005</ele>
        <time>2022-10-10T08:16:46.000Z</time>
      </trkpt>
      <trkpt lat="42.131172" lon="-73.957969">
        <ele>70.260008</ele>
        <time>2022-10-10T08:16:53.000Z</time>
      </trkpt>
      <trkpt lat="42.130893" lon="-73.958147">
        <ele>70.469992</ele>
        <time>2022-10-10T08:16:56.000Z</time>
      </trkpt>
      <trkpt lat="42.130394" lon="-73.958597">
        <ele>72.58</ele>
        <time>2022-10-10T08:17:03.000Z</time>
      </trkpt>
      <trkpt lat="42.130253" lon="-73.95864">
        <ele>74.150001</ele>
        <time>2022-10-10T08:17:05.000Z</time>
      </trkpt>
      <trkpt lat="42.130056" lon="-73.958677">
        <ele>75.230007</ele>
        <time>2022-10-10T08:17:07.000Z</time>
      </trkpt>
      <trkpt lat="42.1293370001" lon="-73.9587490007">
        <ele>75.290007</ele>
        <time>2022-10-10T08:17:15.000Z</time>
      </trkpt>
      <trkpt lat="42.128603" lon="-73.958811">
        <ele>74.509995</ele>
        <time>2022-10-10T08:17:23.000Z</time>
      </trkpt>
      <trkpt lat="42.127928" lon="-73.958889">
        <ele>74.559998</ele>
        <time>2022-10-10T08:17:31.000Z</time>
      </trkpt>
      <trkpt lat="42.127676" lon="-73.958944">
        <ele>74.540001</ele>
        <time>2022-10-10T08:17:34.000Z</time>
      </trkpt>
      <trkpt lat="42.1271440002" lon="-73.9591790019">
        <ele>74.360002</ele>
        <time>2022-10-10T08:17:40.000Z</time>
      </trkpt>
      <trkpt lat="42.126605" lon="-73.959399">
        <ele>74.059993</ele>
        <time>2022-10-10T08:17:46.000Z</time>
      </trkpt>
      <trkpt lat="42.126887" lon="-73.959716">
        <ele>74.139991</ele>
        <time>2022-10-10T08:17:50.000Z</time>
      </trkpt>
      <trkpt lat="42.127021" lon="-73.959811">
        <ele>73.929995</ele>
        <time>2022-10-10T08:17:52.000Z</time>
      </trkpt>
      <trkpt lat="42.1275070005" lon="-73.9600839981">
        <ele>71.649992</ele>
        <time>2022-10-10T08:17:58.000Z</time>
      </trkpt>
      <trkpt lat="42.127998" lon="-73.960357">
        <ele>70.929998</ele>
        <time>2022-10-10T08:18:04.000Z</time>
      </trkpt>
      <trkpt lat="42.1285130003" lon="-73.9606059978">
        <ele>69.230002</ele>
        <time>2022-10-10T08:18:10.000Z</time>
      </trkpt>
      <trkpt lat="42.129041" lon="-73.960865">
        <ele>66.399997</ele>
        <time>2022-10-10T08:18:16.000Z</time>
      </trkpt>
      <trkpt lat="42.129628" lon="-73.961045">
        <ele>64.669997</ele>
        <time>2022-10-10T08:18:23.000Z</time>
      </trkpt>
      <trkpt lat="42.130183" lon="-73.961092">
        <ele>62.390006</ele>
        <time>2022-10-10T08:18:29.000Z</time>
      </trkpt>
      <trkpt lat="42.130468" lon="-73.961134">
        <ele>60.770005</ele>
        <time>2022-10-10T08:18:32.000Z</time>
      </trkpt>
      <trkpt lat="42.130587" lon="-73.961192">
        <ele>59.659996</ele>
        <time>2022-10-10T08:18:33.000Z</time>
      </trkpt>
      <trkpt lat="42.131188" lon="-73.961519">
        <ele>57.070001</ele>
        <time>2022-10-10T08:18:40.000Z</time>
      </trkpt>
      <trkpt lat="42.131434" lon="-73.961628">
        <ele>55.379999</ele>
        <time>2022-10-10T08:18:43.000Z</time>
      </trkpt>
      <trkpt lat="42.131715" lon="-73.961674">
        <ele>54.369996</ele>
        <time>2022-10-10T08:18:46.000Z</time>
      </trkpt>
      <trkpt lat="42.132053" lon="-73.961716">
        <ele>53.240008</ele>
        <time>2022-10-10T08:18:50.000Z</time>
      </trkpt>
      <trkpt lat="42.132327" lon="-73.961679">
        <ele>52.729997</ele>
        <time>2022-10-10T08:18:53.000Z</time>
      </trkpt>
      <trkpt lat="42.133155" lon="-73.961419">
        <ele>49.579991</ele>
        <time>2022-10-10T08:19:02.000Z</time>
      </trkpt>
      <trkpt lat="42.133282" lon="-73.961408">
        <ele>49.090001</ele>
        <time>2022-10-10T08:19:03.000Z</time>
      </trkpt>
      <trkpt lat="42.13335" lon="-73.961459">
        <ele>48.820008</ele>
        <time>2022-10-10T08:19:04.000Z</time>
      </trkpt>
      <trkpt lat="42.133423" lon="-73.961496">
        <ele>48.620007</ele>
        <time>2022-10-10T08:19:05.000Z</time>
      </trkpt>
      <trkpt lat="42.133478" lon="-73.961589">
        <ele>48.619997</ele>
        <time>2022-10-10T08:19:06.000Z</time>
      </trkpt>
      <trkpt lat="42.133525" lon="-73.961895">
        <ele>48.119999</ele>
        <time>2022-10-10T08:19:09.000Z</time>
      </trkpt>
      <trkpt lat="42.1335520043" lon="-73.9628989997">
        <ele>47.590003</ele>
        <time>2022-10-10T08:19:17.000Z</time>
      </trkpt>
      <trkpt lat="42.133573" lon="-73.963892">
        <ele>46.970009</ele>
        <time>2022-10-10T08:19:25.000Z</time>
      </trkpt>
      <trkpt lat="42.133607" lon="-73.964137">
        <ele>46.350007</ele>
        <time>2022-10-10T08:19:27.000Z</time>
      </trkpt>
      <trkpt lat="42.133681" lon="-73.964503">
        <ele>44.899993</ele>
        <time>2022-10-10T08:19:30.000Z</time>
      </trkpt>
      <trkpt lat="42.133878" lon="-73.965212">
        <ele>38.190002</ele>
        <time>2022-10-10T08:19:36.000Z</time>
      </trkpt>
      <trkpt lat="42.133942" lon="-73.965437">
        <ele>36.339991</ele>
        <time>2022-10-10T08:19:38.000Z</time>
      </trkpt>
      <trkpt lat="42.134035" lon="-73.965523">
        <ele>35.320008</ele>
        <time>2022-10-10T08:19:39.000Z</time>
      </trkpt>
      <trkpt lat="42.134121" lon="-73.965571">
        <ele>34.760005</ele>
        <time>2022-10-10T08:19:40.000Z</time>
      </trkpt>
      <trkpt lat="42.134854501" lon="-73.9658479903">
        <ele>33.680006</ele>
        <time>2022-10-10T08:19:48.000Z</time>
      </trkpt>
      <trkpt lat="42.1355940013" lon="-73.966137987">
        <ele>34.780008</ele>
        <time>2022-10-10T08:19:57.000Z</time>
      </trkpt>
      <trkpt lat="42.136310501" lon="-73.9664129903">
        <ele>36.140004</ele>
        <time>2022-10-10T08:20:05.000Z</time>
      </trkpt>
      <trkpt lat="42.137052" lon="-73.966684">
        <ele>42.240008</ele>
        <time>2022-10-10T08:20:14.000Z</time>
      </trkpt>
      <trkpt lat="42.137848" lon="-73.967233">
        <ele>52.840006</ele>
        <time>2022-10-10T08:20:24.000Z</time>
      </trkpt>
      <trkpt lat="42.137939" lon="-73.96741">
        <ele>53.100007</ele>
        <time>2022-10-10T08:20:26.000Z</time>
      </trkpt>
      <trkpt lat="42.137964" lon="-73.967595">
        <ele>53.160008</ele>
        <time>2022-10-10T08:20:28.000Z</time>
      </trkpt>
      <trkpt lat="42.137934" lon="-73.967769">
        <ele>53.070007</ele>
        <time>2022-10-10T08:20:29.000Z</time>
      </trkpt>
      <trkpt lat="42.137837" lon="-73.968074">
        <ele>52.730006</ele>
        <time>2022-10-10T08:20:32.000Z</time>
      </trkpt>
      <trkpt lat="42.1375560022" lon="-73.9687670029">
        <ele>52.619997</ele>
        <time>2022-10-10T08:20:39.000Z</time>
      </trkpt>
      <trkpt lat="42.137286" lon="-73.969469">
        <ele>53.049999</ele>
        <time>2022-10-10T08:20:46.000Z</time>
      </trkpt>
      <trkpt lat="42.137177" lon="-73.969665">
        <ele>53.230004</ele>
        <time>2022-10-10T08:20:48.000Z</time>
      </trkpt>
      <trkpt lat="42.137052" lon="-73.969794">
        <ele>53.780007</ele>
        <time>2022-10-10T08:20:50.000Z</time>
      </trkpt>
      <trkpt lat="42.136557" lon="-73.970044">
        <ele>55.770007</ele>
        <time>2022-10-10T08:20:56.000Z</time>
      </trkpt>
      <trkpt lat="42.136352" lon="-73.970176">
        <ele>56.029997</ele>
        <time>2022-10-10T08:20:59.000Z</time>
      </trkpt>
      <trkpt lat="42.135756" lon="-73.970823">
        <ele>57.189993</ele>
        <time>2022-10-10T08:21:08.000Z</time>
      </trkpt>
      <trkpt lat="42.135604" lon="-73.971068">
        <ele>58.389995</ele>
        <time>2022-10-10T08:21:11.000Z</time>
      </trkpt>
      <trkpt lat="42.135527" lon="-73.97121">
        <ele>58.770005</ele>
        <time>2022-10-10T08:21:12.000Z</time>
      </trkpt>
      <trkpt lat="42.135428" lon="-73.971451">
        <ele>59.510008</ele>
        <time>2022-10-10T08:21:14.000Z</time>
      </trkpt>
      <trkpt lat="42.135362" lon="-73.971767">
        <ele>61.219993</ele>
        <time>2022-10-10T08:21:17.000Z</time>
      </trkpt>
      <trkpt lat="42.135366" lon="-73.972021">
        <ele>62.200006</ele>
        <time>2022-10-10T08:21:19.000Z</time>
      </trkpt>
      <trkpt lat="42.135425" lon="-73.972557">
        <ele>66.410007</ele>
        <time>2022-10-10T08:21:23.000Z</time>
      </trkpt>
      <trkpt lat="42.135429" lon="-73.973001">
        <ele>71.019997</ele>
        <time>2022-10-10T08:21:27.000Z</time>
      </trkpt>
      <trkpt lat="42.135449" lon="-73.973094">
        <ele>73.400002</ele>
        <time>2022-10-10T08:21:28.000Z</time>
      </trkpt>
      <trkpt lat="42.135549" lon="-73.973319">
        <ele>76.399999</ele>
        <time>2022-10-10T08:21:30.000Z</time>
      </trkpt>
      <trkpt lat="42.135887" lon="-73.973721">
        <ele>81.849992</ele>
        <time>2022-10-10T08:21:35.000Z</time>
      </trkpt>
      <trkpt lat="42.136183" lon="-73.973997">
        <ele>85.129993</ele>
        <time>2022-10-10T08:21:39.000Z</time>
      </trkpt>
      <trkpt lat="42.136243" lon="-73.974088">
        <ele>85.130008</ele>
        <time>2022-10-10T08:21:40.000Z</time>
      </trkpt>
      <trkpt lat="42.136362" lon="-73.974312">
        <ele>86.680007</ele>
        <time>2022-10-10T08:21:42.000Z</time>
      </trkpt>
      <trkpt lat="42.136511" lon="-73.975293">
        <ele>86.580002</ele>
        <time>2022-10-10T08:21:50.000Z</time>
      </trkpt>
      <trkpt lat="42.136535" lon="-73.976365">
        <ele>89.939992</ele>
        <time>2022-10-10T08:21:59.000Z</time>
      </trkpt>
      <trkpt lat="42.136629" lon="-73.977478">
        <ele>91.399993</ele>
        <time>2022-10-10T08:22:08.000Z</time>
      </trkpt>
      <trkpt lat="42.136667" lon="-73.978412">
        <ele>91.959992</ele>
        <time>2022-10-10T08:22:16.000Z</time>
      </trkpt>
      <trkpt lat="42.136515" lon="-73.979262">
        <ele>90.720004</ele>
        <time>2022-10-10T08:22:23.000Z</time>
      </trkpt>
      <trkpt lat="42.136492" lon="-73.979726">
        <ele>91.639992</ele>
        <time>2022-10-10T08:22:27.000Z</time>
      </trkpt>
      <trkpt lat="42.136579" lon="-73.980435">
        <ele>93.520005</ele>
        <time>2022-10-10T08:22:33.000Z</time>
      </trkpt>
      <trkpt lat="42.136617" lon="-73.980563">
        <ele>93.52</ele>
        <time>2022-10-10T08:22:34.000Z</time>
      </trkpt>
      <trkpt lat="42.136781" lon="-73.980904">
        <ele>94.210005</ele>
        <time>2022-10-10T08:22:37.000Z</time>
      </trkpt>
      <trkpt lat="42.136953" lon="-73.981204">
        <ele>95.060002</ele>
        <time>2022-10-10T08:22:40.000Z</time>
      </trkpt>
      <trkpt lat="42.137331" lon="-73.981692">
        <ele>96.580005</ele>
        <time>2022-10-10T08:22:46.000Z</time>
      </trkpt>
      <trkpt lat="42.137651" lon="-73.982223">
        <ele>98.950008</ele>
        <time>2022-10-10T08:22:52.000Z</time>
      </trkpt>
      <trkpt lat="42.138005" lon="-73.982634">
        <ele>102.689993</ele>
        <time>2022-10-10T08:22:57.000Z</time>
      </trkpt>
      <trkpt lat="42.138064" lon="-73.982775">
        <ele>102.809991</ele>
        <time>2022-10-10T08:22:58.000Z</time>
      </trkpt>
      <trkpt lat="42.138229" lon="-73.983351">
        <ele>101.92</ele>
        <time>2022-10-10T08:23:03.000Z</time>
      </trkpt>
      <trkpt lat="42.138519" lon="-73.984148">
        <ele>97.550009</ele>
        <time>2022-10-10T08:23:10.000Z</time>
      </trkpt>
      <trkpt lat="42.138599" lon="-73.984285">
        <ele>97.59</ele>
        <time>2022-10-10T08:23:11.000Z</time>
      </trkpt>
      <trkpt lat="42.138868" lon="-73.984597">
        <ele>98.270005</ele>
        <time>2022-10-10T08:23:15.000Z</time>
      </trkpt>
      <trkpt lat="42.138973" lon="-73.984747">
        <ele>98.530006</ele>
        <time>2022-10-10T08:23:17.000Z</time>
      </trkpt>
      <trkpt lat="42.139214" lon="-73.985183">
        <ele>97.959994</ele>
        <time>2022-10-10T08:23:21.000Z</time>
      </trkpt>
      <trkpt lat="42.139338" lon="-73.985347">
        <ele>97.749997</ele>
        <time>2022-10-10T08:23:23.000Z</time>
      </trkpt>
      <trkpt lat="42.139774" lon="-73.985623">
        <ele>97.339996</ele>
        <time>2022-10-10T08:23:28.000Z</time>
      </trkpt>
      <trkpt lat="42.140221" lon="-73.985715">
        <ele>97.879994</ele>
        <time>2022-10-10T08:23:33.000Z</time>
      </trkpt>
      <trkpt lat="42.140386" lon="-73.985721">
        <ele>98.749995</ele>
        <time>2022-10-10T08:23:35.000Z</time>
      </trkpt>
      <trkpt lat="42.14068" lon="-73.985674">
        <ele>99.249994</ele>
        <time>2022-10-10T08:23:38.000Z</time>
      </trkpt>
      <trkpt lat="42.140808" lon="-73.985712">
        <ele>99.319992</ele>
        <time>2022-10-10T08:23:39.000Z</time>
      </trkpt>
      <trkpt lat="42.140935" lon="-73.9858">
        <ele>99.319994</ele>
        <time>2022-10-10T08:23:41.000Z</time>
      </trkpt>
      <trkpt lat="42.140997" lon="-73.985903">
        <ele>99.220003</ele>
        <time>2022-10-10T08:23:42.000Z</time>
      </trkpt>
      <trkpt lat="42.141108" lon="-73.986476">
        <ele>98.359992</ele>
        <time>2022-10-10T08:23:47.000Z</time>
      </trkpt>
      <trkpt lat="42.141322" lon="-73.987516">
        <ele>98.569993</ele>
        <time>2022-10-10T08:23:56.000Z</time>
      </trkpt>
      <trkpt lat="42.141486005" lon="-73.9885769974">
        <ele>100.929998</ele>
        <time>2022-10-10T08:24:05.000Z</time>
      </trkpt>
      <trkpt lat="42.14163" lon="-73.989655">
        <ele>104.290002</ele>
        <time>2022-10-10T08:24:14.000Z</time>
      </trkpt>
      <trkpt lat="42.141875" lon="-73.989531">
        <ele>104.63</ele>
        <time>2022-10-10T08:24:17.000Z</time>
      </trkpt>
      <trkpt lat="42.14224" lon="-73.989296">
        <ele>105.610002</ele>
        <time>2022-10-10T08:24:21.000Z</time>
      </trkpt>
      <trkpt lat="42.142514" lon="-73.989176">
        <ele>105.919992</ele>
        <time>2022-10-10T08:24:24.000Z</time>
      </trkpt>
      <trkpt lat="42.143277" lon="-73.988997">
        <ele>105.779991</ele>
        <time>2022-10-10T08:24:33.000Z</time>
      </trkpt>
      <trkpt lat="42.143411" lon="-73.988917">
        <ele>105.72</ele>
        <time>2022-10-10T08:24:35.000Z</time>
      </trkpt>
      <trkpt lat="42.143772" lon="-73.988752">
        <ele>105.850007</ele>
        <time>2022-10-10T08:24:39.000Z</time>
      </trkpt>
      <trkpt lat="42.144006" lon="-73.988692">
        <ele>106.070003</ele>
        <time>2022-10-10T08:24:42.000Z</time>
      </trkpt>
      <trkpt lat="42.144286" lon="-73.988674">
        <ele>106.020009</ele>
        <time>2022-10-10T08:24:45.000Z</time>
      </trkpt>
      <trkpt lat="42.1447180001" lon="-73.9884700015">
        <ele>105.699996</ele>
        <time>2022-10-10T08:24:50.000Z</time>
      </trkpt>
      <trkpt lat="42.145169" lon="-73.988261">
        <ele>106.379995</ele>
        <time>2022-10-10T08:24:55.000Z</time>
      </trkpt>
      <trkpt lat="42.145292" lon="-73.988286">
        <ele>107.179996</ele>
        <time>2022-10-10T08:24:56.000Z</time>
      </trkpt>
      <trkpt lat="42.145628" lon="-73.988477">
        <ele>109.149994</ele>
        <time>2022-10-10T08:25:00.000Z</time>
      </trkpt>
      <trkpt lat="42.145857" lon="-73.988598">
        <ele>109.809993</ele>
        <time>2022-10-10T08:25:03.000Z</time>
      </trkpt>
      <trkpt lat="42.146365" lon="-73.988424">
        <ele>110.400009</ele>
        <time>2022-10-10T08:25:09.000Z</time>
      </trkpt>
      <trkpt lat="42.146995" lon="-73.98827">
        <ele>111.509992</ele>
        <time>2022-10-10T08:25:16.000Z</time>
      </trkpt>
      <trkpt lat="42.147631" lon="-73.987961">
        <ele>111.869995</ele>
        <time>2022-10-10T08:25:24.000Z</time>
      </trkpt>
      <trkpt lat="42.147638" lon="-73.987958">
        <ele>111.880002</ele>
        <time>2022-10-10T08:25:24.000Z</time>
      </trkpt>
      <trkpt lat="42.1482430004" lon="-73.9876700027">
        <ele>111.260005</ele>
        <time>2022-10-10T08:25:31.000Z</time>
      </trkpt>
      <trkpt lat="42.14884" lon="-73.987371">
        <ele>111.059999</ele>
        <time>2022-10-10T08:25:38.000Z</time>
      </trkpt>
      <trkpt lat="42.149361" lon="-73.987144">
        <ele>111.069999</ele>
        <time>2022-10-10T08:25:44.000Z</time>
      </trkpt>
      <trkpt lat="42.149569" lon="-73.987023">
        <ele>110.789994</ele>
        <time>2022-10-10T08:25:47.000Z</time>
      </trkpt>
      <trkpt lat="42.149693" lon="-73.986923">
        <ele>110.429993</ele>
        <time>2022-10-10T08:25:49.000Z</time>
      </trkpt>
      <trkpt lat="42.149774" lon="-73.986831">
        <ele>110.090007</ele>
        <time>2022-10-10T08:25:50.000Z</time>
      </trkpt>
      <trkpt lat="42.149958" lon="-73.986382">
        <ele>108.619998</ele>
        <time>2022-10-10T08:25:54.000Z</time>
      </trkpt>
      <trkpt lat="42.150117" lon="-73.986036">
        <ele>107.569992</ele>
        <time>2022-10-10T08:25:57.000Z</time>
      </trkpt>
      <trkpt lat="42.150295" lon="-73.985824">
        <ele>107.029992</ele>
        <time>2022-10-10T08:26:00.000Z</time>
      </trkpt>
      <trkpt lat="42.150731" lon="-73.985399">
        <ele>106.699996</ele>
        <time>2022-10-10T08:26:06.000Z</time>
      </trkpt>
      <trkpt lat="42.151142" lon="-73.984916">
        <ele>107.390007</ele>
        <time>2022-10-10T08:26:12.000Z</time>
      </trkpt>
      <trkpt lat="42.151638" lon="-73.984682">
        <ele>107.180005</ele>
        <time>2022-10-10T08:26:18.000Z</time>
      </trkpt>
      <trkpt lat="42.15173" lon="-73.984584">
        <ele>106.660007</ele>
        <time>2022-10-10T08:26:19.000Z</time>
      </trkpt>
      <trkpt lat="42.152052" lon="-73.984124">
        <ele>104.800007</ele>
        <time>2022-10-10T08:26:24.000Z</time>
      </trkpt>
      <trkpt lat="42.152203" lon="-73.983974">
        <ele>104.640002</ele>
        <time>2022-10-10T08:26:26.000Z</time>
      </trkpt>
      <trkpt lat="42.1528050012" lon="-73.9834260052">
        <ele>104.009995</ele>
        <time>2022-10-10T08:26:34.000Z</time>
      </trkpt>
      <trkpt lat="42.153413" lon="-73.982906">
        <ele>104.019997</ele>
        <time>2022-10-10T08:26:42.000Z</time>
      </trkpt>
      <trkpt lat="42.154" lon="-73.982493">
        <ele>102.530006</ele>
        <time>2022-10-10T08:26:49.000Z</time>
      </trkpt>
      <trkpt lat="42.154243" lon="-73.982329">
        <ele>100.060004</ele>
        <time>2022-10-10T08:26:52.000Z</time>
      </trkpt>
      <trkpt lat="42.154484" lon="-73.982031">
        <ele>96.969991</ele>
        <time>2022-10-10T08:26:56.000Z</time>
      </trkpt>
      <trkpt lat="42.1548450009" lon="-73.9815600029">
        <ele>92.909995</ele>
        <time>2022-10-10T08:27:02.000Z</time>
      </trkpt>
      <trkpt lat="42.155216" lon="-73.98107">
        <ele>91.790004</ele>
        <time>2022-10-10T08:27:08.000Z</time>
      </trkpt>
      <trkpt lat="42.15575" lon="-73.980594">
        <ele>92.230002</ele>
        <time>2022-10-10T08:27:15.000Z</time>
      </trkpt>
      <trkpt lat="42.1561790006" lon="-73.9802520023">
        <ele>93.600006</ele>
        <time>2022-10-10T08:27:21.000Z</time>
      </trkpt>
      <trkpt lat="42.156599" lon="-73.979905">
        <ele>92.860009</ele>
        <time>2022-10-10T08:27:26.000Z</time>
      </trkpt>
      <trkpt lat="42.156785" lon="-73.979704">
        <ele>90.480007</ele>
        <time>2022-10-10T08:27:29.000Z</time>
      </trkpt>
      <trkpt lat="42.1569" lon="-73.979532">
        <ele>88.979996</ele>
        <time>2022-10-10T08:27:31.000Z</time>
      </trkpt>
      <trkpt lat="42.15722" lon="-73.978833">
        <ele>86.259993</ele>
        <time>2022-10-10T08:27:38.000Z</time>
      </trkpt>
      <trkpt lat="42.157349" lon="-73.978655">
        <ele>86.130009</ele>
        <time>2022-10-10T08:27:40.000Z</time>
      </trkpt>
      <trkpt lat="42.157473" lon="-73.978507">
        <ele>86.259996</ele>
        <time>2022-10-10T08:27:42.000Z</time>
      </trkpt>
      <trkpt lat="42.157556" lon="-73.978465">
        <ele>86.570007</ele>
        <time>2022-10-10T08:27:43.000Z</time>
      </trkpt>
      <trkpt lat="42.158281" lon="-73.978335">
        <ele>90.209998</ele>
        <time>2022-10-10T08:27:51.000Z</time>
      </trkpt>
      <trkpt lat="42.1588800002" lon="-73.9781730015">
        <ele>92.469993</ele>
        <time>2022-10-10T08:27:58.000Z</time>
      </trkpt>
      <trkpt lat="42.159481" lon="-73.978027">
        <ele>94.269991</ele>
        <time>2022-10-10T08:28:05.000Z</time>
      </trkpt>
      <trkpt lat="42.159651" lon="-73.97795">
        <ele>93.999997</ele>
        <time>2022-10-10T08:28:07.000Z</time>
      </trkpt>
      <trkpt lat="42.159636" lon="-73.977954">
        <ele>94.030007</ele>
        <time>2022-10-10T08:28:07.000Z</time>
      </trkpt>
      <trkpt lat="42.16046" lon="-73.977538">
        <ele>93.780001</ele>
        <time>2022-10-10T08:28:17.000Z</time>
      </trkpt>
      <trkpt lat="42.160895" lon="-73.977357">
        <ele>93.56</ele>
        <time>2022-10-10T08:28:22.000Z</time>
      </trkpt>
      <trkpt lat="42.161145" lon="-73.977204">
        <ele>91.870008</ele>
        <time>2022-10-10T08:28:25.000Z</time>
      </trkpt>
      <trkpt lat="42.161442" lon="-73.976888">
        <ele>90.350005</ele>
        <time>2022-10-10T08:28:29.000Z</time>
      </trkpt>
      <trkpt lat="42.161418" lon="-73.976779">
        <ele>89.350004</ele>
        <time>2022-10-10T08:28:30.000Z</time>
      </trkpt>
      <trkpt lat="42.161399" lon="-73.976588">
        <ele>88.199992</ele>
        <time>2022-10-10T08:28:32.000Z</time>
      </trkpt>
      <trkpt lat="42.161412" lon="-73.976451">
        <ele>84.919999</ele>
        <time>2022-10-10T08:28:33.000Z</time>
      </trkpt>
      <trkpt lat="42.161645" lon="-73.975904">
        <ele>81.620007</ele>
        <time>2022-10-10T08:28:38.000Z</time>
      </trkpt>
      <trkpt lat="42.161721" lon="-73.975692">
        <ele>81.180006</ele>
        <time>2022-10-10T08:28:40.000Z</time>
      </trkpt>
      <trkpt lat="42.161753" lon="-73.975298">
        <ele>80.650008</ele>
        <time>2022-10-10T08:28:43.000Z</time>
      </trkpt>
      <trkpt lat="42.161659" lon="-73.974655">
        <ele>83.530005</ele>
        <time>2022-10-10T08:28:48.000Z</time>
      </trkpt>
      <trkpt lat="42.161685" lon="-73.974029">
        <ele>88.680006</ele>
        <time>2022-10-10T08:28:53.000Z</time>
      </trkpt>
      <trkpt lat="42.161737" lon="-73.973704">
        <ele>86.530001</ele>
        <time>2022-10-10T08:28:56.000Z</time>
      </trkpt>
      <trkpt lat="42.161986" lon="-73.97332">
        <ele>84.180007</ele>
        <time>2022-10-10T08:29:00.000Z</time>
      </trkpt>
      <trkpt lat="42.162035" lon="-73.973172">
        <ele>84.069996</ele>
        <time>2022-10-10T08:29:01.000Z</time>
      </trkpt>
      <trkpt lat="42.162037" lon="-73.972964">
        <ele>84.230009</ele>
        <time>2022-10-10T08:29:03.000Z</time>
      </trkpt>
      <trkpt lat="42.161987" lon="-73.972593">
        <ele>84.930001</ele>
        <time>2022-10-10T08:29:06.000Z</time>
      </trkpt>
      <trkpt lat="42.161981" lon="-73.97249">
        <ele>84.929995</ele>
        <time>2022-10-10T08:29:07.000Z</time>
      </trkpt>
      <trkpt lat="42.161844" lon="-73.972333">
        <ele>84.940003</ele>
        <time>2022-10-10T08:29:09.000Z</time>
      </trkpt>
      <trkpt lat="42.161715" lon="-73.972151">
        <ele>85.370001</ele>
        <time>2022-10-10T08:29:11.000Z</time>
      </trkpt>
      <trkpt lat="42.161661" lon="-73.97194">
        <ele>86.069995</ele>
        <time>2022-10-10T08:29:13.000Z</time>
      </trkpt>
      <trkpt lat="42.161662" lon="-73.971682">
        <ele>86.020009</ele>
        <time>2022-10-10T08:29:15.000Z</time>
      </trkpt>
      <trkpt lat="42.161713" lon="-73.971485">
        <ele>85.560002</ele>
        <time>2022-10-10T08:29:17.000Z</time>
      </trkpt>
      <trkpt lat="42.161783" lon="-73.971393">
        <ele>85.560001</ele>
        <time>2022-10-10T08:29:18.000Z</time>
      </trkpt>
      <trkpt lat="42.162042" lon="-73.971043">
        <ele>82.139991</ele>
        <time>2022-10-10T08:29:22.000Z</time>
      </trkpt>
      <trkpt lat="42.162181" lon="-73.970722">
        <ele>81.409999</ele>
        <time>2022-10-10T08:29:25.000Z</time>
      </trkpt>
      <trkpt lat="42.162251" lon="-73.970496">
        <ele>80.279995</ele>
        <time>2022-10-10T08:29:27.000Z</time>
      </trkpt>
      <trkpt lat="42.162289" lon="-73.970042">
        <ele>77.950008</ele>
        <time>2022-10-10T08:29:31.000Z</time>
      </trkpt>
      <trkpt lat="42.162322" lon="-73.969949">
        <ele>77.119991</ele>
        <time>2022-10-10T08:29:32.000Z</time>
      </trkpt>
      <trkpt lat="42.162554" lon="-73.969509">
        <ele>72.209997</ele>
        <time>2022-10-10T08:29:36.000Z</time>
      </trkpt>
      <trkpt lat="42.162622" lon="-73.969248">
        <ele>69.889999</ele>
        <time>2022-10-10T08:29:38.000Z</time>
      </trkpt>
      <trkpt lat="42.162618" lon="-73.969027">
        <ele>68.680009</ele>
        <time>2022-10-10T08:29:40.000Z</time>
      </trkpt>
      <trkpt lat="42.162584" lon="-73.968754">
        <ele>67.540008</ele>
        <time>2022-10-10T08:29:42.000Z</time>
      </trkpt>
      <trkpt lat="42.162539" lon="-73.968626">
        <ele>66.980004</ele>
        <time>2022-10-10T08:29:43.000Z</time>
      </trkpt>
      <trkpt lat="42.162331" lon="-73.968081">
        <ele>67.309998</ele>
        <time>2022-10-10T08:29:48.000Z</time>
      </trkpt>
      <trkpt lat="42.162116" lon="-73.967676">
        <ele>68.359998</ele>
        <time>2022-10-10T08:29:52.000Z</time>
      </trkpt>
      <trkpt lat="42.162297" lon="-73.967507">
        <ele>68.749998</ele>
        <time>2022-10-10T08:29:54.000Z</time>
      </trkpt>
      <trkpt lat="42.162579" lon="-73.967042">
        <ele>71.530007</ele>
        <time>2022-10-10T08:29:59.000Z</time>
      </trkpt>
      <trkpt lat="42.162712" lon="-73.966929">
        <ele>72.020009</ele>
        <time>2022-10-10T08:30:01.000Z</time>
      </trkpt>
      <trkpt lat="42.162873" lon="-73.966834">
        <ele>72.599991</ele>
        <time>2022-10-10T08:30:03.000Z</time>
      </trkpt>
      <trkpt lat="42.163007" lon="-73.966731">
        <ele>73.199993</ele>
        <time>2022-10-10T08:30:05.000Z</time>
      </trkpt>
      <trkpt lat="42.163284001" lon="-73.9662440023">
        <ele>76.550001</ele>
        <time>2022-10-10T08:30:10.000Z</time>
      </trkpt>
      <trkpt lat="42.163567" lon="-73.965763">
        <ele>77.190003</ele>
        <time>2022-10-10T08:30:15.000Z</time>
      </trkpt>
      <trkpt lat="42.16385" lon="-73.965224">
        <ele>80.839992</ele>
        <time>2022-10-10T08:30:20.000Z</time>
      </trkpt>
      <trkpt lat="42.163903" lon="-73.964996">
        <ele>82.179998</ele>
        <time>2022-10-10T08:30:22.000Z</time>
      </trkpt>
      <trkpt lat="42.163938" lon="-73.964581">
        <ele>81.459999</ele>
        <time>2022-10-10T08:30:25.000Z</time>
      </trkpt>
      <trkpt lat="42.163971" lon="-73.964378">
        <ele>81.079991</ele>
        <time>2022-10-10T08:30:27.000Z</time>
      </trkpt>
      <trkpt lat="42.164002" lon="-73.964278">
        <ele>80.960005</ele>
        <time>2022-10-10T08:30:28.000Z</time>
      </trkpt>
      <trkpt lat="42.164535" lon="-73.963373">
        <ele>81.349992</ele>
        <time>2022-10-10T08:30:38.000Z</time>
      </trkpt>
      <trkpt lat="42.164694" lon="-73.962972">
        <ele>80.039995</ele>
        <time>2022-10-10T08:30:42.000Z</time>
      </trkpt>
      <trkpt lat="42.164902" lon="-73.962613">
        <ele>77.629994</ele>
        <time>2022-10-10T08:30:46.000Z</time>
      </trkpt>
      <trkpt lat="42.165285" lon="-73.962078">
        <ele>76.389995</ele>
        <time>2022-10-10T08:30:52.000Z</time>
      </trkpt>
      <trkpt lat="42.165436" lon="-73.961773">
        <ele>75.980009</ele>
        <time>2022-10-10T08:30:55.000Z</time>
      </trkpt>
      <trkpt lat="42.165547" lon="-73.961368">
        <ele>75.940008</ele>
        <time>2022-10-10T08:30:59.000Z</time>
      </trkpt>
      <trkpt lat="42.165746" lon="-73.960368">
        <ele>76.330002</ele>
        <time>2022-10-10T08:31:08.000Z</time>
      </trkpt>
      <trkpt lat="42.165859" lon="-73.959938">
        <ele>75.869996</ele>
        <time>2022-10-10T08:31:12.000Z</time>
      </trkpt>
      <trkpt lat="42.166176" lon="-73.959122">
        <ele>77.079998</ele>
        <time>2022-10-10T08:31:20.000Z</time>
      </trkpt>
      <trkpt lat="42.166251" lon="-73.958983">
        <ele>77.419996</ele>
        <time>2022-10-10T08:31:21.000Z</time>
      </trkpt>
      <trkpt lat="42.166487" lon="-73.958634">
        <ele>77.830007</ele>
        <time>2022-10-10T08:31:25.000Z</time>
      </trkpt>
      <trkpt lat="42.166912" lon="-73.958215">
        <ele>77.609992</ele>
        <time>2022-10-10T08:31:31.000Z</time>
      </trkpt>
      <trkpt lat="42.167518" lon="-73.957926">
        <ele>76.24</ele>
        <time>2022-10-10T08:31:38.000Z</time>
      </trkpt>
      <trkpt lat="42.167834" lon="-73.957694">
        <ele>75.1</ele>
        <time>2022-10-10T08:31:42.000Z</time>
      </trkpt>
      <trkpt lat="42.168106" lon="-73.957476">
        <ele>74.850009</ele>
        <time>2022-10-10T08:31:46.000Z</time>
      </trkpt>
      <trkpt lat="42.168376" lon="-73.957153">
        <ele>75.170007</ele>
        <time>2022-10-10T08:31:50.000Z</time>
      </trkpt>
      <trkpt lat="42.168511" lon="-73.956934">
        <ele>75.010002</ele>
        <time>2022-10-10T08:31:52.000Z</time>
      </trkpt>
      <trkpt lat="42.168711" lon="-73.956471">
        <ele>72.930003</ele>
        <time>2022-10-10T08:31:56.000Z</time>
      </trkpt>
      <trkpt lat="42.168814" lon="-73.95635">
        <ele>71.869999</ele>
        <time>2022-10-10T08:31:58.000Z</time>
      </trkpt>
      <trkpt lat="42.168942" lon="-73.956177">
        <ele>68.859994</ele>
        <time>2022-10-10T08:32:00.000Z</time>
      </trkpt>
      <trkpt lat="42.169315" lon="-73.955824">
        <ele>64.019998</ele>
        <time>2022-10-10T08:32:05.000Z</time>
      </trkpt>
      <trkpt lat="42.169948" lon="-73.95537">
        <ele>63.070007</ele>
        <time>2022-10-10T08:32:13.000Z</time>
      </trkpt>
      <trkpt lat="42.170547" lon="-73.955011">
        <ele>63.729997</ele>
        <time>2022-10-10T08:32:20.000Z</time>
      </trkpt>
      <trkpt lat="42.170884" lon="-73.954767">
        <ele>63.590007</ele>
        <time>2022-10-10T08:32:24.000Z</time>
      </trkpt>
      <trkpt lat="42.171322" lon="-73.954369">
        <ele>63.859992</ele>
        <time>2022-10-10T08:32:30.000Z</time>
      </trkpt>
      <trkpt lat="42.171571" lon="-73.954108">
        <ele>64.47</ele>
        <time>2022-10-10T08:32:34.000Z</time>
      </trkpt>
      <trkpt lat="42.171723" lon="-73.953929">
        <ele>65.239994</ele>
        <time>2022-10-10T08:32:36.000Z</time>
      </trkpt>
      <trkpt lat="42.171989" lon="-73.953475">
        <ele>65.78</ele>
        <time>2022-10-10T08:32:41.000Z</time>
      </trkpt>
      <trkpt lat="42.172082" lon="-73.953259">
        <ele>65.730003</ele>
        <time>2022-10-10T08:32:43.000Z</time>
      </trkpt>
      <trkpt lat="42.1722990021" lon="-73.9525610023">
        <ele>63.730001</ele>
        <time>2022-10-10T08:32:49.000Z</time>
      </trkpt>
      <trkpt lat="42.172513" lon="-73.951867">
        <ele>65.419994</ele>
        <time>2022-10-10T08:32:55.000Z</time>
      </trkpt>
      <trkpt lat="42.172624" lon="-73.951603">
        <ele>67.680002</ele>
        <time>2022-10-10T08:32:58.000Z</time>
      </trkpt>
      <trkpt lat="42.172858" lon="-73.951243">
        <ele>71.340005</ele>
        <time>2022-10-10T08:33:02.000Z</time>
      </trkpt>
      <trkpt lat="42.173123" lon="-73.950982">
        <ele>72.649999</ele>
        <time>2022-10-10T08:33:06.000Z</time>
      </trkpt>
      <trkpt lat="42.173312" lon="-73.95084">
        <ele>73.099993</ele>
        <time>2022-10-10T08:33:08.000Z</time>
      </trkpt>
      <trkpt lat="42.173762" lon="-73.950663">
        <ele>72.000006</ele>
        <time>2022-10-10T08:33:13.000Z</time>
      </trkpt>
      <trkpt lat="42.174087" lon="-73.950443">
        <ele>70.629999</ele>
        <time>2022-10-10T08:33:17.000Z</time>
      </trkpt>
      <trkpt lat="42.1746540004" lon="-73.9501970021">
        <ele>67.469997</ele>
        <time>2022-10-10T08:33:24.000Z</time>
      </trkpt>
      <trkpt lat="42.175207" lon="-73.94996">
        <ele>65.360004</ele>
        <time>2022-10-10T08:33:30.000Z</time>
      </trkpt>
      <trkpt lat="42.175602" lon="-73.949712">
        <ele>64.950009</ele>
        <time>2022-10-10T08:33:35.000Z</time>
      </trkpt>
      <trkpt lat="42.175882" lon="-73.949501">
        <ele>64.979996</ele>
        <time>2022-10-10T08:33:39.000Z</time>
      </trkpt>
      <trkpt lat="42.176456" lon="-73.948741">
        <ele>69.139997</ele>
        <time>2022-10-10T08:33:48.000Z</time>
      </trkpt>
      <trkpt lat="42.176727" lon="-73.948245">
        <ele>71.859998</ele>
        <time>2022-10-10T08:33:53.000Z</time>
      </trkpt>
      <trkpt lat="42.176856" lon="-73.947428">
        <ele>65.080005</ele>
        <time>2022-10-10T08:34:00.000Z</time>
      </trkpt>
      <trkpt lat="42.176903" lon="-73.947245">
        <ele>64.369997</ele>
        <time>2022-10-10T08:34:02.000Z</time>
      </trkpt>
      <trkpt lat="42.177009" lon="-73.947032">
        <ele>61.390008</ele>
        <time>2022-10-10T08:34:04.000Z</time>
      </trkpt>
      <trkpt lat="42.177153" lon="-73.946802">
        <ele>59.330001</ele>
        <time>2022-10-10T08:34:06.000Z</time>
      </trkpt>
      <trkpt lat="42.177294" lon="-73.946622">
        <ele>58.249997</ele>
        <time>2022-10-10T08:34:08.000Z</time>
      </trkpt>
      <trkpt lat="42.177547" lon="-73.946408">
        <ele>57.630005</ele>
        <time>2022-10-10T08:34:11.000Z</time>
      </trkpt>
      <trkpt lat="42.1780510006" lon="-73.9460170029">
        <ele>58.529997</ele>
        <time>2022-10-10T08:34:17.000Z</time>
      </trkpt>
      <trkpt lat="42.178542" lon="-73.945649">
        <ele>57.499993</ele>
        <time>2022-10-10T08:34:23.000Z</time>
      </trkpt>
      <trkpt lat="42.178673" lon="-73.945479">
        <ele>56.070009</ele>
        <time>2022-10-10T08:34:25.000Z</time>
      </trkpt>
      <trkpt lat="42.178692" lon="-73.945255">
        <ele>53.719998</ele>
        <time>2022-10-10T08:34:27.000Z</time>
      </trkpt>
      <trkpt lat="42.178672" lon="-73.945049">
        <ele>52.009994</ele>
        <time>2022-10-10T08:34:29.000Z</time>
      </trkpt>
      <trkpt lat="42.178421" lon="-73.944213">
        <ele>47.319996</ele>
        <time>2022-10-10T08:34:36.000Z</time>
      </trkpt>
      <trkpt lat="42.178401" lon="-73.944094">
        <ele>47.039995</ele>
        <time>2022-10-10T08:34:37.000Z</time>
      </trkpt>
      <trkpt lat="42.178293" lon="-73.943451">
        <ele>42.559994</ele>
        <time>2022-10-10T08:34:42.000Z</time>
      </trkpt>
      <trkpt lat="42.178329" lon="-73.943062">
        <ele>41.119992</ele>
        <time>2022-10-10T08:34:45.000Z</time>
      </trkpt>
      <trkpt lat="42.178397" lon="-73.942742">
        <ele>40.519999</ele>
        <time>2022-10-10T08:34:48.000Z</time>
      </trkpt>
      <trkpt lat="42.178744" lon="-73.942159">
        <ele>35.26</ele>
        <time>2022-10-10T08:34:54.000Z</time>
      </trkpt>
      <trkpt lat="42.178997" lon="-73.941744">
        <ele>31.220002</ele>
        <time>2022-10-10T08:34:58.000Z</time>
      </trkpt>
      <trkpt lat="42.1794860022" lon="-73.9410330057">
        <ele>27.230008</ele>
        <time>2022-10-10T08:35:06.000Z</time>
      </trkpt>
      <trkpt lat="42.179982" lon="-73.94032">
        <ele>27.809998</ele>
        <time>2022-10-10T08:35:14.000Z</time>
      </trkpt>
      <trkpt lat="42.180188" lon="-73.940221">
        <ele>28.059991</ele>
        <time>2022-10-10T08:35:16.000Z</time>
      </trkpt>
      <trkpt lat="42.180513" lon="-73.940308">
        <ele>28.049997</ele>
        <time>2022-10-10T08:35:20.000Z</time>
      </trkpt>
      <trkpt lat="42.180649" lon="-73.940312">
        <ele>28.540007</ele>
        <time>2022-10-10T08:35:22.000Z</time>
      </trkpt>
      <trkpt lat="42.180707" lon="-73.940287">
        <ele>28.539996</ele>
        <time>2022-10-10T08:35:23.000Z</time>
      </trkpt>
      <trkpt lat="42.180759" lon="-73.940142">
        <ele>28.820004</ele>
        <time>2022-10-10T08:35:24.000Z</time>
      </trkpt>
      <trkpt lat="42.180776" lon="-73.940006">
        <ele>28.860003</ele>
        <time>2022-10-10T08:35:25.000Z</time>
      </trkpt>
      <trkpt lat="42.180763" lon="-73.939902">
        <ele>28.949992</ele>
        <time>2022-10-10T08:35:26.000Z</time>
      </trkpt>
      <trkpt lat="42.180715" lon="-73.939781">
        <ele>28.950002</ele>
        <time>2022-10-10T08:35:27.000Z</time>
      </trkpt>
      <trkpt lat="42.180325" lon="-73.939379">
        <ele>29.689996</ele>
        <time>2022-10-10T08:35:32.000Z</time>
      </trkpt>
      <trkpt lat="42.179713" lon="-73.938572">
        <ele>33.179991</ele>
        <time>2022-10-10T08:35:42.000Z</time>
      </trkpt>
      <trkpt lat="42.180065" lon="-73.939047">
        <ele>31.549993</ele>
        <time>2022-10-10T08:35:48.000Z</time>
      </trkpt>
      <trkpt lat="42.180326" lon="-73.939382">
        <ele>29.689997</ele>
        <time>2022-10-10T08:35:52.000Z</time>
      </trkpt>
      <trkpt lat="42.180718" lon="-73.939794">
        <ele>28.950008</ele>
        <time>2022-10-10T08:35:58.000Z</time>
      </trkpt>
      <trkpt lat="42.180767" lon="-73.939912">
        <ele>28.859997</ele>
        <time>2022-10-10T08:35:59.000Z</time>
      </trkpt>
      <trkpt lat="42.180779" lon="-73.939994">
        <ele>28.860005</ele>
        <time>2022-10-10T08:36:00.000Z</time>
      </trkpt>
      <trkpt lat="42.180759" lon="-73.940137">
        <ele>28.819992</ele>
        <time>2022-10-10T08:36:01.000Z</time>
      </trkpt>
      <trkpt lat="42.180696" lon="-73.940278">
        <ele>28.539997</ele>
        <time>2022-10-10T08:36:02.000Z</time>
      </trkpt>
      <trkpt lat="42.180634" lon="-73.940329">
        <ele>28.540004</ele>
        <time>2022-10-10T08:36:03.000Z</time>
      </trkpt>
      <trkpt lat="42.180189" lon="-73.940237">
        <ele>28.06</ele>
        <time>2022-10-10T08:36:08.000Z</time>
      </trkpt>
      <trkpt lat="42.179977" lon="-73.940322">
        <ele>27.81</ele>
        <time>2022-10-10T08:36:10.000Z</time>
      </trkpt>
      <trkpt lat="42.1794910023" lon="-73.9410260055">
        <ele>27.230003</ele>
        <time>2022-10-10T08:36:18.000Z</time>
      </trkpt>
      <trkpt lat="42.17899" lon="-73.941757">
        <ele>31.220005</ele>
        <time>2022-10-10T08:36:26.000Z</time>
      </trkpt>
      <trkpt lat="42.178746" lon="-73.942151">
        <ele>35.260002</ele>
        <time>2022-10-10T08:36:30.000Z</time>
      </trkpt>
      <trkpt lat="42.178392" lon="-73.942755">
        <ele>40.520003</ele>
        <time>2022-10-10T08:36:36.000Z</time>
      </trkpt>
      <trkpt lat="42.178313" lon="-73.943052">
        <ele>41.119992</ele>
        <time>2022-10-10T08:36:39.000Z</time>
      </trkpt>
      <trkpt lat="42.178305" lon="-73.943461">
        <ele>42.559997</ele>
        <time>2022-10-10T08:36:42.000Z</time>
      </trkpt>
      <trkpt lat="42.178399" lon="-73.944088">
        <ele>46.999994</ele>
        <time>2022-10-10T08:36:47.000Z</time>
      </trkpt>
      <trkpt lat="42.178422" lon="-73.944224">
        <ele>47.320003</ele>
        <time>2022-10-10T08:36:48.000Z</time>
      </trkpt>
      <trkpt lat="42.178668" lon="-73.945043">
        <ele>52.01</ele>
        <time>2022-10-10T08:36:55.000Z</time>
      </trkpt>
      <trkpt lat="42.178689" lon="-73.945256">
        <ele>53.720009</ele>
        <time>2022-10-10T08:36:57.000Z</time>
      </trkpt>
      <trkpt lat="42.178667" lon="-73.945467">
        <ele>56.070005</ele>
        <time>2022-10-10T08:36:59.000Z</time>
      </trkpt>
      <trkpt lat="42.178536" lon="-73.945654">
        <ele>57.829996</ele>
        <time>2022-10-10T08:37:01.000Z</time>
      </trkpt>
      <trkpt lat="42.1780510006" lon="-73.9460330029">
        <ele>58.440002</ele>
        <time>2022-10-10T08:37:07.000Z</time>
      </trkpt>
      <trkpt lat="42.177546" lon="-73.946408">
        <ele>57.630007</ele>
        <time>2022-10-10T08:37:13.000Z</time>
      </trkpt>
      <trkpt lat="42.177298" lon="-73.946639">
        <ele>58.249997</ele>
        <time>2022-10-10T08:37:16.000Z</time>
      </trkpt>
      <trkpt lat="42.177152" lon="-73.946813">
        <ele>59.329998</ele>
        <time>2022-10-10T08:37:18.000Z</time>
      </trkpt>
      <trkpt lat="42.177014" lon="-73.947032">
        <ele>61.910008</ele>
        <time>2022-10-10T08:37:20.000Z</time>
      </trkpt>
      <trkpt lat="42.176917" lon="-73.947249">
        <ele>64.370009</ele>
        <time>2022-10-10T08:37:22.000Z</time>
      </trkpt>
      <trkpt lat="42.176848" lon="-73.947431">
        <ele>68.079991</ele>
        <time>2022-10-10T08:37:24.000Z</time>
      </trkpt>
      <trkpt lat="42.176718" lon="-73.948248">
        <ele>71.81</ele>
        <time>2022-10-10T08:37:31.000Z</time>
      </trkpt>
      <trkpt lat="42.176466" lon="-73.948744">
        <ele>69.139999</ele>
        <time>2022-10-10T08:37:36.000Z</time>
      </trkpt>
      <trkpt lat="42.175893" lon="-73.949503">
        <ele>64.980003</ele>
        <time>2022-10-10T08:37:45.000Z</time>
      </trkpt>
      <trkpt lat="42.175619" lon="-73.949714">
        <ele>64.95</ele>
        <time>2022-10-10T08:37:49.000Z</time>
      </trkpt>
      <trkpt lat="42.175202" lon="-73.949963">
        <ele>65.670006</ele>
        <time>2022-10-10T08:37:54.000Z</time>
      </trkpt>
      <trkpt lat="42.1746460001" lon="-73.9501960022">
        <ele>67.469999</ele>
        <time>2022-10-10T08:38:00.000Z</time>
      </trkpt>
      <trkpt lat="42.174093" lon="-73.950433">
        <ele>70.630001</ele>
        <time>2022-10-10T08:38:06.000Z</time>
      </trkpt>
      <trkpt lat="42.173769" lon="-73.950667">
        <ele>72.000001</ele>
        <time>2022-10-10T08:38:10.000Z</time>
      </trkpt>
      <trkpt lat="42.173302" lon="-73.950837">
        <ele>73.06</ele>
        <time>2022-10-10T08:38:15.000Z</time>
      </trkpt>
      <trkpt lat="42.173125" lon="-73.950974">
        <ele>72.190009</ele>
        <time>2022-10-10T08:38:17.000Z</time>
      </trkpt>
      <trkpt lat="42.172863" lon="-73.951252">
        <ele>69.130005</ele>
        <time>2022-10-10T08:38:21.000Z</time>
      </trkpt>
      <trkpt lat="42.172611" lon="-73.951603">
        <ele>67.680003</ele>
        <time>2022-10-10T08:38:25.000Z</time>
      </trkpt>
      <trkpt lat="42.17251" lon="-73.951873">
        <ele>65.030001</ele>
        <time>2022-10-10T08:38:28.000Z</time>
      </trkpt>
      <trkpt lat="42.1722940021" lon="-73.9525740025">
        <ele>63.860005</ele>
        <time>2022-10-10T08:38:34.000Z</time>
      </trkpt>
      <trkpt lat="42.172082" lon="-73.953254">
        <ele>65.780003</ele>
        <time>2022-10-10T08:38:40.000Z</time>
      </trkpt>
      <trkpt lat="42.171978" lon="-73.953484">
        <ele>65.780003</ele>
        <time>2022-10-10T08:38:42.000Z</time>
      </trkpt>
      <trkpt lat="42.171711" lon="-73.953933">
        <ele>64.469999</ele>
        <time>2022-10-10T08:38:47.000Z</time>
      </trkpt>
      <trkpt lat="42.171589" lon="-73.954092">
        <ele>64.249996</ele>
        <time>2022-10-10T08:38:49.000Z</time>
      </trkpt>
      <trkpt lat="42.171324" lon="-73.954378">
        <ele>63.860008</ele>
        <time>2022-10-10T08:38:53.000Z</time>
      </trkpt>
      <trkpt lat="42.170883" lon="-73.954758">
        <ele>63.589999</ele>
        <time>2022-10-10T08:38:59.000Z</time>
      </trkpt>
      <trkpt lat="42.170541" lon="-73.955006">
        <ele>63.730003</ele>
        <time>2022-10-10T08:39:03.000Z</time>
      </trkpt>
      <trkpt lat="42.169942" lon="-73.955369">
        <ele>63.069992</ele>
        <time>2022-10-10T08:39:10.000Z</time>
      </trkpt>
      <trkpt lat="42.169314" lon="-73.955823">
        <ele>64.270004</ele>
        <time>2022-10-10T08:39:18.000Z</time>
      </trkpt>
      <trkpt lat="42.168944" lon="-73.956188">
        <ele>68.860002</ele>
        <time>2022-10-10T08:39:23.000Z</time>
      </trkpt>
      <trkpt lat="42.168808" lon="-73.956354">
        <ele>71.870006</ele>
        <time>2022-10-10T08:39:25.000Z</time>
      </trkpt>
      <trkpt lat="42.168714" lon="-73.956476">
        <ele>73.390001</ele>
        <time>2022-10-10T08:39:26.000Z</time>
      </trkpt>
      <trkpt lat="42.168528" lon="-73.956926">
        <ele>75.090004</ele>
        <time>2022-10-10T08:39:30.000Z</time>
      </trkpt>
      <trkpt lat="42.168387" lon="-73.957161">
        <ele>75.169996</ele>
        <time>2022-10-10T08:39:32.000Z</time>
      </trkpt>
      <trkpt lat="42.168119" lon="-73.957475">
        <ele>74.849995</ele>
        <time>2022-10-10T08:39:36.000Z</time>
      </trkpt>
      <trkpt lat="42.167829" lon="-73.957692">
        <ele>75.099997</ele>
        <time>2022-10-10T08:39:40.000Z</time>
      </trkpt>
      <trkpt lat="42.167509" lon="-73.957915">
        <ele>76.240008</ele>
        <time>2022-10-10T08:39:44.000Z</time>
      </trkpt>
      <trkpt lat="42.166925" lon="-73.958218">
        <ele>77.610003</ele>
        <time>2022-10-10T08:39:51.000Z</time>
      </trkpt>
      <trkpt lat="42.166491" lon="-73.958633">
        <ele>77.829999</ele>
        <time>2022-10-10T08:39:57.000Z</time>
      </trkpt>
      <trkpt lat="42.166258" lon="-73.958982">
        <ele>77.079994</ele>
        <time>2022-10-10T08:40:01.000Z</time>
      </trkpt>
      <trkpt lat="42.166173" lon="-73.959132">
        <ele>76.479995</ele>
        <time>2022-10-10T08:40:03.000Z</time>
      </trkpt>
      <trkpt lat="42.165861" lon="-73.959932">
        <ele>75.869992</ele>
        <time>2022-10-10T08:40:10.000Z</time>
      </trkpt>
      <trkpt lat="42.165746" lon="-73.960369">
        <ele>76.329996</ele>
        <time>2022-10-10T08:40:14.000Z</time>
      </trkpt>
      <trkpt lat="42.165554" lon="-73.961364">
        <ele>75.939992</ele>
        <time>2022-10-10T08:40:22.000Z</time>
      </trkpt>
      <trkpt lat="42.165433" lon="-73.961766">
        <ele>75.979992</ele>
        <time>2022-10-10T08:40:26.000Z</time>
      </trkpt>
      <trkpt lat="42.16529" lon="-73.962074">
        <ele>76.389992</ele>
        <time>2022-10-10T08:40:29.000Z</time>
      </trkpt>
      <trkpt lat="42.164891" lon="-73.962618">
        <ele>77.629996</ele>
        <time>2022-10-10T08:40:35.000Z</time>
      </trkpt>
      <trkpt lat="42.164699" lon="-73.962985">
        <ele>80.539994</ele>
        <time>2022-10-10T08:40:39.000Z</time>
      </trkpt>
      <trkpt lat="42.164531" lon="-73.963362">
        <ele>81.349996</ele>
        <time>2022-10-10T08:40:43.000Z</time>
      </trkpt>
      <trkpt lat="42.164001" lon="-73.964266">
        <ele>81.079996</ele>
        <time>2022-10-10T08:40:52.000Z</time>
      </trkpt>
      <trkpt lat="42.163966" lon="-73.964366">
        <ele>81.310004</ele>
        <time>2022-10-10T08:40:53.000Z</time>
      </trkpt>
      <trkpt lat="42.163935" lon="-73.964584">
        <ele>81.980001</ele>
        <time>2022-10-10T08:40:55.000Z</time>
      </trkpt>
      <trkpt lat="42.163903" lon="-73.964996">
        <ele>82.180007</ele>
        <time>2022-10-10T08:40:58.000Z</time>
      </trkpt>
      <trkpt lat="42.163843" lon="-73.965229">
        <ele>80.839999</ele>
        <time>2022-10-10T08:41:00.000Z</time>
      </trkpt>
      <trkpt lat="42.163553" lon="-73.965754">
        <ele>77.189993</ele>
        <time>2022-10-10T08:41:05.000Z</time>
      </trkpt>
      <trkpt lat="42.1632860011" lon="-73.966245002">
        <ele>76.340002</ele>
        <time>2022-10-10T08:41:10.000Z</time>
      </trkpt>
      <trkpt lat="42.163006" lon="-73.966735">
        <ele>72.960006</ele>
        <time>2022-10-10T08:41:15.000Z</time>
      </trkpt>
      <trkpt lat="42.162882" lon="-73.966831">
        <ele>72.35</ele>
        <time>2022-10-10T08:41:17.000Z</time>
      </trkpt>
      <trkpt lat="42.162719" lon="-73.966913">
        <ele>72.019998</ele>
        <time>2022-10-10T08:41:19.000Z</time>
      </trkpt>
      <trkpt lat="42.162572" lon="-73.967048">
        <ele>71.300003</ele>
        <time>2022-10-10T08:41:21.000Z</time>
      </trkpt>
      <trkpt lat="42.162285" lon="-73.967503">
        <ele>68.750008</ele>
        <time>2022-10-10T08:41:26.000Z</time>
      </trkpt>
      <trkpt lat="42.162119" lon="-73.967674">
        <ele>68.360009</ele>
        <time>2022-10-10T08:41:28.000Z</time>
      </trkpt>
      <trkpt lat="42.162322" lon="-73.968083">
        <ele>67.309999</ele>
        <time>2022-10-10T08:41:32.000Z</time>
      </trkpt>
      <trkpt lat="42.162548" lon="-73.968617">
        <ele>67.140009</ele>
        <time>2022-10-10T08:41:37.000Z</time>
      </trkpt>
      <trkpt lat="42.162581" lon="-73.968748">
        <ele>67.540005</ele>
        <time>2022-10-10T08:41:38.000Z</time>
      </trkpt>
      <trkpt lat="42.162615" lon="-73.969025">
        <ele>69.060007</ele>
        <time>2022-10-10T08:41:40.000Z</time>
      </trkpt>
      <trkpt lat="42.162615" lon="-73.969242">
        <ele>69.889993</ele>
        <time>2022-10-10T08:41:42.000Z</time>
      </trkpt>
      <trkpt lat="42.162568" lon="-73.969509">
        <ele>72.209997</ele>
        <time>2022-10-10T08:41:44.000Z</time>
      </trkpt>
      <trkpt lat="42.162314" lon="-73.969944">
        <ele>77.560002</ele>
        <time>2022-10-10T08:41:49.000Z</time>
      </trkpt>
      <trkpt lat="42.162294" lon="-73.970046">
        <ele>78.320008</ele>
        <time>2022-10-10T08:41:50.000Z</time>
      </trkpt>
      <trkpt lat="42.162244" lon="-73.970489">
        <ele>80.800007</ele>
        <time>2022-10-10T08:41:54.000Z</time>
      </trkpt>
      <trkpt lat="42.162193" lon="-73.970723">
        <ele>81.41</ele>
        <time>2022-10-10T08:41:56.000Z</time>
      </trkpt>
      <trkpt lat="42.162054" lon="-73.971037">
        <ele>82.48</ele>
        <time>2022-10-10T08:41:59.000Z</time>
      </trkpt>
      <trkpt lat="42.16178" lon="-73.971382">
        <ele>85.559996</ele>
        <time>2022-10-10T08:42:03.000Z</time>
      </trkpt>
      <trkpt lat="42.161711" lon="-73.971489">
        <ele>85.559992</ele>
        <time>2022-10-10T08:42:04.000Z</time>
      </trkpt>
      <trkpt lat="42.161678" lon="-73.971688">
        <ele>86.100002</ele>
        <time>2022-10-10T08:42:06.000Z</time>
      </trkpt>
      <trkpt lat="42.161667" lon="-73.971933">
        <ele>85.929992</ele>
        <time>2022-10-10T08:42:08.000Z</time>
      </trkpt>
      <trkpt lat="42.161726" lon="-73.972165">
        <ele>85.219997</ele>
        <time>2022-10-10T08:42:10.000Z</time>
      </trkpt>
      <trkpt lat="42.161846" lon="-73.972336">
        <ele>84.939998</ele>
        <time>2022-10-10T08:42:12.000Z</time>
      </trkpt>
      <trkpt lat="42.161977" lon="-73.972481">
        <ele>84.930001</ele>
        <time>2022-10-10T08:42:14.000Z</time>
      </trkpt>
      <trkpt lat="42.161983" lon="-73.972603">
        <ele>84.929994</ele>
        <time>2022-10-10T08:42:15.000Z</time>
      </trkpt>
      <trkpt lat="42.162043" lon="-73.972972">
        <ele>84.230001</ele>
        <time>2022-10-10T08:42:18.000Z</time>
      </trkpt>
      <trkpt lat="42.162044" lon="-73.973184">
        <ele>84.070006</ele>
        <time>2022-10-10T08:42:20.000Z</time>
      </trkpt>
      <trkpt lat="42.161984" lon="-73.97332">
        <ele>84.289991</ele>
        <time>2022-10-10T08:42:21.000Z</time>
      </trkpt>
      <trkpt lat="42.161731" lon="-73.973715">
        <ele>87.570005</ele>
        <time>2022-10-10T08:42:25.000Z</time>
      </trkpt>
      <trkpt lat="42.161684" lon="-73.97403">
        <ele>88.540002</ele>
        <time>2022-10-10T08:42:28.000Z</time>
      </trkpt>
      <trkpt lat="42.161656" lon="-73.97465">
        <ele>83.530002</ele>
        <time>2022-10-10T08:42:33.000Z</time>
      </trkpt>
      <trkpt lat="42.161754" lon="-73.975289">
        <ele>80.629991</ele>
        <time>2022-10-10T08:42:38.000Z</time>
      </trkpt>
      <trkpt lat="42.161725" lon="-73.975702">
        <ele>81.179997</ele>
        <time>2022-10-10T08:42:41.000Z</time>
      </trkpt>
      <trkpt lat="42.161655" lon="-73.975918">
        <ele>81.770003</ele>
        <time>2022-10-10T08:42:43.000Z</time>
      </trkpt>
      <trkpt lat="42.161416" lon="-73.976456">
        <ele>87.559999</ele>
        <time>2022-10-10T08:42:48.000Z</time>
      </trkpt>
      <trkpt lat="42.161396" lon="-73.976585">
        <ele>87.559995</ele>
        <time>2022-10-10T08:42:49.000Z</time>
      </trkpt>
      <trkpt lat="42.161419" lon="-73.976776">
        <ele>89.350004</ele>
        <time>2022-10-10T08:42:51.000Z</time>
      </trkpt>
      <trkpt lat="42.161449" lon="-73.976891">
        <ele>90.349996</ele>
        <time>2022-10-10T08:42:52.000Z</time>
      </trkpt>
      <trkpt lat="42.161159" lon="-73.977201">
        <ele>92.269999</ele>
        <time>2022-10-10T08:42:56.000Z</time>
      </trkpt>
      <trkpt lat="42.160905" lon="-73.977359">
        <ele>93.560001</ele>
        <time>2022-10-10T08:42:59.000Z</time>
      </trkpt>
      <trkpt lat="42.160462" lon="-73.977527">
        <ele>93.779998</ele>
        <time>2022-10-10T08:43:04.000Z</time>
      </trkpt>
      <trkpt lat="42.15978" lon="-73.977892">
        <ele>93.790002</ele>
        <time>2022-10-10T08:43:12.000Z</time>
      </trkpt>
      <trkpt lat="42.159498" lon="-73.97802">
        <ele>94.430006</ele>
        <time>2022-10-10T08:43:15.000Z</time>
      </trkpt>
      <trkpt lat="42.158892" lon="-73.9781860015">
        <ele>92.469994</ele>
        <time>2022-10-10T08:43:22.000Z</time>
      </trkpt>
      <trkpt lat="42.158285" lon="-73.978345">
        <ele>90.210008</ele>
        <time>2022-10-10T08:43:29.000Z</time>
      </trkpt>
      <trkpt lat="42.157559" lon="-73.97847">
        <ele>86.260004</ele>
        <time>2022-10-10T08:43:37.000Z</time>
      </trkpt>
      <trkpt lat="42.157476" lon="-73.978501">
        <ele>86.249997</ele>
        <time>2022-10-10T08:43:38.000Z</time>
      </trkpt>
      <trkpt lat="42.157342" lon="-73.978643">
        <ele>86.110003</ele>
        <time>2022-10-10T08:43:40.000Z</time>
      </trkpt>
      <trkpt lat="42.157212" lon="-73.978831">
        <ele>86.469996</ele>
        <time>2022-10-10T08:43:42.000Z</time>
      </trkpt>
      <trkpt lat="42.156905" lon="-73.979537">
        <ele>89.690003</ele>
        <time>2022-10-10T08:43:49.000Z</time>
      </trkpt>
      <trkpt lat="42.156789" lon="-73.979706">
        <ele>92.129997</ele>
        <time>2022-10-10T08:43:51.000Z</time>
      </trkpt>
      <trkpt lat="42.156597" lon="-73.979891">
        <ele>93.439997</ele>
        <time>2022-10-10T08:43:54.000Z</time>
      </trkpt>
      <trkpt lat="42.1561700005" lon="-73.9802470024">
        <ele>93.339999</ele>
        <time>2022-10-10T08:44:00.000Z</time>
      </trkpt>
      <trkpt lat="42.155747" lon="-73.980589">
        <ele>92.230003</ele>
        <time>2022-10-10T08:44:05.000Z</time>
      </trkpt>
      <trkpt lat="42.155211" lon="-73.981069">
        <ele>91.790002</ele>
        <time>2022-10-10T08:44:12.000Z</time>
      </trkpt>
      <trkpt lat="42.1548420011" lon="-73.9815510027">
        <ele>93.370004</ele>
        <time>2022-10-10T08:44:18.000Z</time>
      </trkpt>
      <trkpt lat="42.154499" lon="-73.982042">
        <ele>97.820003</ele>
        <time>2022-10-10T08:44:24.000Z</time>
      </trkpt>
      <trkpt lat="42.154232" lon="-73.982314">
        <ele>100.890002</ele>
        <time>2022-10-10T08:44:28.000Z</time>
      </trkpt>
      <trkpt lat="42.154006" lon="-73.982508">
        <ele>102.820003</ele>
        <time>2022-10-10T08:44:31.000Z</time>
      </trkpt>
      <trkpt lat="42.153426" lon="-73.982895">
        <ele>104.149997</ele>
        <time>2022-10-10T08:44:38.000Z</time>
      </trkpt>
      <trkpt lat="42.1528180013" lon="-73.9834420051">
        <ele>104.040006</ele>
        <time>2022-10-10T08:44:46.000Z</time>
      </trkpt>
      <trkpt lat="42.152209" lon="-73.983973">
        <ele>104.639997</ele>
        <time>2022-10-10T08:44:54.000Z</time>
      </trkpt>
      <trkpt lat="42.15206" lon="-73.984114">
        <ele>104.920008</ele>
        <time>2022-10-10T08:44:56.000Z</time>
      </trkpt>
      <trkpt lat="42.151731" lon="-73.984593">
        <ele>106.879994</ele>
        <time>2022-10-10T08:45:01.000Z</time>
      </trkpt>
      <trkpt lat="42.151639" lon="-73.984674">
        <ele>107.249998</ele>
        <time>2022-10-10T08:45:02.000Z</time>
      </trkpt>
      <trkpt lat="42.151222" lon="-73.984867">
        <ele>107.389993</ele>
        <time>2022-10-10T08:45:07.000Z</time>
      </trkpt>
      <trkpt lat="42.151098" lon="-73.984963">
        <ele>107.319995</ele>
        <time>2022-10-10T08:45:09.000Z</time>
      </trkpt>
      <trkpt lat="42.150748" lon="-73.985398">
        <ele>106.659995</ele>
        <time>2022-10-10T08:45:14.000Z</time>
      </trkpt>
      <trkpt lat="42.150298" lon="-73.985815">
        <ele>107.030009</ele>
        <time>2022-10-10T08:45:20.000Z</time>
      </trkpt>
      <trkpt lat="42.150116" lon="-73.986038">
        <ele>108.060008</ele>
        <time>2022-10-10T08:45:23.000Z</time>
      </trkpt>
      <trkpt lat="42.149952" lon="-73.986389">
        <ele>108.969993</ele>
        <time>2022-10-10T08:45:26.000Z</time>
      </trkpt>
      <trkpt lat="42.149768" lon="-73.98684">
        <ele>110.090007</ele>
        <time>2022-10-10T08:45:30.000Z</time>
      </trkpt>
      <trkpt lat="42.149687" lon="-73.986929">
        <ele>110.569996</ele>
        <time>2022-10-10T08:45:31.000Z</time>
      </trkpt>
      <trkpt lat="42.149567" lon="-73.987026">
        <ele>110.869997</ele>
        <time>2022-10-10T08:45:33.000Z</time>
      </trkpt>
      <trkpt lat="42.149359" lon="-73.987148">
        <ele>111.109994</ele>
        <time>2022-10-10T08:45:36.000Z</time>
      </trkpt>
      <trkpt lat="42.148833" lon="-73.987375">
        <ele>111.059998</ele>
        <time>2022-10-10T08:45:42.000Z</time>
      </trkpt>
      <trkpt lat="42.1482263341" lon="-73.9876716725">
        <ele>111.62</ele>
        <time>2022-10-10T08:45:49.000Z</time>
      </trkpt>
      <trkpt lat="42.1476046674" lon="-73.9879693391">
        <ele>111.909998</ele>
        <time>2022-10-10T08:45:56.000Z</time>
      </trkpt>
      <trkpt lat="42.146995" lon="-73.988262">
        <ele>111.070004</ele>
        <time>2022-10-10T08:46:03.000Z</time>
      </trkpt>
      <trkpt lat="42.146369" lon="-73.988417">
        <ele>110.400005</ele>
        <time>2022-10-10T08:46:10.000Z</time>
      </trkpt>
      <trkpt lat="42.145853" lon="-73.988597">
        <ele>109.589996</ele>
        <time>2022-10-10T08:46:16.000Z</time>
      </trkpt>
      <trkpt lat="42.145635" lon="-73.988484">
        <ele>109.150008</ele>
        <time>2022-10-10T08:46:19.000Z</time>
      </trkpt>
      <trkpt lat="42.145306" lon="-73.988282">
        <ele>106.539995</ele>
        <time>2022-10-10T08:46:23.000Z</time>
      </trkpt>
      <trkpt lat="42.145177" lon="-73.988273">
        <ele>106.100002</ele>
        <time>2022-10-10T08:46:24.000Z</time>
      </trkpt>
      <trkpt lat="42.1447240003" lon="-73.9884770014">
        <ele>105.699994</ele>
        <time>2022-10-10T08:46:29.000Z</time>
      </trkpt>
      <trkpt lat="42.144279" lon="-73.98867">
        <ele>106.100003</ele>
        <time>2022-10-10T08:46:34.000Z</time>
      </trkpt>
      <trkpt lat="42.144008" lon="-73.988709">
        <ele>106.069992</ele>
        <time>2022-10-10T08:46:37.000Z</time>
      </trkpt>
      <trkpt lat="42.143786" lon="-73.988754">
        <ele>105.709996</ele>
        <time>2022-10-10T08:46:39.000Z</time>
      </trkpt>
      <trkpt lat="42.143415" lon="-73.988905">
        <ele>105.719998</ele>
        <time>2022-10-10T08:46:43.000Z</time>
      </trkpt>
      <trkpt lat="42.143278" lon="-73.988988">
        <ele>105.780004</ele>
        <time>2022-10-10T08:46:45.000Z</time>
      </trkpt>
      <trkpt lat="42.142507" lon="-73.989161">
        <ele>105.850004</ele>
        <time>2022-10-10T08:46:54.000Z</time>
      </trkpt>
      <trkpt lat="42.142247" lon="-73.989293">
        <ele>105.419993</ele>
        <time>2022-10-10T08:46:57.000Z</time>
      </trkpt>
      <trkpt lat="42.141863" lon="-73.989536">
        <ele>104.420003</ele>
        <time>2022-10-10T08:47:02.000Z</time>
      </trkpt>
      <trkpt lat="42.141628" lon="-73.989659">
        <ele>104.129997</ele>
        <time>2022-10-10T08:47:05.000Z</time>
      </trkpt>
      <trkpt lat="42.141489005" lon="-73.9885729975">
        <ele>100.030008</ele>
        <time>2022-10-10T08:47:14.000Z</time>
      </trkpt>
      <trkpt lat="42.141327" lon="-73.98751">
        <ele>98.570003</ele>
        <time>2022-10-10T08:47:23.000Z</time>
      </trkpt>
      <trkpt lat="42.141106" lon="-73.986485">
        <ele>98.490005</ele>
        <time>2022-10-10T08:47:32.000Z</time>
      </trkpt>
      <trkpt lat="42.14099" lon="-73.985899">
        <ele>99.319992</ele>
        <time>2022-10-10T08:47:37.000Z</time>
      </trkpt>
      <trkpt lat="42.140938" lon="-73.985808">
        <ele>99.350004</ele>
        <time>2022-10-10T08:47:38.000Z</time>
      </trkpt>
      <trkpt lat="42.140817" lon="-73.985705">
        <ele>99.250009</ele>
        <time>2022-10-10T08:47:40.000Z</time>
      </trkpt>
      <trkpt lat="42.140676" lon="-73.985681">
        <ele>99.160002</ele>
        <time>2022-10-10T08:47:42.000Z</time>
      </trkpt>
      <trkpt lat="42.140371" lon="-73.98572">
        <ele>98.620002</ele>
        <time>2022-10-10T08:47:45.000Z</time>
      </trkpt>
      <trkpt lat="42.140237" lon="-73.985715">
        <ele>97.880007</ele>
        <time>2022-10-10T08:47:46.000Z</time>
      </trkpt>
      <trkpt lat="42.139788" lon="-73.985625">
        <ele>97.399993</ele>
        <time>2022-10-10T08:47:51.000Z</time>
      </trkpt>
      <trkpt lat="42.139336" lon="-73.985346">
        <ele>97.880006</ele>
        <time>2022-10-10T08:47:57.000Z</time>
      </trkpt>
      <trkpt lat="42.139216" lon="-73.985199">
        <ele>98.099998</ele>
        <time>2022-10-10T08:47:59.000Z</time>
      </trkpt>
      <trkpt lat="42.138976" lon="-73.98474">
        <ele>98.449993</ele>
        <time>2022-10-10T08:48:04.000Z</time>
      </trkpt>
      <trkpt lat="42.138869" lon="-73.984595">
        <ele>98.269997</ele>
        <time>2022-10-10T08:48:06.000Z</time>
      </trkpt>
      <trkpt lat="42.138596" lon="-73.98429">
        <ele>97.529994</ele>
        <time>2022-10-10T08:48:10.000Z</time>
      </trkpt>
      <trkpt lat="42.138523" lon="-73.984155">
        <ele>97.700005</ele>
        <time>2022-10-10T08:48:11.000Z</time>
      </trkpt>
      <trkpt lat="42.138221" lon="-73.983344">
        <ele>101.920006</ele>
        <time>2022-10-10T08:48:18.000Z</time>
      </trkpt>
      <trkpt lat="42.138061" lon="-73.982777">
        <ele>102.689997</ele>
        <time>2022-10-10T08:48:23.000Z</time>
      </trkpt>
      <trkpt lat="42.138009" lon="-73.982637">
        <ele>101.649994</ele>
        <time>2022-10-10T08:48:24.000Z</time>
      </trkpt>
      <trkpt lat="42.137665" lon="-73.982232">
        <ele>98.699995</ele>
        <time>2022-10-10T08:48:29.000Z</time>
      </trkpt>
      <trkpt lat="42.137344" lon="-73.981699">
        <ele>96.189993</ele>
        <time>2022-10-10T08:48:35.000Z</time>
      </trkpt>
      <trkpt lat="42.136957" lon="-73.981197">
        <ele>94.739996</ele>
        <time>2022-10-10T08:48:41.000Z</time>
      </trkpt>
      <trkpt lat="42.136777" lon="-73.980895">
        <ele>94.210005</ele>
        <time>2022-10-10T08:48:44.000Z</time>
      </trkpt>
      <trkpt lat="42.136618" lon="-73.980563">
        <ele>93.520005</ele>
        <time>2022-10-10T08:48:47.000Z</time>
      </trkpt>
      <trkpt lat="42.136565" lon="-73.980441">
        <ele>93.520004</ele>
        <time>2022-10-10T08:48:48.000Z</time>
      </trkpt>
      <trkpt lat="42.136506" lon="-73.979724">
        <ele>91.640001</ele>
        <time>2022-10-10T08:48:54.000Z</time>
      </trkpt>
      <trkpt lat="42.136524" lon="-73.979261">
        <ele>90.719994</ele>
        <time>2022-10-10T08:48:58.000Z</time>
      </trkpt>
      <trkpt lat="42.136662" lon="-73.978412">
        <ele>91.960001</ele>
        <time>2022-10-10T08:49:05.000Z</time>
      </trkpt>
      <trkpt lat="42.13663" lon="-73.977486">
        <ele>91.400001</ele>
        <time>2022-10-10T08:49:13.000Z</time>
      </trkpt>
      <trkpt lat="42.136547" lon="-73.976355">
        <ele>89.940009</ele>
        <time>2022-10-10T08:49:22.000Z</time>
      </trkpt>
      <trkpt lat="42.136505" lon="-73.975296">
        <ele>86.580009</ele>
        <time>2022-10-10T08:49:31.000Z</time>
      </trkpt>
      <trkpt lat="42.136357" lon="-73.974311">
        <ele>86.48</ele>
        <time>2022-10-10T08:49:39.000Z</time>
      </trkpt>
      <trkpt lat="42.136246" lon="-73.974081">
        <ele>85.129999</ele>
        <time>2022-10-10T08:49:41.000Z</time>
      </trkpt>
      <trkpt lat="42.136183" lon="-73.973993">
        <ele>85.129993</ele>
        <time>2022-10-10T08:49:42.000Z</time>
      </trkpt>
      <trkpt lat="42.135886" lon="-73.973728">
        <ele>81.849999</ele>
        <time>2022-10-10T08:49:46.000Z</time>
      </trkpt>
      <trkpt lat="42.135549" lon="-73.973312">
        <ele>74.940001</ele>
        <time>2022-10-10T08:49:51.000Z</time>
      </trkpt>
      <trkpt lat="42.135442" lon="-73.973091">
        <ele>73.400007</ele>
        <time>2022-10-10T08:49:53.000Z</time>
      </trkpt>
      <trkpt lat="42.135421" lon="-73.972996">
        <ele>71.019993</ele>
        <time>2022-10-10T08:49:54.000Z</time>
      </trkpt>
      <trkpt lat="42.135414" lon="-73.972549">
        <ele>65.900001</ele>
        <time>2022-10-10T08:49:58.000Z</time>
      </trkpt>
      <trkpt lat="42.135366" lon="-73.972011">
        <ele>62.200007</ele>
        <time>2022-10-10T08:50:02.000Z</time>
      </trkpt>
      <trkpt lat="42.135356" lon="-73.971754">
        <ele>61.220008</ele>
        <time>2022-10-10T08:50:04.000Z</time>
      </trkpt>
      <trkpt lat="42.135417" lon="-73.971442">
        <ele>59.509998</ele>
        <time>2022-10-10T08:50:07.000Z</time>
      </trkpt>
      <trkpt lat="42.135513" lon="-73.971205">
        <ele>58.770003</ele>
        <time>2022-10-10T08:50:09.000Z</time>
      </trkpt>
      <trkpt lat="42.135598" lon="-73.971066">
        <ele>58.390003</ele>
        <time>2022-10-10T08:50:10.000Z</time>
      </trkpt>
      <trkpt lat="42.135759" lon="-73.970816">
        <ele>57.190008</ele>
        <time>2022-10-10T08:50:13.000Z</time>
      </trkpt>
      <trkpt lat="42.136351" lon="-73.970187">
        <ele>56.030003</ele>
        <time>2022-10-10T08:50:21.000Z</time>
      </trkpt>
      <trkpt lat="42.136556" lon="-73.970052">
        <ele>55.770009</ele>
        <time>2022-10-10T08:50:24.000Z</time>
      </trkpt>
      <trkpt lat="42.137053" lon="-73.969789">
        <ele>53.779999</ele>
        <time>2022-10-10T08:50:30.000Z</time>
      </trkpt>
      <trkpt lat="42.137163" lon="-73.969664">
        <ele>53.229999</ele>
        <time>2022-10-10T08:50:32.000Z</time>
      </trkpt>
      <trkpt lat="42.137294" lon="-73.969476">
        <ele>52.900006</ele>
        <time>2022-10-10T08:50:34.000Z</time>
      </trkpt>
      <trkpt lat="42.137571002" lon="-73.9687700032">
        <ele>52.619992</ele>
        <time>2022-10-10T08:50:41.000Z</time>
      </trkpt>
      <trkpt lat="42.137842" lon="-73.968084">
        <ele>52.729996</ele>
        <time>2022-10-10T08:50:47.000Z</time>
      </trkpt>
      <trkpt lat="42.137948" lon="-73.967774">
        <ele>53.069997</ele>
        <time>2022-10-10T08:50:50.000Z</time>
      </trkpt>
      <trkpt lat="42.137972" lon="-73.967594">
        <ele>53.160004</ele>
        <time>2022-10-10T08:50:52.000Z</time>
      </trkpt>
      <trkpt lat="42.137945" lon="-73.967408">
        <ele>53.099998</ele>
        <time>2022-10-10T08:50:54.000Z</time>
      </trkpt>
      <trkpt lat="42.137847" lon="-73.967248">
        <ele>52.840008</ele>
        <time>2022-10-10T08:50:56.000Z</time>
      </trkpt>
      <trkpt lat="42.137048" lon="-73.966694">
        <ele>41.440004</ele>
        <time>2022-10-10T08:51:06.000Z</time>
      </trkpt>
      <trkpt lat="42.136308501" lon="-73.9664099903">
        <ele>36.140003</ele>
        <time>2022-10-10T08:51:15.000Z</time>
      </trkpt>
      <trkpt lat="42.1355840014" lon="-73.9661379871">
        <ele>34.780006</ele>
        <time>2022-10-10T08:51:23.000Z</time>
      </trkpt>
      <trkpt lat="42.134847501" lon="-73.9658589903">
        <ele>33.680003</ele>
        <time>2022-10-10T08:51:32.000Z</time>
      </trkpt>
      <trkpt lat="42.134113" lon="-73.965574">
        <ele>34.760009</ele>
        <time>2022-10-10T08:51:40.000Z</time>
      </trkpt>
      <trkpt lat="42.134039" lon="-73.965512">
        <ele>35.630005</ele>
        <time>2022-10-10T08:51:41.000Z</time>
      </trkpt>
      <trkpt lat="42.133952" lon="-73.965435">
        <ele>36.339993</ele>
        <time>2022-10-10T08:51:42.000Z</time>
      </trkpt>
      <trkpt lat="42.133866" lon="-73.96521">
        <ele>38.189994</ele>
        <time>2022-10-10T08:51:44.000Z</time>
      </trkpt>
      <trkpt lat="42.133681" lon="-73.964509">
        <ele>44.900007</ele>
        <time>2022-10-10T08:51:50.000Z</time>
      </trkpt>
      <trkpt lat="42.133602" lon="-73.964136">
        <ele>46.349995</ele>
        <time>2022-10-10T08:51:53.000Z</time>
      </trkpt>
      <trkpt lat="42.133592" lon="-73.964068">
        <ele>46.54</ele>
        <time>2022-10-10T08:51:54.000Z</time>
      </trkpt>
      <trkpt lat="42.1335670051" lon="-73.9629829995">
        <ele>47.589993</ele>
        <time>2022-10-10T08:52:03.000Z</time>
      </trkpt>
      <trkpt lat="42.133528" lon="-73.961907">
        <ele>48.119992</ele>
        <time>2022-10-10T08:52:12.000Z</time>
      </trkpt>
      <trkpt lat="42.133463" lon="-73.961584">
        <ele>48.619996</ele>
        <time>2022-10-10T08:52:15.000Z</time>
      </trkpt>
      <trkpt lat="42.133422" lon="-73.961504">
        <ele>48.820003</ele>
        <time>2022-10-10T08:52:16.000Z</time>
      </trkpt>
      <trkpt lat="42.133349" lon="-73.961459">
        <ele>49.089993</ele>
        <time>2022-10-10T08:52:17.000Z</time>
      </trkpt>
      <trkpt lat="42.133284" lon="-73.96141">
        <ele>49.089992</ele>
        <time>2022-10-10T08:52:18.000Z</time>
      </trkpt>
      <trkpt lat="42.133159" lon="-73.961416">
        <ele>49.580002</ele>
        <time>2022-10-10T08:52:19.000Z</time>
      </trkpt>
      <trkpt lat="42.132325" lon="-73.961684">
        <ele>52.729998</ele>
        <time>2022-10-10T08:52:29.000Z</time>
      </trkpt>
      <trkpt lat="42.132047" lon="-73.961715">
        <ele>53.239997</ele>
        <time>2022-10-10T08:52:32.000Z</time>
      </trkpt>
      <trkpt lat="42.131716" lon="-73.961687">
        <ele>54.370004</ele>
        <time>2022-10-10T08:52:36.000Z</time>
      </trkpt>
      <trkpt lat="42.131436" lon="-73.961624">
        <ele>55.379994</ele>
        <time>2022-10-10T08:52:39.000Z</time>
      </trkpt>
      <trkpt lat="42.131186" lon="-73.961505">
        <ele>57.070002</ele>
        <time>2022-10-10T08:52:42.000Z</time>
      </trkpt>
      <trkpt lat="42.130581" lon="-73.961188">
        <ele>59.660004</ele>
        <time>2022-10-10T08:52:49.000Z</time>
      </trkpt>
      <trkpt lat="42.130462" lon="-73.961147">
        <ele>60.769998</ele>
        <time>2022-10-10T08:52:50.000Z</time>
      </trkpt>
      <trkpt lat="42.130171" lon="-73.961084">
        <ele>62.390002</ele>
        <time>2022-10-10T08:52:53.000Z</time>
      </trkpt>
      <trkpt lat="42.129636" lon="-73.961056">
        <ele>64.670007</ele>
        <time>2022-10-10T08:52:59.000Z</time>
      </trkpt>
      <trkpt lat="42.129041" lon="-73.960867">
        <ele>66.400008</ele>
        <time>2022-10-10T08:53:06.000Z</time>
      </trkpt>
      <trkpt lat="42.1285230003" lon="-73.9606129978">
        <ele>69.230005</ele>
        <time>2022-10-10T08:53:12.000Z</time>
      </trkpt>
      <trkpt lat="42.127984" lon="-73.960356">
        <ele>70.930003</ele>
        <time>2022-10-10T08:53:18.000Z</time>
      </trkpt>
      <trkpt lat="42.1275130001" lon="-73.9600729978">
        <ele>71.649991</ele>
        <time>2022-10-10T08:53:24.000Z</time>
      </trkpt>
      <trkpt lat="42.127015" lon="-73.959804">
        <ele>74.040006</ele>
        <time>2022-10-10T08:53:30.000Z</time>
      </trkpt>
      <trkpt lat="42.126887" lon="-73.959706">
        <ele>74.140002</ele>
        <time>2022-10-10T08:53:32.000Z</time>
      </trkpt>
      <trkpt lat="42.126597" lon="-73.959397">
        <ele>74.059992</ele>
        <time>2022-10-10T08:53:36.000Z</time>
      </trkpt>
      <trkpt lat="42.1271390002" lon="-73.9591700019">
        <ele>74.380007</ele>
        <time>2022-10-10T08:53:42.000Z</time>
      </trkpt>
      <trkpt lat="42.127682" lon="-73.958954">
        <ele>74.539993</ele>
        <time>2022-10-10T08:53:48.000Z</time>
      </trkpt>
      <trkpt lat="42.127922" lon="-73.958885">
        <ele>74.559999</ele>
        <time>2022-10-10T08:53:51.000Z</time>
      </trkpt>
      <trkpt lat="42.128595" lon="-73.958803">
        <ele>74.510006</ele>
        <time>2022-10-10T08:53:59.000Z</time>
      </trkpt>
      <trkpt lat="42.129325" lon="-73.9587470008">
        <ele>75.289997</ele>
        <time>2022-10-10T08:54:07.000Z</time>
      </trkpt>
      <trkpt lat="42.130055" lon="-73.958683">
        <ele>75.119994</ele>
        <time>2022-10-10T08:54:15.000Z</time>
      </trkpt>
      <trkpt lat="42.130266" lon="-73.958637">
        <ele>74.149997</ele>
        <time>2022-10-10T08:54:17.000Z</time>
      </trkpt>
      <trkpt lat="42.130381" lon="-73.958582">
        <ele>72.580009</ele>
        <time>2022-10-10T08:54:18.000Z</time>
      </trkpt>
      <trkpt lat="42.130893" lon="-73.958142">
        <ele>70.309994</ele>
        <time>2022-10-10T08:54:25.000Z</time>
      </trkpt>
      <trkpt lat="42.131185" lon="-73.957964">
        <ele>70.259993</ele>
        <time>2022-10-10T08:54:29.000Z</time>
      </trkpt>
      <trkpt lat="42.1317580003" lon="-73.9576850025">
        <ele>69.780007</ele>
        <time>2022-10-10T08:54:36.000Z</time>
      </trkpt>
      <trkpt lat="42.132357" lon="-73.95742">
        <ele>66.889991</ele>
        <time>2022-10-10T08:54:43.000Z</time>
      </trkpt>
      <trkpt lat="42.132551" lon="-73.957361">
        <ele>65.860008</ele>
        <time>2022-10-10T08:54:45.000Z</time>
      </trkpt>
      <trkpt lat="42.132851" lon="-73.957294">
        <ele>64.989994</ele>
        <time>2022-10-10T08:54:48.000Z</time>
      </trkpt>
      <trkpt lat="42.133224" lon="-73.957257">
        <ele>64.480005</ele>
        <time>2022-10-10T08:54:52.000Z</time>
      </trkpt>
      <trkpt lat="42.133485" lon="-73.957188">
        <ele>64.490004</ele>
        <time>2022-10-10T08:54:55.000Z</time>
      </trkpt>
      <trkpt lat="42.133846" lon="-73.957044">
        <ele>64.209991</ele>
        <time>2022-10-10T08:54:59.000Z</time>
      </trkpt>
      <trkpt lat="42.134637" lon="-73.956666">
        <ele>64.559996</ele>
        <time>2022-10-10T08:55:08.000Z</time>
      </trkpt>
      <trkpt lat="42.1351090006" lon="-73.9563510023">
        <ele>63.880002</ele>
        <time>2022-10-10T08:55:14.000Z</time>
      </trkpt>
      <trkpt lat="42.13559" lon="-73.956036">
        <ele>62.020004</ele>
        <time>2022-10-10T08:55:20.000Z</time>
      </trkpt>
      <trkpt lat="42.136008" lon="-73.955765">
        <ele>61.409995</ele>
        <time>2022-10-10T08:55:25.000Z</time>
      </trkpt>
      <trkpt lat="42.136283" lon="-73.955673">
        <ele>61.410002</ele>
        <time>2022-10-10T08:55:28.000Z</time>
      </trkpt>
      <trkpt lat="42.136571" lon="-73.955574">
        <ele>60.890007</ele>
        <time>2022-10-10T08:55:31.000Z</time>
      </trkpt>
      <trkpt lat="42.137151" lon="-73.955437">
        <ele>60.309996</ele>
        <time>2022-10-10T08:55:38.000Z</time>
      </trkpt>
      <trkpt lat="42.137409" lon="-73.955401">
        <ele>57.769998</ele>
        <time>2022-10-10T08:55:41.000Z</time>
      </trkpt>
      <trkpt lat="42.138098" lon="-73.955227">
        <ele>55.130003</ele>
        <time>2022-10-10T08:55:49.000Z</time>
      </trkpt>
      <trkpt lat="42.1387470004" lon="-73.954931003">
        <ele>54.000002</ele>
        <time>2022-10-10T08:55:57.000Z</time>
      </trkpt>
      <trkpt lat="42.139391" lon="-73.954641">
        <ele>52.629996</ele>
        <time>2022-10-10T08:56:05.000Z</time>
      </trkpt>
      <trkpt lat="42.139849" lon="-73.954255">
        <ele>51.750001</ele>
        <time>2022-10-10T08:56:11.000Z</time>
      </trkpt>
      <trkpt lat="42.140157" lon="-73.954064">
        <ele>51.249992</ele>
        <time>2022-10-10T08:56:15.000Z</time>
      </trkpt>
      <trkpt lat="42.1407610003" lon="-73.953866002">
        <ele>50.429993</ele>
        <time>2022-10-10T08:56:22.000Z</time>
      </trkpt>
      <trkpt lat="42.141397" lon="-73.953659">
        <ele>50.460001</ele>
        <time>2022-10-10T08:56:29.000Z</time>
      </trkpt>
      <trkpt lat="42.141675" lon="-73.953725">
        <ele>50.809993</ele>
        <time>2022-10-10T08:56:32.000Z</time>
      </trkpt>
      <trkpt lat="42.141381" lon="-73.953653">
        <ele>50.46</ele>
        <time>2022-10-10T08:56:35.000Z</time>
      </trkpt>
      <trkpt lat="42.1409300018" lon="-73.9530219955">
        <ele>49.870006</ele>
        <time>2022-10-10T08:56:42.000Z</time>
      </trkpt>
      <trkpt lat="42.140464" lon="-73.952391">
        <ele>49.940009</ele>
        <time>2022-10-10T08:56:49.000Z</time>
      </trkpt>
      <trkpt lat="42.140196" lon="-73.951955">
        <ele>50.069997</ele>
        <time>2022-10-10T08:56:54.000Z</time>
      </trkpt>
      <trkpt lat="42.1398090175" lon="-73.9510673054">
        <ele>49.879999</ele>
        <time>2022-10-10T08:57:02.000Z</time>
      </trkpt>
      <trkpt lat="42.1394090279" lon="-73.9501706219">
        <ele>52.890001</ele>
        <time>2022-10-10T08:57:11.000Z</time>
      </trkpt>
      <trkpt lat="42.1390140314" lon="-73.9492669497">
        <ele>54.340009</ele>
        <time>2022-10-10T08:57:20.000Z</time>
      </trkpt>
      <trkpt lat="42.1386110279" lon="-73.9483792886">
        <ele>52.440002</ele>
        <time>2022-10-10T08:57:29.000Z</time>
      </trkpt>
      <trkpt lat="42.1382270175" lon="-73.9474816387">
        <ele>49.139991</ele>
        <time>2022-10-10T08:57:38.000Z</time>
      </trkpt>
      <trkpt lat="42.137832" lon="-73.946574">
        <ele>48.730005</ele>
        <time>2022-10-10T08:57:47.000Z</time>
      </trkpt>
      <trkpt lat="42.137554" lon="-73.945789">
        <ele>50.010007</ele>
        <time>2022-10-10T08:57:54.000Z</time>
      </trkpt>
      <trkpt lat="42.137454" lon="-73.945555">
        <ele>50.800002</ele>
        <time>2022-10-10T08:57:56.000Z</time>
      </trkpt>
      <trkpt lat="42.137354" lon="-73.945427">
        <ele>51.930005</ele>
        <time>2022-10-10T08:57:58.000Z</time>
      </trkpt>
      <trkpt lat="42.137235" lon="-73.945372">
        <ele>51.929995</ele>
        <time>2022-10-10T08:57:59.000Z</time>
      </trkpt>
      <trkpt lat="42.137126" lon="-73.945348">
        <ele>52.210008</ele>
        <time>2022-10-10T08:58:00.000Z</time>
      </trkpt>
      <trkpt lat="42.136996" lon="-73.945339">
        <ele>52.559992</ele>
        <time>2022-10-10T08:58:01.000Z</time>
      </trkpt>
      <trkpt lat="42.136334" lon="-73.945618">
        <ele>51.579997</ele>
        <time>2022-10-10T08:58:09.000Z</time>
      </trkpt>
      <trkpt lat="42.136198" lon="-73.945573">
        <ele>51.169995</ele>
        <time>2022-10-10T08:58:11.000Z</time>
      </trkpt>
      <trkpt lat="42.136041" lon="-73.945514">
        <ele>50.849995</ele>
        <time>2022-10-10T08:58:13.000Z</time>
      </trkpt>
      <trkpt lat="42.135865" lon="-73.945385">
        <ele>49.970005</ele>
        <time>2022-10-10T08:58:15.000Z</time>
      </trkpt>
      <trkpt lat="42.135405001" lon="-73.9448559961">
        <ele>48.78</ele>
        <time>2022-10-10T08:58:22.000Z</time>
      </trkpt>
      <trkpt lat="42.134941" lon="-73.944344">
        <ele>48.360002</ele>
        <time>2022-10-10T08:58:29.000Z</time>
      </trkpt>
      <trkpt lat="42.13433" lon="-73.943731">
        <ele>48.390001</ele>
        <time>2022-10-10T08:58:37.000Z</time>
      </trkpt>
      <trkpt lat="42.134157" lon="-73.943548">
        <ele>49.780009</ele>
        <time>2022-10-10T08:58:39.000Z</time>
      </trkpt>
      <trkpt lat="42.134095" lon="-73.943417">
        <ele>51.429992</ele>
        <time>2022-10-10T08:58:40.000Z</time>
      </trkpt>
      <trkpt lat="42.133801" lon="-73.942337">
        <ele>54.549996</ele>
        <time>2022-10-10T08:58:49.000Z</time>
      </trkpt>
      <trkpt lat="42.133757" lon="-73.942254">
        <ele>54.660004</ele>
        <time>2022-10-10T08:58:50.000Z</time>
      </trkpt>
      <trkpt lat="42.133459" lon="-73.941986">
        <ele>51.979994</ele>
        <time>2022-10-10T08:58:54.000Z</time>
      </trkpt>
      <trkpt lat="42.133288" lon="-73.941706">
        <ele>49.799999</ele>
        <time>2022-10-10T08:58:57.000Z</time>
      </trkpt>
      <trkpt lat="42.132938" lon="-73.941076">
        <ele>48.909997</ele>
        <time>2022-10-10T08:59:03.000Z</time>
      </trkpt>
      <trkpt lat="42.1326400013" lon="-73.9405169972">
        <ele>49.020006</ele>
        <time>2022-10-10T08:59:09.000Z</time>
      </trkpt>
      <trkpt lat="42.132334" lon="-73.939958">
        <ele>49.869997</ele>
        <time>2022-10-10T08:59:15.000Z</time>
      </trkpt>
      <trkpt lat="42.132017" lon="-73.939591">
        <ele>51.669996</ele>
        <time>2022-10-10T08:59:20.000Z</time>
      </trkpt>
      <trkpt lat="42.131777" lon="-73.939386">
        <ele>52.390008</ele>
        <time>2022-10-10T08:59:23.000Z</time>
      </trkpt>
      <trkpt lat="42.131644" lon="-73.939331">
        <ele>52.529999</ele>
        <time>2022-10-10T08:59:25.000Z</time>
      </trkpt>
      <trkpt lat="42.1311120001" lon="-73.9392559993">
        <ele>52.460007</ele>
        <time>2022-10-10T08:59:31.000Z</time>
      </trkpt>
      <trkpt lat="42.130603" lon="-73.939157">
        <ele>52.110007</ele>
        <time>2022-10-10T08:59:37.000Z</time>
      </trkpt>
      <trkpt lat="42.130372" lon="-73.939026">
        <ele>52.029992</ele>
        <time>2022-10-10T08:59:40.000Z</time>
      </trkpt>
      <trkpt lat="42.130337" lon="-73.939163">
        <ele>51.019991</ele>
        <time>2022-10-10T08:59:41.000Z</time>
      </trkpt>
      <trkpt lat="42.1301320056" lon="-73.9402960036">
        <ele>49.789999</ele>
        <time>2022-10-10T08:59:51.000Z</time>
      </trkpt>
      <trkpt lat="42.129939" lon="-73.941435">
        <ele>49.129993</ele>
        <time>2022-10-10T09:00:01.000Z</time>
      </trkpt>
      <trkpt lat="42.129927" lon="-73.941447">
        <ele>49.130003</ele>
        <time>2022-10-10T09:00:01.000Z</time>
      </trkpt>
      <trkpt lat="42.129876" lon="-73.941745">
        <ele>49.129993</ele>
        <time>2022-10-10T09:00:04.000Z</time>
      </trkpt>
      <trkpt lat="42.129816" lon="-73.941848">
        <ele>49.259998</ele>
        <time>2022-10-10T09:00:05.000Z</time>
      </trkpt>
      <trkpt lat="42.129624" lon="-73.942061">
        <ele>49.649994</ele>
        <time>2022-10-10T09:00:08.000Z</time>
      </trkpt>
      <trkpt lat="42.129514" lon="-73.942116">
        <ele>49.589994</ele>
        <time>2022-10-10T09:00:09.000Z</time>
      </trkpt>
      <trkpt lat="42.128656" lon="-73.942335">
        <ele>49.710008</ele>
        <time>2022-10-10T09:00:19.000Z</time>
      </trkpt>
      <trkpt lat="42.127883" lon="-73.942429">
        <ele>52.470004</ele>
        <time>2022-10-10T09:00:28.000Z</time>
      </trkpt>
      <trkpt lat="42.127577" lon="-73.942529">
        <ele>53.879992</ele>
        <time>2022-10-10T09:00:32.000Z</time>
      </trkpt>
      <trkpt lat="42.127132" lon="-73.942746">
        <ele>55.790003</ele>
        <time>2022-10-10T09:00:37.000Z</time>
      </trkpt>
      <trkpt lat="42.126738" lon="-73.943001">
        <ele>57.019994</ele>
        <time>2022-10-10T09:00:42.000Z</time>
      </trkpt>
      <trkpt lat="42.1263470004" lon="-73.9433480021">
        <ele>58.840007</ele>
        <time>2022-10-10T09:00:47.000Z</time>
      </trkpt>
      <trkpt lat="42.125985" lon="-73.943691">
        <ele>59.589991</ele>
        <time>2022-10-10T09:00:52.000Z</time>
      </trkpt>
      <trkpt lat="42.125966" lon="-73.943692">
        <ele>59.589994</ele>
        <time>2022-10-10T09:00:52.000Z</time>
      </trkpt>
      <trkpt lat="42.125601" lon="-73.944047">
        <ele>59.450001</ele>
        <time>2022-10-10T09:00:57.000Z</time>
      </trkpt>
      <trkpt lat="42.1250490017" lon="-73.9446560056">
        <ele>58.960008</ele>
        <time>2022-10-10T09:01:05.000Z</time>
      </trkpt>
      <trkpt lat="42.124483" lon="-73.94529">
        <ele>58.970006</ele>
        <time>2022-10-10T09:01:13.000Z</time>
      </trkpt>
      <trkpt lat="42.1240540015" lon="-73.9458900041">
        <ele>57.560002</ele>
        <time>2022-10-10T09:01:20.000Z</time>
      </trkpt>
      <trkpt lat="42.123624" lon="-73.946501">
        <ele>52.890007</ele>
        <time>2022-10-10T09:01:27.000Z</time>
      </trkpt>
      <trkpt lat="42.123594" lon="-73.946688">
        <ele>51.809999</ele>
        <time>2022-10-10T09:01:29.000Z</time>
      </trkpt>
      <trkpt lat="42.123554" lon="-73.946777">
        <ele>51.250009</ele>
        <time>2022-10-10T09:01:30.000Z</time>
      </trkpt>
      <trkpt lat="42.123439" lon="-73.946953">
        <ele>50.779992</ele>
        <time>2022-10-10T09:01:32.000Z</time>
      </trkpt>
      <trkpt lat="42.122776" lon="-73.947561">
        <ele>50.219991</ele>
        <time>2022-10-10T09:01:41.000Z</time>
      </trkpt>
      <trkpt lat="42.122638" lon="-73.947748">
        <ele>50.219994</ele>
        <time>2022-10-10T09:01:43.000Z</time>
      </trkpt>
      <trkpt lat="42.122541" lon="-73.947845">
        <ele>50.160007</ele>
        <time>2022-10-10T09:01:44.000Z</time>
      </trkpt>
      <trkpt lat="42.122429" lon="-73.948203">
        <ele>50.440005</ele>
        <time>2022-10-10T09:01:47.000Z</time>
      </trkpt>
      <trkpt lat="42.122339" lon="-73.948664">
        <ele>50.469995</ele>
        <time>2022-10-10T09:01:51.000Z</time>
      </trkpt>
      <trkpt lat="42.121933" lon="-73.947882">
        <ele>46.659995</ele>
        <time>2022-10-10T09:01:59.000Z</time>
      </trkpt>
      <trkpt lat="42.1216490018" lon="-73.9472159966">
        <ele>46.100009</ele>
        <time>2022-10-10T09:02:05.000Z</time>
      </trkpt>
      <trkpt lat="42.121339" lon="-73.946547">
        <ele>46.420008</ele>
        <time>2022-10-10T09:02:12.000Z</time>
      </trkpt>
      <trkpt lat="42.121108" lon="-73.945968">
        <ele>47.3</ele>
        <time>2022-10-10T09:02:17.000Z</time>
      </trkpt>
      <trkpt lat="42.120942" lon="-73.945595">
        <ele>47.399993</ele>
        <time>2022-10-10T09:02:21.000Z</time>
      </trkpt>
      <trkpt lat="42.120724" lon="-73.945291">
        <ele>47.860009</ele>
        <time>2022-10-10T09:02:24.000Z</time>
      </trkpt>
      <trkpt lat="42.120667" lon="-73.945147">
        <ele>47.309997</ele>
        <time>2022-10-10T09:02:25.000Z</time>
      </trkpt>
      <trkpt lat="42.120589" lon="-73.944719">
        <ele>45.000006</ele>
        <time>2022-10-10T09:02:29.000Z</time>
      </trkpt>
      <trkpt lat="42.120488" lon="-73.944367">
        <ele>44.579993</ele>
        <time>2022-10-10T09:02:32.000Z</time>
      </trkpt>
      <trkpt lat="42.1202490017" lon="-73.9437229974">
        <ele>44.329997</ele>
        <time>2022-10-10T09:02:38.000Z</time>
      </trkpt>
      <trkpt lat="42.120006" lon="-73.943098">
        <ele>44.409997</ele>
        <time>2022-10-10T09:02:44.000Z</time>
      </trkpt>
      <trkpt lat="42.1197246711" lon="-73.9423676602">
        <ele>44.379998</ele>
        <time>2022-10-10T09:02:51.000Z</time>
      </trkpt>
      <trkpt lat="42.1194353377" lon="-73.9416593268">
        <ele>44.450009</ele>
        <time>2022-10-10T09:02:58.000Z</time>
      </trkpt>
      <trkpt lat="42.119148" lon="-73.940944">
        <ele>44.82</ele>
        <time>2022-10-10T09:03:05.000Z</time>
      </trkpt>
      <trkpt lat="42.118745" lon="-73.940053">
        <ele>44.800008</ele>
        <time>2022-10-10T09:03:14.000Z</time>
      </trkpt>
      <trkpt lat="42.1183483379" lon="-73.939327991">
        <ele>44.709993</ele>
        <time>2022-10-10T09:03:21.000Z</time>
      </trkpt>
      <trkpt lat="42.1179596712" lon="-73.938587991">
        <ele>45.729998</ele>
        <time>2022-10-10T09:03:28.000Z</time>
      </trkpt>
      <trkpt lat="42.11758" lon="-73.937866">
        <ele>47.270001</ele>
        <time>2022-10-10T09:03:35.000Z</time>
      </trkpt>
      <trkpt lat="42.117528" lon="-73.937673">
        <ele>47.730002</ele>
        <time>2022-10-10T09:03:37.000Z</time>
      </trkpt>
      <trkpt lat="42.117448" lon="-73.937143">
        <ele>48.629996</ele>
        <time>2022-10-10T09:03:41.000Z</time>
      </trkpt>
      <trkpt lat="42.117334" lon="-73.936023">
        <ele>47.689991</ele>
        <time>2022-10-10T09:03:50.000Z</time>
      </trkpt>
      <trkpt lat="42.117262" lon="-73.935263">
        <ele>47.650003</ele>
        <time>2022-10-10T09:03:56.000Z</time>
      </trkpt>
      <trkpt lat="42.117206" lon="-73.934956">
        <ele>48.409992</ele>
        <time>2022-10-10T09:03:59.000Z</time>
      </trkpt>
      <trkpt lat="42.117328" lon="-73.93485">
        <ele>48.480003</ele>
        <time>2022-10-10T09:04:01.000Z</time>
      </trkpt>
      <trkpt lat="42.117322" lon="-73.934865">
        <ele>48.470003</ele>
        <time>2022-10-10T09:04:01.000Z</time>
      </trkpt>
      <trkpt lat="42.116967" lon="-73.935191">
        <ele>48.189995</ele>
        <time>2022-10-10T09:04:06.000Z</time>
      </trkpt>
      <trkpt lat="42.116647" lon="-73.935435">
        <ele>47.629995</ele>
        <time>2022-10-10T09:04:10.000Z</time>
      </trkpt>
      <trkpt lat="42.116476" lon="-73.935534">
        <ele>47.37</ele>
        <time>2022-10-10T09:04:12.000Z</time>
      </trkpt>
      <trkpt lat="42.116189" lon="-73.935636">
        <ele>47.569992</ele>
        <time>2022-10-10T09:04:15.000Z</time>
      </trkpt>
      <trkpt lat="42.1154210002" lon="-73.9358203377">
        <ele>52.689994</ele>
        <time>2022-10-10T09:04:24.000Z</time>
      </trkpt>
      <trkpt lat="42.1146660002" lon="-73.9360016711">
        <ele>55.650001</ele>
        <time>2022-10-10T09:04:33.000Z</time>
      </trkpt>
      <trkpt lat="42.113901" lon="-73.936179">
        <ele>55.540007</ele>
        <time>2022-10-10T09:04:42.000Z</time>
      </trkpt>
      <trkpt lat="42.113425" lon="-73.936253">
        <ele>54.679999</ele>
        <time>2022-10-10T09:04:47.000Z</time>
      </trkpt>
      <trkpt lat="42.112961" lon="-73.936257">
        <ele>53.779998</ele>
        <time>2022-10-10T09:04:52.000Z</time>
      </trkpt>
      <trkpt lat="42.112717" lon="-73.936248">
        <ele>53.110001</ele>
        <time>2022-10-10T09:04:55.000Z</time>
      </trkpt>
      <trkpt lat="42.112525" lon="-73.936204">
        <ele>52.139999</ele>
        <time>2022-10-10T09:04:57.000Z</time>
      </trkpt>
      <trkpt lat="42.111771" lon="-73.935923">
        <ele>51.569992</ele>
        <time>2022-10-10T09:05:06.000Z</time>
      </trkpt>
      <trkpt lat="42.111583" lon="-73.935923">
        <ele>51.569993</ele>
        <time>2022-10-10T09:05:08.000Z</time>
      </trkpt>
      <trkpt lat="42.111384" lon="-73.935987">
        <ele>52.220005</ele>
        <time>2022-10-10T09:05:10.000Z</time>
      </trkpt>
      <trkpt lat="42.111109" lon="-73.936086">
        <ele>52.389999</ele>
        <time>2022-10-10T09:05:13.000Z</time>
      </trkpt>
      <trkpt lat="42.1104790018" lon="-73.9364425108">
        <ele>52.750009</ele>
        <time>2022-10-10T09:05:21.000Z</time>
      </trkpt>
      <trkpt lat="42.1098640023" lon="-73.9368090144">
        <ele>53.830009</ele>
        <time>2022-10-10T09:05:28.000Z</time>
      </trkpt>
      <trkpt lat="42.1092450018" lon="-73.9371795108">
        <ele>53.990002</ele>
        <time>2022-10-10T09:05:36.000Z</time>
      </trkpt>
      <trkpt lat="42.108619" lon="-73.937549">
        <ele>53.57</ele>
        <time>2022-10-10T09:05:44.000Z</time>
      </trkpt>
      <trkpt lat="42.108446" lon="-73.937635">
        <ele>52.900005</ele>
        <time>2022-10-10T09:05:46.000Z</time>
      </trkpt>
      <trkpt lat="42.108046" lon="-73.937721">
        <ele>51.240003</ele>
        <time>2022-10-10T09:05:51.000Z</time>
      </trkpt>
      <trkpt lat="42.107728" lon="-73.937767">
        <ele>50.450006</ele>
        <time>2022-10-10T09:05:55.000Z</time>
      </trkpt>
      <trkpt lat="42.1069010001" lon="-73.9378320015">
        <ele>46.779999</ele>
        <time>2022-10-10T09:06:04.000Z</time>
      </trkpt>
      <trkpt lat="42.1060920002" lon="-73.9378930015">
        <ele>46.299995</ele>
        <time>2022-10-10T09:06:13.000Z</time>
      </trkpt>
      <trkpt lat="42.105281" lon="-73.937946">
        <ele>47.240001</ele>
        <time>2022-10-10T09:06:22.000Z</time>
      </trkpt>
      <trkpt lat="42.105051" lon="-73.93794">
        <ele>48.009994</ele>
        <time>2022-10-10T09:06:25.000Z</time>
      </trkpt>
      <trkpt lat="42.104513" lon="-73.9378309991">
        <ele>50.369992</ele>
        <time>2022-10-10T09:06:31.000Z</time>
      </trkpt>
      <trkpt lat="42.103991" lon="-73.937735">
        <ele>51.890007</ele>
        <time>2022-10-10T09:06:37.000Z</time>
      </trkpt>
      <trkpt lat="42.103375" lon="-73.93755">
        <ele>51.410001</ele>
        <time>2022-10-10T09:06:44.000Z</time>
      </trkpt>
      <trkpt lat="42.103007" lon="-73.937505">
        <ele>50.569995</ele>
        <time>2022-10-10T09:06:48.000Z</time>
      </trkpt>
      <trkpt lat="42.102686" lon="-73.937544">
        <ele>49.040006</ele>
        <time>2022-10-10T09:06:52.000Z</time>
      </trkpt>
      <trkpt lat="42.102299" lon="-73.937638">
        <ele>48.250002</ele>
        <time>2022-10-10T09:06:56.000Z</time>
      </trkpt>
      <trkpt lat="42.1017560003" lon="-73.937865002">
        <ele>47.53</ele>
        <time>2022-10-10T09:07:02.000Z</time>
      </trkpt>
      <trkpt lat="42.101248" lon="-73.938115">
        <ele>47.590005</ele>
        <time>2022-10-10T09:07:08.000Z</time>
      </trkpt>
      <trkpt lat="42.1006870003" lon="-73.938338002">
        <ele>47.670004</ele>
        <time>2022-10-10T09:07:15.000Z</time>
      </trkpt>
      <trkpt lat="42.100124" lon="-73.938584">
        <ele>48.119995</ele>
        <time>2022-10-10T09:07:22.000Z</time>
      </trkpt>
      <trkpt lat="42.099621" lon="-73.938768">
        <ele>49.060008</ele>
        <time>2022-10-10T09:07:28.000Z</time>
      </trkpt>
      <trkpt lat="42.099349" lon="-73.938841">
        <ele>50.630001</ele>
        <time>2022-10-10T09:07:31.000Z</time>
      </trkpt>
      <trkpt lat="42.099033" lon="-73.938884">
        <ele>52.79</ele>
        <time>2022-10-10T09:07:35.000Z</time>
      </trkpt>
      <trkpt lat="42.098746" lon="-73.938897">
        <ele>54.030009</ele>
        <time>2022-10-10T09:07:38.000Z</time>
      </trkpt>
      <trkpt lat="42.098734" lon="-73.938882">
        <ele>54.049999</ele>
        <time>2022-10-10T09:07:38.000Z</time>
      </trkpt>
      <trkpt lat="42.098283" lon="-73.938907">
        <ele>55.269995</ele>
        <time>2022-10-10T09:07:43.000Z</time>
      </trkpt>
      <trkpt lat="42.097492" lon="-73.93902">
        <ele>56.729997</ele>
        <time>2022-10-10T09:07:52.000Z</time>
      </trkpt>
      <trkpt lat="42.096665" lon="-73.939179">
        <ele>59.08</ele>
        <time>2022-10-10T09:08:01.000Z</time>
      </trkpt>
      <trkpt lat="42.096422" lon="-73.939231">
        <ele>59.889991</ele>
        <time>2022-10-10T09:08:04.000Z</time>
      </trkpt>
      <trkpt lat="42.0957340003" lon="-73.9395180032">
        <ele>60.600004</ele>
        <time>2022-10-10T09:08:12.000Z</time>
      </trkpt>
      <trkpt lat="42.095025" lon="-73.939805">
        <ele>58.329998</ele>
        <time>2022-10-10T09:08:20.000Z</time>
      </trkpt>
      <trkpt lat="42.094617" lon="-73.939958">
        <ele>56.079999</ele>
        <time>2022-10-10T09:08:25.000Z</time>
      </trkpt>
      <trkpt lat="42.094434" lon="-73.939991">
        <ele>55.529996</ele>
        <time>2022-10-10T09:08:27.000Z</time>
      </trkpt>
      <trkpt lat="42.094009" lon="-73.939954">
        <ele>54.86</ele>
        <time>2022-10-10T09:08:32.000Z</time>
      </trkpt>
      <trkpt lat="42.093247" lon="-73.939742">
        <ele>53.010006</ele>
        <time>2022-10-10T09:08:41.000Z</time>
      </trkpt>
      <trkpt lat="42.092853" lon="-73.939688">
        <ele>51.349993</ele>
        <time>2022-10-10T09:08:45.000Z</time>
      </trkpt>
      <trkpt lat="42.0923709999" lon="-73.9396459997">
        <ele>49.329996</ele>
        <time>2022-10-10T09:08:50.000Z</time>
      </trkpt>
      <trkpt lat="42.091871" lon="-73.939619">
        <ele>48.379991</ele>
        <time>2022-10-10T09:08:56.000Z</time>
      </trkpt>
      <trkpt lat="42.091426" lon="-73.939649">
        <ele>47.879991</ele>
        <time>2022-10-10T09:09:01.000Z</time>
      </trkpt>
      <trkpt lat="42.090991" lon="-73.93972">
        <ele>47.060009</ele>
        <time>2022-10-10T09:09:06.000Z</time>
      </trkpt>
      <trkpt lat="42.090648" lon="-73.93982">
        <ele>46.73</ele>
        <time>2022-10-10T09:09:10.000Z</time>
      </trkpt>
      <trkpt lat="42.090365" lon="-73.939978">
        <ele>46.899992</ele>
        <time>2022-10-10T09:09:13.000Z</time>
      </trkpt>
      <trkpt lat="42.090025" lon="-73.940277">
        <ele>47.120004</ele>
        <time>2022-10-10T09:09:18.000Z</time>
      </trkpt>
      <trkpt lat="42.089396" lon="-73.94099">
        <ele>49.110009</ele>
        <time>2022-10-10T09:09:27.000Z</time>
      </trkpt>
      <trkpt lat="42.089134" lon="-73.941215">
        <ele>51.489992</ele>
        <time>2022-10-10T09:09:30.000Z</time>
      </trkpt>
      <trkpt lat="42.088885" lon="-73.941399">
        <ele>51.489997</ele>
        <time>2022-10-10T09:09:33.000Z</time>
      </trkpt>
      <trkpt lat="42.088701" lon="-73.941482">
        <ele>52.820005</ele>
        <time>2022-10-10T09:09:35.000Z</time>
      </trkpt>
      <trkpt lat="42.088417" lon="-73.941604">
        <ele>53.930007</ele>
        <time>2022-10-10T09:09:38.000Z</time>
      </trkpt>
      <trkpt lat="42.088264" lon="-73.941639">
        <ele>54.349994</ele>
        <time>2022-10-10T09:09:40.000Z</time>
      </trkpt>
      <trkpt lat="42.0876770001" lon="-73.9416890006">
        <ele>53.900007</ele>
        <time>2022-10-10T09:09:47.000Z</time>
      </trkpt>
      <trkpt lat="42.087085" lon="-73.941757">
        <ele>52.000002</ele>
        <time>2022-10-10T09:09:54.000Z</time>
      </trkpt>
      <trkpt lat="42.0865460001" lon="-73.9419510017">
        <ele>51.060009</ele>
        <time>2022-10-10T09:10:00.000Z</time>
      </trkpt>
      <trkpt lat="42.086017" lon="-73.942164">
        <ele>51.340004</ele>
        <time>2022-10-10T09:10:06.000Z</time>
      </trkpt>
      <trkpt lat="42.085475" lon="-73.942372">
        <ele>49.900001</ele>
        <time>2022-10-10T09:10:12.000Z</time>
      </trkpt>
      <trkpt lat="42.085288" lon="-73.942472">
        <ele>49.170007</ele>
        <time>2022-10-10T09:10:14.000Z</time>
      </trkpt>
      <trkpt lat="42.085002" lon="-73.94269">
        <ele>47.489995</ele>
        <time>2022-10-10T09:10:18.000Z</time>
      </trkpt>
      <trkpt lat="42.0846000005" lon="-73.9430310023">
        <ele>43.770003</ele>
        <time>2022-10-10T09:10:23.000Z</time>
      </trkpt>
      <trkpt lat="42.084181" lon="-73.943384">
        <ele>42.969992</ele>
        <time>2022-10-10T09:10:28.000Z</time>
      </trkpt>
      <trkpt lat="42.083682" lon="-73.943718">
        <ele>42.839998</ele>
        <time>2022-10-10T09:10:34.000Z</time>
      </trkpt>
      <trkpt lat="42.0829610002" lon="-73.9438473361">
        <ele>43.809991</ele>
        <time>2022-10-10T09:10:42.000Z</time>
      </trkpt>
      <trkpt lat="42.0822570002" lon="-73.9439696695">
        <ele>45.269998</ele>
        <time>2022-10-10T09:10:50.000Z</time>
      </trkpt>
      <trkpt lat="42.081532" lon="-73.944097">
        <ele>46.689997</ele>
        <time>2022-10-10T09:10:58.000Z</time>
      </trkpt>
      <trkpt lat="42.080731" lon="-73.944125">
        <ele>46.839995</ele>
        <time>2022-10-10T09:11:07.000Z</time>
      </trkpt>
      <trkpt lat="42.08054" lon="-73.944093">
        <ele>46.940001</ele>
        <time>2022-10-10T09:11:09.000Z</time>
      </trkpt>
      <trkpt lat="42.080362" lon="-73.944131">
        <ele>46.960003</ele>
        <time>2022-10-10T09:11:11.000Z</time>
      </trkpt>
      <trkpt lat="42.080309" lon="-73.944224">
        <ele>46.779999</ele>
        <time>2022-10-10T09:11:12.000Z</time>
      </trkpt>
      <trkpt lat="42.080306" lon="-73.944243">
        <ele>46.760008</ele>
        <time>2022-10-10T09:11:12.000Z</time>
      </trkpt>
      <trkpt lat="42.080276" lon="-73.944316">
        <ele>46.759993</ele>
        <time>2022-10-10T09:11:13.000Z</time>
      </trkpt>
      <trkpt lat="42.0800930034" lon="-73.9451980027">
        <ele>45.879998</ele>
        <time>2022-10-10T09:11:21.000Z</time>
      </trkpt>
      <trkpt lat="42.079885" lon="-73.946073">
        <ele>46.350006</ele>
        <time>2022-10-10T09:11:29.000Z</time>
      </trkpt>
      <trkpt lat="42.079701" lon="-73.946894">
        <ele>47.079994</ele>
        <time>2022-10-10T09:11:36.000Z</time>
      </trkpt>
      <trkpt lat="42.0793995089" lon="-73.9477230114">
        <ele>47.690003</ele>
        <time>2022-10-10T09:11:44.000Z</time>
      </trkpt>
      <trkpt lat="42.0791200118" lon="-73.9485450152">
        <ele>47.579999</ele>
        <time>2022-10-10T09:11:51.000Z</time>
      </trkpt>
      <trkpt lat="42.0788175089" lon="-73.9493690114">
        <ele>47.43</ele>
        <time>2022-10-10T09:11:59.000Z</time>
      </trkpt>
      <trkpt lat="42.078532" lon="-73.950203">
        <ele>47.21</ele>
        <time>2022-10-10T09:12:07.000Z</time>
      </trkpt>
      <trkpt lat="42.078524" lon="-73.950214">
        <ele>47.199998</ele>
        <time>2022-10-10T09:12:07.000Z</time>
      </trkpt>
      <trkpt lat="42.0782770047" lon="-73.9509416725">
        <ele>46.860008</ele>
        <time>2022-10-10T09:12:14.000Z</time>
      </trkpt>
      <trkpt lat="42.0780300047" lon="-73.9516813392">
        <ele>46.770009</ele>
        <time>2022-10-10T09:12:21.000Z</time>
      </trkpt>
      <trkpt lat="42.077781" lon="-73.952428">
        <ele>46.979996</ele>
        <time>2022-10-10T09:12:28.000Z</time>
      </trkpt>
      <trkpt lat="42.0771820007" lon="-73.9521456614">
        <ele>46.569992</ele>
        <time>2022-10-10T09:12:35.000Z</time>
      </trkpt>
      <trkpt lat="42.0766010008" lon="-73.9518623281">
        <ele>46.309994</ele>
        <time>2022-10-10T09:12:42.000Z</time>
      </trkpt>
      <trkpt lat="42.076007" lon="-73.951571">
        <ele>45.089997</ele>
        <time>2022-10-10T09:12:49.000Z</time>
      </trkpt>
      <trkpt lat="42.0754640003" lon="-73.951344998">
        <ele>41.870009</ele>
        <time>2022-10-10T09:12:55.000Z</time>
      </trkpt>
      <trkpt lat="42.07492" lon="-73.951111">
        <ele>37.639992</ele>
        <time>2022-10-10T09:13:01.000Z</time>
      </trkpt>
      <trkpt lat="42.0744880002" lon="-73.9508579983">
        <ele>33.050007</ele>
        <time>2022-10-10T09:13:06.000Z</time>
      </trkpt>
      <trkpt lat="42.074048" lon="-73.950614">
        <ele>30.550003</ele>
        <time>2022-10-10T09:13:11.000Z</time>
      </trkpt>
      <trkpt lat="42.073721" lon="-73.950532">
        <ele>28.819993</ele>
        <time>2022-10-10T09:13:15.000Z</time>
      </trkpt>
      <trkpt lat="42.074036" lon="-73.950623">
        <ele>30.549994</ele>
        <time>2022-10-10T09:13:19.000Z</time>
      </trkpt>
      <trkpt lat="42.0744890003" lon="-73.9508599983">
        <ele>33.050009</ele>
        <time>2022-10-10T09:13:24.000Z</time>
      </trkpt>
      <trkpt lat="42.074912" lon="-73.95111">
        <ele>37.640009</ele>
        <time>2022-10-10T09:13:29.000Z</time>
      </trkpt>
      <trkpt lat="42.0754570002" lon="-73.951342998">
        <ele>41.870009</ele>
        <time>2022-10-10T09:13:35.000Z</time>
      </trkpt>
      <trkpt lat="42.076015" lon="-73.951573">
        <ele>45.090003</ele>
        <time>2022-10-10T09:13:41.000Z</time>
      </trkpt>
      <trkpt lat="42.0765990006" lon="-73.951861328">
        <ele>46.309997</ele>
        <time>2022-10-10T09:13:48.000Z</time>
      </trkpt>
      <trkpt lat="42.0771860006" lon="-73.9521316614">
        <ele>46.569992</ele>
        <time>2022-10-10T09:13:55.000Z</time>
      </trkpt>
      <trkpt lat="42.077785" lon="-73.952414">
        <ele>46.98</ele>
        <time>2022-10-10T09:14:02.000Z</time>
      </trkpt>
      <trkpt lat="42.0780020019" lon="-73.9517410025">
        <ele>46.770007</ele>
        <time>2022-10-10T09:14:08.000Z</time>
      </trkpt>
      <trkpt lat="42.078236" lon="-73.951074">
        <ele>46.86</ele>
        <time>2022-10-10T09:14:14.000Z</time>
      </trkpt>
      <trkpt lat="42.0786065142" lon="-73.9500320182">
        <ele>47.250009</ele>
        <time>2022-10-10T09:14:24.000Z</time>
      </trkpt>
      <trkpt lat="42.0789610189" lon="-73.9489860243">
        <ele>47.499998</ele>
        <time>2022-10-10T09:14:33.000Z</time>
      </trkpt>
      <trkpt lat="42.0793235142" lon="-73.9479460183">
        <ele>47.689998</ele>
        <time>2022-10-10T09:14:42.000Z</time>
      </trkpt>
      <trkpt lat="42.079708" lon="-73.946891">
        <ele>47.080003</ele>
        <time>2022-10-10T09:14:52.000Z</time>
      </trkpt>
      <trkpt lat="42.079888" lon="-73.946079">
        <ele>46.350009</ele>
        <time>2022-10-10T09:14:59.000Z</time>
      </trkpt>
      <trkpt lat="42.080068003" lon="-73.9452500023">
        <ele>45.879993</ele>
        <time>2022-10-10T09:15:06.000Z</time>
      </trkpt>
      <trkpt lat="42.080248" lon="-73.944416">
        <ele>46.470006</ele>
        <time>2022-10-10T09:15:13.000Z</time>
      </trkpt>
      <trkpt lat="42.080259" lon="-73.944421">
        <ele>46.459996</ele>
        <time>2022-10-10T09:15:13.000Z</time>
      </trkpt>
      <trkpt lat="42.080285" lon="-73.944307">
        <ele>46.460009</ele>
        <time>2022-10-10T09:15:14.000Z</time>
      </trkpt>
      <trkpt lat="42.08036" lon="-73.944133">
        <ele>46.960009</ele>
        <time>2022-10-10T09:15:16.000Z</time>
      </trkpt>
      <trkpt lat="42.080412" lon="-73.944119">
        <ele>46.960006</ele>
        <time>2022-10-10T09:15:17.000Z</time>
      </trkpt>
      <trkpt lat="42.080539" lon="-73.94409">
        <ele>46.940008</ele>
        <time>2022-10-10T09:15:18.000Z</time>
      </trkpt>
      <trkpt lat="42.080726" lon="-73.944139">
        <ele>46.840004</ele>
        <time>2022-10-10T09:15:20.000Z</time>
      </trkpt>
      <trkpt lat="42.081537" lon="-73.944092">
        <ele>46.689992</ele>
        <time>2022-10-10T09:15:29.000Z</time>
      </trkpt>
      <trkpt lat="42.0822480001" lon="-73.9439726695">
        <ele>45.270009</ele>
        <time>2022-10-10T09:15:37.000Z</time>
      </trkpt>
      <trkpt lat="42.082979" lon="-73.9438523361">
        <ele>43.809999</ele>
        <time>2022-10-10T09:15:45.000Z</time>
      </trkpt>
      <trkpt lat="42.083691" lon="-73.943726">
        <ele>42.839993</ele>
        <time>2022-10-10T09:15:53.000Z</time>
      </trkpt>
      <trkpt lat="42.084199" lon="-73.943383">
        <ele>42.969994</ele>
        <time>2022-10-10T09:15:59.000Z</time>
      </trkpt>
      <trkpt lat="42.0846090006" lon="-73.9430410022">
        <ele>44.039991</ele>
        <time>2022-10-10T09:16:04.000Z</time>
      </trkpt>
      <trkpt lat="42.085002" lon="-73.942697">
        <ele>47.489997</ele>
        <time>2022-10-10T09:16:09.000Z</time>
      </trkpt>
      <trkpt lat="42.085294" lon="-73.942472">
        <ele>49.169992</ele>
        <time>2022-10-10T09:16:13.000Z</time>
      </trkpt>
      <trkpt lat="42.085471" lon="-73.942371">
        <ele>49.900008</ele>
        <time>2022-10-10T09:16:15.000Z</time>
      </trkpt>
      <trkpt lat="42.086003" lon="-73.942165">
        <ele>51.360003</ele>
        <time>2022-10-10T09:16:21.000Z</time>
      </trkpt>
      <trkpt lat="42.0865420002" lon="-73.9419630017">
        <ele>51.059999</ele>
        <time>2022-10-10T09:16:27.000Z</time>
      </trkpt>
      <trkpt lat="42.087071" lon="-73.941762">
        <ele>52.000006</ele>
        <time>2022-10-10T09:16:33.000Z</time>
      </trkpt>
      <trkpt lat="42.0876839999" lon="-73.9416890006">
        <ele>53.900004</ele>
        <time>2022-10-10T09:16:40.000Z</time>
      </trkpt>
      <trkpt lat="42.088273" lon="-73.941638">
        <ele>54.279993</ele>
        <time>2022-10-10T09:16:47.000Z</time>
      </trkpt>
      <trkpt lat="42.088418" lon="-73.941613">
        <ele>53.930002</ele>
        <time>2022-10-10T09:16:49.000Z</time>
      </trkpt>
      <trkpt lat="42.088717" lon="-73.941484">
        <ele>52.820002</ele>
        <time>2022-10-10T09:16:52.000Z</time>
      </trkpt>
      <trkpt lat="42.08888" lon="-73.941399">
        <ele>51.489994</ele>
        <time>2022-10-10T09:16:54.000Z</time>
      </trkpt>
      <trkpt lat="42.089141" lon="-73.941229">
        <ele>49.109996</ele>
        <time>2022-10-10T09:16:57.000Z</time>
      </trkpt>
      <trkpt lat="42.089407" lon="-73.940982">
        <ele>48.490005</ele>
        <time>2022-10-10T09:17:01.000Z</time>
      </trkpt>
      <trkpt lat="42.090017" lon="-73.940289">
        <ele>47.120008</ele>
        <time>2022-10-10T09:17:10.000Z</time>
      </trkpt>
      <trkpt lat="42.090363" lon="-73.939961">
        <ele>46.9</ele>
        <time>2022-10-10T09:17:15.000Z</time>
      </trkpt>
      <trkpt lat="42.090656" lon="-73.93982">
        <ele>46.750002</ele>
        <time>2022-10-10T09:17:18.000Z</time>
      </trkpt>
      <trkpt lat="42.090989" lon="-73.939714">
        <ele>47.060006</ele>
        <time>2022-10-10T09:17:22.000Z</time>
      </trkpt>
      <trkpt lat="42.091425" lon="-73.939648">
        <ele>47.879995</ele>
        <time>2022-10-10T09:17:27.000Z</time>
      </trkpt>
      <trkpt lat="42.091883" lon="-73.939614">
        <ele>48.380009</ele>
        <time>2022-10-10T09:17:32.000Z</time>
      </trkpt>
      <trkpt lat="42.0923700001" lon="-73.9396449997">
        <ele>49.470007</ele>
        <time>2022-10-10T09:17:37.000Z</time>
      </trkpt>
      <trkpt lat="42.092852" lon="-73.939681">
        <ele>51.350001</ele>
        <time>2022-10-10T09:17:42.000Z</time>
      </trkpt>
      <trkpt lat="42.093238" lon="-73.939758">
        <ele>53.009991</ele>
        <time>2022-10-10T09:17:46.000Z</time>
      </trkpt>
      <trkpt lat="42.093998" lon="-73.939957">
        <ele>54.860008</ele>
        <time>2022-10-10T09:17:55.000Z</time>
      </trkpt>
      <trkpt lat="42.094429" lon="-73.939994">
        <ele>55.780008</ele>
        <time>2022-10-10T09:18:00.000Z</time>
      </trkpt>
      <trkpt lat="42.094624" lon="-73.939956">
        <ele>56.449998</ele>
        <time>2022-10-10T09:18:02.000Z</time>
      </trkpt>
      <trkpt lat="42.095024" lon="-73.939801">
        <ele>58.329992</ele>
        <time>2022-10-10T09:18:07.000Z</time>
      </trkpt>
      <trkpt lat="42.0957320004" lon="-73.9395190031">
        <ele>60.599996</ele>
        <time>2022-10-10T09:18:15.000Z</time>
      </trkpt>
      <trkpt lat="42.096439" lon="-73.939248">
        <ele>59.89</ele>
        <time>2022-10-10T09:18:23.000Z</time>
      </trkpt>
      <trkpt lat="42.096667" lon="-73.939187">
        <ele>59.080002</ele>
        <time>2022-10-10T09:18:26.000Z</time>
      </trkpt>
      <trkpt lat="42.097496" lon="-73.939018">
        <ele>56.729999</ele>
        <time>2022-10-10T09:18:35.000Z</time>
      </trkpt>
      <trkpt lat="42.098282" lon="-73.938905">
        <ele>55.270002</ele>
        <time>2022-10-10T09:18:44.000Z</time>
      </trkpt>
      <trkpt lat="42.099031" lon="-73.938882">
        <ele>52.500002</ele>
        <time>2022-10-10T09:18:52.000Z</time>
      </trkpt>
      <trkpt lat="42.099346" lon="-73.93884">
        <ele>50.349999</ele>
        <time>2022-10-10T09:18:56.000Z</time>
      </trkpt>
      <trkpt lat="42.099624" lon="-73.93876">
        <ele>48.799997</ele>
        <time>2022-10-10T09:18:59.000Z</time>
      </trkpt>
      <trkpt lat="42.100135" lon="-73.938577">
        <ele>47.859991</ele>
        <time>2022-10-10T09:19:05.000Z</time>
      </trkpt>
      <trkpt lat="42.1006760002" lon="-73.9383500021">
        <ele>47.67</ele>
        <time>2022-10-10T09:19:11.000Z</time>
      </trkpt>
      <trkpt lat="42.101239" lon="-73.938104">
        <ele>47.589995</ele>
        <time>2022-10-10T09:19:18.000Z</time>
      </trkpt>
      <trkpt lat="42.1017600002" lon="-73.937865002">
        <ele>47.639998</ele>
        <time>2022-10-10T09:19:24.000Z</time>
      </trkpt>
      <trkpt lat="42.102292" lon="-73.937622">
        <ele>48.249995</ele>
        <time>2022-10-10T09:19:30.000Z</time>
      </trkpt>
      <trkpt lat="42.102679" lon="-73.937552">
        <ele>50.139995</ele>
        <time>2022-10-10T09:19:34.000Z</time>
      </trkpt>
      <trkpt lat="42.103006" lon="-73.937502">
        <ele>50.810004</ele>
        <time>2022-10-10T09:19:38.000Z</time>
      </trkpt>
      <trkpt lat="42.103375" lon="-73.937555">
        <ele>51.409996</ele>
        <time>2022-10-10T09:19:42.000Z</time>
      </trkpt>
      <trkpt lat="42.103996" lon="-73.937739">
        <ele>51.779991</ele>
        <time>2022-10-10T09:19:49.000Z</time>
      </trkpt>
      <trkpt lat="42.1045140001" lon="-73.9378339991">
        <ele>50.370009</ele>
        <time>2022-10-10T09:19:55.000Z</time>
      </trkpt>
      <trkpt lat="42.105053" lon="-73.937936">
        <ele>48.010007</ele>
        <time>2022-10-10T09:20:01.000Z</time>
      </trkpt>
      <trkpt lat="42.105289" lon="-73.937946">
        <ele>47.239993</ele>
        <time>2022-10-10T09:20:04.000Z</time>
      </trkpt>
      <trkpt lat="42.106104" lon="-73.9378950015">
        <ele>46.299996</ele>
        <time>2022-10-10T09:20:13.000Z</time>
      </trkpt>
      <trkpt lat="42.1069059999" lon="-73.9378350015">
        <ele>47.020007</ele>
        <time>2022-10-10T09:20:22.000Z</time>
      </trkpt>
      <trkpt lat="42.107729" lon="-73.937764">
        <ele>50.449997</ele>
        <time>2022-10-10T09:20:31.000Z</time>
      </trkpt>
      <trkpt lat="42.108033" lon="-73.937737">
        <ele>52.340005</ele>
        <time>2022-10-10T09:20:34.000Z</time>
      </trkpt>
      <trkpt lat="42.108439" lon="-73.937629">
        <ele>53.110001</ele>
        <time>2022-10-10T09:20:39.000Z</time>
      </trkpt>
      <trkpt lat="42.108613" lon="-73.937558">
        <ele>53.57</ele>
        <time>2022-10-10T09:20:41.000Z</time>
      </trkpt>
      <trkpt lat="42.1092420018" lon="-73.9371905108">
        <ele>54.009995</ele>
        <time>2022-10-10T09:20:49.000Z</time>
      </trkpt>
      <trkpt lat="42.1098630023" lon="-73.9368060144">
        <ele>53.240004</ele>
        <time>2022-10-10T09:20:57.000Z</time>
      </trkpt>
      <trkpt lat="42.1104750018" lon="-73.9364395108">
        <ele>52.749993</ele>
        <time>2022-10-10T09:21:04.000Z</time>
      </trkpt>
      <trkpt lat="42.111092" lon="-73.936073">
        <ele>52.219993</ele>
        <time>2022-10-10T09:21:11.000Z</time>
      </trkpt>
      <trkpt lat="42.111374" lon="-73.935975">
        <ele>51.569994</ele>
        <time>2022-10-10T09:21:14.000Z</time>
      </trkpt>
      <trkpt lat="42.111596" lon="-73.935925">
        <ele>51.569999</ele>
        <time>2022-10-10T09:21:17.000Z</time>
      </trkpt>
      <trkpt lat="42.111785" lon="-73.935938">
        <ele>51.139991</ele>
        <time>2022-10-10T09:21:19.000Z</time>
      </trkpt>
      <trkpt lat="42.112516" lon="-73.936199">
        <ele>52.139995</ele>
        <time>2022-10-10T09:21:27.000Z</time>
      </trkpt>
      <trkpt lat="42.112707" lon="-73.936244">
        <ele>53.109993</ele>
        <time>2022-10-10T09:21:29.000Z</time>
      </trkpt>
      <trkpt lat="42.112977" lon="-73.936263">
        <ele>54.149992</ele>
        <time>2022-10-10T09:21:32.000Z</time>
      </trkpt>
      <trkpt lat="42.113411" lon="-73.936259">
        <ele>54.680001</ele>
        <time>2022-10-10T09:21:37.000Z</time>
      </trkpt>
      <trkpt lat="42.113918" lon="-73.936183">
        <ele>55.540004</ele>
        <time>2022-10-10T09:21:43.000Z</time>
      </trkpt>
      <trkpt lat="42.1146720003" lon="-73.936000671">
        <ele>55.570004</ele>
        <time>2022-10-10T09:21:52.000Z</time>
      </trkpt>
      <trkpt lat="42.1154270004" lon="-73.9358043377">
        <ele>50.339992</ele>
        <time>2022-10-10T09:22:01.000Z</time>
      </trkpt>
      <trkpt lat="42.116185" lon="-73.935626">
        <ele>47.429995</ele>
        <time>2022-10-10T09:22:10.000Z</time>
      </trkpt>
      <trkpt lat="42.116466" lon="-73.935535">
        <ele>47.469997</ele>
        <time>2022-10-10T09:22:13.000Z</time>
      </trkpt>
      <trkpt lat="42.116653" lon="-73.935436">
        <ele>47.630009</ele>
        <time>2022-10-10T09:22:15.000Z</time>
      </trkpt>
      <trkpt lat="42.116977" lon="-73.935192">
        <ele>48.239991</ele>
        <time>2022-10-10T09:22:19.000Z</time>
      </trkpt>
      <trkpt lat="42.117304" lon="-73.934876">
        <ele>48.449996</ele>
        <time>2022-10-10T09:22:23.000Z</time>
      </trkpt>
      <trkpt lat="42.117309" lon="-73.934874">
        <ele>48.439999</ele>
        <time>2022-10-10T09:22:23.000Z</time>
      </trkpt>
      <trkpt lat="42.117218" lon="-73.934964">
        <ele>48.409999</ele>
        <time>2022-10-10T09:22:24.000Z</time>
      </trkpt>
      <trkpt lat="42.117274" lon="-73.935253">
        <ele>47.650005</ele>
        <time>2022-10-10T09:22:26.000Z</time>
      </trkpt>
      <trkpt lat="42.117326" lon="-73.936029">
        <ele>47.689993</ele>
        <time>2022-10-10T09:22:32.000Z</time>
      </trkpt>
      <trkpt lat="42.117459" lon="-73.937143">
        <ele>48.630009</ele>
        <time>2022-10-10T09:22:41.000Z</time>
      </trkpt>
      <trkpt lat="42.117526" lon="-73.937672">
        <ele>47.729992</ele>
        <time>2022-10-10T09:22:45.000Z</time>
      </trkpt>
      <trkpt lat="42.117571" lon="-73.937869">
        <ele>47.269997</ele>
        <time>2022-10-10T09:22:47.000Z</time>
      </trkpt>
      <trkpt lat="42.1179606713" lon="-73.9385889911">
        <ele>45.730003</ele>
        <time>2022-10-10T09:22:54.000Z</time>
      </trkpt>
      <trkpt lat="42.118354338" lon="-73.9393249912">
        <ele>44.710007</ele>
        <time>2022-10-10T09:23:01.000Z</time>
      </trkpt>
      <trkpt lat="42.118736" lon="-73.940059">
        <ele>44.799998</ele>
        <time>2022-10-10T09:23:08.000Z</time>
      </trkpt>
      <trkpt lat="42.119151" lon="-73.940959">
        <ele>44.819993</ele>
        <time>2022-10-10T09:23:17.000Z</time>
      </trkpt>
      <trkpt lat="42.1194303378" lon="-73.941667327">
        <ele>44.450001</ele>
        <time>2022-10-10T09:23:24.000Z</time>
      </trkpt>
      <trkpt lat="42.1197216711" lon="-73.9423846604">
        <ele>44.380004</ele>
        <time>2022-10-10T09:23:31.000Z</time>
      </trkpt>
      <trkpt lat="42.119994" lon="-73.943092">
        <ele>44.41</ele>
        <time>2022-10-10T09:23:38.000Z</time>
      </trkpt>
      <trkpt lat="42.1202360018" lon="-73.9437299977">
        <ele>44.330001</ele>
        <time>2022-10-10T09:23:44.000Z</time>
      </trkpt>
      <trkpt lat="42.120486" lon="-73.944356">
        <ele>44.58</ele>
        <time>2022-10-10T09:23:50.000Z</time>
      </trkpt>
      <trkpt lat="42.120591" lon="-73.944716">
        <ele>44.999993</ele>
        <time>2022-10-10T09:23:53.000Z</time>
      </trkpt>
      <trkpt lat="42.120667" lon="-73.945151">
        <ele>47.309992</ele>
        <time>2022-10-10T09:23:57.000Z</time>
      </trkpt>
      <trkpt lat="42.12073" lon="-73.945291">
        <ele>47.860005</ele>
        <time>2022-10-10T09:23:58.000Z</time>
      </trkpt>
      <trkpt lat="42.120947" lon="-73.945592">
        <ele>47.399995</ele>
        <time>2022-10-10T09:24:01.000Z</time>
      </trkpt>
      <trkpt lat="42.12111" lon="-73.945959">
        <ele>47.300005</ele>
        <time>2022-10-10T09:24:05.000Z</time>
      </trkpt>
      <trkpt lat="42.121341" lon="-73.946551">
        <ele>46.419995</ele>
        <time>2022-10-10T09:24:11.000Z</time>
      </trkpt>
      <trkpt lat="42.1216380021" lon="-73.9472239971">
        <ele>46.099995</ele>
        <time>2022-10-10T09:24:17.000Z</time>
      </trkpt>
      <trkpt lat="42.121938" lon="-73.947894">
        <ele>46.659999</ele>
        <time>2022-10-10T09:24:23.000Z</time>
      </trkpt>
      <trkpt lat="42.122328" lon="-73.948662">
        <ele>50.469996</ele>
        <time>2022-10-10T09:24:31.000Z</time>
      </trkpt>
      <trkpt lat="42.122383" lon="-73.948429">
        <ele>50.459996</ele>
        <time>2022-10-10T09:24:33.000Z</time>
      </trkpt>
      <trkpt lat="42.122388" lon="-73.948434">
        <ele>50.459998</ele>
        <time>2022-10-10T09:24:33.000Z</time>
      </trkpt>
      <trkpt lat="42.122424" lon="-73.948197">
        <ele>50.440001</ele>
        <time>2022-10-10T09:24:35.000Z</time>
      </trkpt>
      <trkpt lat="42.122544" lon="-73.947853">
        <ele>50.160006</ele>
        <time>2022-10-10T09:24:38.000Z</time>
      </trkpt>
      <trkpt lat="42.122777" lon="-73.947566">
        <ele>50.219998</ele>
        <time>2022-10-10T09:24:42.000Z</time>
      </trkpt>
      <trkpt lat="42.123427" lon="-73.946951">
        <ele>50.780007</ele>
        <time>2022-10-10T09:24:51.000Z</time>
      </trkpt>
      <trkpt lat="42.123553" lon="-73.946789">
        <ele>51.250008</ele>
        <time>2022-10-10T09:24:53.000Z</time>
      </trkpt>
      <trkpt lat="42.123591" lon="-73.946672">
        <ele>51.810009</ele>
        <time>2022-10-10T09:24:54.000Z</time>
      </trkpt>
      <trkpt lat="42.123624" lon="-73.946508">
        <ele>52.889997</ele>
        <time>2022-10-10T09:24:55.000Z</time>
      </trkpt>
      <trkpt lat="42.1240560016" lon="-73.945889004">
        <ele>57.559995</ele>
        <time>2022-10-10T09:25:02.000Z</time>
      </trkpt>
      <trkpt lat="42.124485" lon="-73.945281">
        <ele>58.970005</ele>
        <time>2022-10-10T09:25:09.000Z</time>
      </trkpt>
      <trkpt lat="42.1250450017" lon="-73.9446700056">
        <ele>58.959995</ele>
        <time>2022-10-10T09:25:17.000Z</time>
      </trkpt>
      <trkpt lat="42.125618" lon="-73.944041">
        <ele>59.449999</ele>
        <time>2022-10-10T09:25:25.000Z</time>
      </trkpt>
      <trkpt lat="42.126163001" lon="-73.9435160047">
        <ele>59.419996</ele>
        <time>2022-10-10T09:25:32.000Z</time>
      </trkpt>
      <trkpt lat="42.126731" lon="-73.943004">
        <ele>57.019996</ele>
        <time>2022-10-10T09:25:40.000Z</time>
      </trkpt>
      <trkpt lat="42.127139" lon="-73.942745">
        <ele>55.79</ele>
        <time>2022-10-10T09:25:45.000Z</time>
      </trkpt>
      <trkpt lat="42.127569" lon="-73.942527">
        <ele>53.880006</ele>
        <time>2022-10-10T09:25:50.000Z</time>
      </trkpt>
      <trkpt lat="42.127893" lon="-73.942431">
        <ele>52.469994</ele>
        <time>2022-10-10T09:25:54.000Z</time>
      </trkpt>
      <trkpt lat="42.128652" lon="-73.942325">
        <ele>49.709999</ele>
        <time>2022-10-10T09:26:02.000Z</time>
      </trkpt>
      <trkpt lat="42.129507" lon="-73.942115">
        <ele>49.590003</ele>
        <time>2022-10-10T09:26:12.000Z</time>
      </trkpt>
      <trkpt lat="42.129624" lon="-73.942078">
        <ele>49.649992</ele>
        <time>2022-10-10T09:26:13.000Z</time>
      </trkpt>
      <trkpt lat="42.129815" lon="-73.941856">
        <ele>49.260007</ele>
        <time>2022-10-10T09:26:16.000Z</time>
      </trkpt>
      <trkpt lat="42.129869" lon="-73.941752">
        <ele>49.130005</ele>
        <time>2022-10-10T09:26:17.000Z</time>
      </trkpt>
      <trkpt lat="42.12992" lon="-73.941528">
        <ele>49.109991</ele>
        <time>2022-10-10T09:26:19.000Z</time>
      </trkpt>
      <trkpt lat="42.1300570054" lon="-73.9407483369">
        <ele>49.589996</ele>
        <time>2022-10-10T09:26:26.000Z</time>
      </trkpt>
      <trkpt lat="42.1302020053" lon="-73.9399626704">
        <ele>49.820006</ele>
        <time>2022-10-10T09:26:33.000Z</time>
      </trkpt>
      <trkpt lat="42.130349" lon="-73.939167">
        <ele>52.030004</ele>
        <time>2022-10-10T09:26:40.000Z</time>
      </trkpt>
      <trkpt lat="42.130383" lon="-73.939039">
        <ele>52.029993</ele>
        <time>2022-10-10T09:26:41.000Z</time>
      </trkpt>
      <trkpt lat="42.130608" lon="-73.93916">
        <ele>52.110005</ele>
        <time>2022-10-10T09:26:44.000Z</time>
      </trkpt>
      <trkpt lat="42.131117" lon="-73.9392429993">
        <ele>52.460006</ele>
        <time>2022-10-10T09:26:50.000Z</time>
      </trkpt>
      <trkpt lat="42.131634" lon="-73.939337">
        <ele>52.530007</ele>
        <time>2022-10-10T09:26:56.000Z</time>
      </trkpt>
      <trkpt lat="42.131765" lon="-73.93939">
        <ele>52.389996</ele>
        <time>2022-10-10T09:26:58.000Z</time>
      </trkpt>
      <trkpt lat="42.132012" lon="-73.939598">
        <ele>51.67</ele>
        <time>2022-10-10T09:27:01.000Z</time>
      </trkpt>
      <trkpt lat="42.132322" lon="-73.939952">
        <ele>49.869998</ele>
        <time>2022-10-10T09:27:06.000Z</time>
      </trkpt>
      <trkpt lat="42.132495" lon="-73.940226">
        <ele>49.370004</ele>
        <time>2022-10-10T09:27:09.000Z</time>
      </trkpt>
      <trkpt lat="42.132949" lon="-73.941086">
        <ele>48.920008</ele>
        <time>2022-10-10T09:27:18.000Z</time>
      </trkpt>
      <trkpt lat="42.133295" lon="-73.941701">
        <ele>50.030001</ele>
        <time>2022-10-10T09:27:24.000Z</time>
      </trkpt>
      <trkpt lat="42.133451" lon="-73.941988">
        <ele>51.979993</ele>
        <time>2022-10-10T09:27:27.000Z</time>
      </trkpt>
      <trkpt lat="42.133768" lon="-73.942259">
        <ele>54.630002</ele>
        <time>2022-10-10T09:27:31.000Z</time>
      </trkpt>
      <trkpt lat="42.133805" lon="-73.942344">
        <ele>54.550004</ele>
        <time>2022-10-10T09:27:32.000Z</time>
      </trkpt>
      <trkpt lat="42.134091" lon="-73.943409">
        <ele>49.78</ele>
        <time>2022-10-10T09:27:41.000Z</time>
      </trkpt>
      <trkpt lat="42.134168" lon="-73.943549">
        <ele>49.41</ele>
        <time>2022-10-10T09:27:42.000Z</time>
      </trkpt>
      <trkpt lat="42.134325" lon="-73.943739">
        <ele>48.250005</ele>
        <time>2022-10-10T09:27:44.000Z</time>
      </trkpt>
      <trkpt lat="42.134957" lon="-73.944349">
        <ele>48.459998</ele>
        <time>2022-10-10T09:27:53.000Z</time>
      </trkpt>
      <trkpt lat="42.1354130013" lon="-73.9448739964">
        <ele>48.949993</ele>
        <time>2022-10-10T09:28:00.000Z</time>
      </trkpt>
      <trkpt lat="42.135874" lon="-73.945389">
        <ele>49.970002</ele>
        <time>2022-10-10T09:28:07.000Z</time>
      </trkpt>
      <trkpt lat="42.136054" lon="-73.945511">
        <ele>50.849993</ele>
        <time>2022-10-10T09:28:09.000Z</time>
      </trkpt>
      <trkpt lat="42.136195" lon="-73.945568">
        <ele>51.580005</ele>
        <time>2022-10-10T09:28:11.000Z</time>
      </trkpt>
      <trkpt lat="42.136349" lon="-73.945602">
        <ele>52.07</ele>
        <time>2022-10-10T09:28:13.000Z</time>
      </trkpt>
      <trkpt lat="42.136995" lon="-73.945338">
        <ele>52.499996</ele>
        <time>2022-10-10T09:28:21.000Z</time>
      </trkpt>
      <trkpt lat="42.137117" lon="-73.945349">
        <ele>52.21</ele>
        <time>2022-10-10T09:28:22.000Z</time>
      </trkpt>
      <trkpt lat="42.137231" lon="-73.945361">
        <ele>51.93</ele>
        <time>2022-10-10T09:28:23.000Z</time>
      </trkpt>
      <trkpt lat="42.137354" lon="-73.945423">
        <ele>51.930001</ele>
        <time>2022-10-10T09:28:24.000Z</time>
      </trkpt>
      <trkpt lat="42.137456" lon="-73.945568">
        <ele>50.800007</ele>
        <time>2022-10-10T09:28:26.000Z</time>
      </trkpt>
      <trkpt lat="42.137565" lon="-73.94578">
        <ele>50.010004</ele>
        <time>2022-10-10T09:28:28.000Z</time>
      </trkpt>
      <trkpt lat="42.13783" lon="-73.946582">
        <ele>48.490003</ele>
        <time>2022-10-10T09:28:35.000Z</time>
      </trkpt>
      <trkpt lat="42.1382190175" lon="-73.9474696387">
        <ele>49.140006</ele>
        <time>2022-10-10T09:28:44.000Z</time>
      </trkpt>
      <trkpt lat="42.1386130279" lon="-73.9483702886">
        <ele>52.44</ele>
        <time>2022-10-10T09:28:53.000Z</time>
      </trkpt>
      <trkpt lat="42.1390240314" lon="-73.9492649496">
        <ele>54.340008</ele>
        <time>2022-10-10T09:29:02.000Z</time>
      </trkpt>
      <trkpt lat="42.1394040279" lon="-73.9501746219">
        <ele>52.890002</ele>
        <time>2022-10-10T09:29:11.000Z</time>
      </trkpt>
      <trkpt lat="42.1397960174" lon="-73.9510673053">
        <ele>49.879999</ele>
        <time>2022-10-10T09:29:20.000Z</time>
      </trkpt>
      <trkpt lat="42.140194" lon="-73.951963">
        <ele>50.070004</ele>
        <time>2022-10-10T09:29:29.000Z</time>
      </trkpt>
      <trkpt lat="42.140474" lon="-73.952396">
        <ele>49.939995</ele>
        <time>2022-10-10T09:29:34.000Z</time>
      </trkpt>
      <trkpt lat="42.1409230016" lon="-73.9530289953">
        <ele>49.870009</ele>
        <time>2022-10-10T09:29:41.000Z</time>
      </trkpt>
      <trkpt lat="42.141386" lon="-73.953663">
        <ele>50.459994</ele>
        <time>2022-10-10T09:29:48.000Z</time>
      </trkpt>
      <trkpt lat="42.141774" lon="-73.95376">
        <ele>50.949992</ele>
        <time>2022-10-10T09:29:52.000Z</time>
      </trkpt>
      <trkpt lat="42.141811" lon="-73.953861">
        <ele>50.930001</ele>
        <time>2022-10-10T09:29:53.000Z</time>
      </trkpt>
      <trkpt lat="42.141783" lon="-73.953767">
        <ele>50.949994</ele>
        <time>2022-10-10T09:29:54.000Z</time>
      </trkpt>
      <trkpt lat="42.141392" lon="-73.953661">
        <ele>50.459998</ele>
        <time>2022-10-10T09:29:58.000Z</time>
      </trkpt>
      <trkpt lat="42.1407680001" lon="-73.9538600021">
        <ele>50.430003</ele>
        <time>2022-10-10T09:30:05.000Z</time>
      </trkpt>
      <trkpt lat="42.140156" lon="-73.954075">
        <ele>51.250005</ele>
        <time>2022-10-10T09:30:12.000Z</time>
      </trkpt>
      <trkpt lat="42.139854" lon="-73.954244">
        <ele>51.749992</ele>
        <time>2022-10-10T09:30:16.000Z</time>
      </trkpt>
      <trkpt lat="42.139398" lon="-73.954635">
        <ele>52.629998</ele>
        <time>2022-10-10T09:30:22.000Z</time>
      </trkpt>
      <trkpt lat="42.1387450004" lon="-73.954934003">
        <ele>54.000009</ele>
        <time>2022-10-10T09:30:30.000Z</time>
      </trkpt>
      <trkpt lat="42.138101" lon="-73.955212">
        <ele>55.349996</ele>
        <time>2022-10-10T09:30:38.000Z</time>
      </trkpt>
      <trkpt lat="42.137398" lon="-73.955411">
        <ele>57.769998</ele>
        <time>2022-10-10T09:30:46.000Z</time>
      </trkpt>
      <trkpt lat="42.137158" lon="-73.955432">
        <ele>60.310001</ele>
        <time>2022-10-10T09:30:49.000Z</time>
      </trkpt>
      <trkpt lat="42.136589" lon="-73.955587">
        <ele>60.889996</ele>
        <time>2022-10-10T09:30:55.000Z</time>
      </trkpt>
      <trkpt lat="42.136292" lon="-73.955666">
        <ele>61.410008</ele>
        <time>2022-10-10T09:30:58.000Z</time>
      </trkpt>
      <trkpt lat="42.136008" lon="-73.955766">
        <ele>61.409992</ele>
        <time>2022-10-10T09:31:01.000Z</time>
      </trkpt>
      <trkpt lat="42.135593" lon="-73.956027">
        <ele>62.270003</ele>
        <time>2022-10-10T09:31:06.000Z</time>
      </trkpt>
      <trkpt lat="42.1351170003" lon="-73.9563440025">
        <ele>63.880004</ele>
        <time>2022-10-10T09:31:12.000Z</time>
      </trkpt>
      <trkpt lat="42.134624" lon="-73.956659">
        <ele>64.560004</ele>
        <time>2022-10-10T09:31:18.000Z</time>
      </trkpt>
      <trkpt lat="42.133853" lon="-73.957037">
        <ele>64.209992</ele>
        <time>2022-10-10T09:31:27.000Z</time>
      </trkpt>
      <trkpt lat="42.133487" lon="-73.957173">
        <ele>64.489998</ele>
        <time>2022-10-10T09:31:31.000Z</time>
      </trkpt>
      <trkpt lat="42.133227" lon="-73.957256">
        <ele>64.479994</ele>
        <time>2022-10-10T09:31:34.000Z</time>
      </trkpt>
      <trkpt lat="42.132846" lon="-73.957293">
        <ele>64.990008</ele>
        <time>2022-10-10T09:31:38.000Z</time>
      </trkpt>
      <trkpt lat="42.132565" lon="-73.957357">
        <ele>65.859993</ele>
        <time>2022-10-10T09:31:41.000Z</time>
      </trkpt>
      <trkpt lat="42.13235" lon="-73.957429">
        <ele>66.889992</ele>
        <time>2022-10-10T09:31:43.000Z</time>
      </trkpt>
      <trkpt lat="42.131735" lon="-73.957699">
        <ele>69.780005</ele>
        <time>2022-10-10T09:31:50.000Z</time>
      </trkpt>
      <trkpt lat="42.131176" lon="-73.957961">
        <ele>70.260003</ele>
        <time>2022-10-10T09:31:57.000Z</time>
      </trkpt>
      <trkpt lat="42.130895" lon="-73.958133">
        <ele>70.470007</ele>
        <time>2022-10-10T09:32:00.000Z</time>
      </trkpt>
      <trkpt lat="42.13039" lon="-73.958589">
        <ele>72.579994</ele>
        <time>2022-10-10T09:32:07.000Z</time>
      </trkpt>
      <trkpt lat="42.130252" lon="-73.958637">
        <ele>74.149993</ele>
        <time>2022-10-10T09:32:09.000Z</time>
      </trkpt>
      <trkpt lat="42.130051" lon="-73.958682">
        <ele>75.229999</ele>
        <time>2022-10-10T09:32:11.000Z</time>
      </trkpt>
      <trkpt lat="42.1293260001" lon="-73.9587520007">
        <ele>75.290004</ele>
        <time>2022-10-10T09:32:19.000Z</time>
      </trkpt>
      <trkpt lat="42.1286" lon="-73.958803">
        <ele>74.510007</ele>
        <time>2022-10-10T09:32:27.000Z</time>
      </trkpt>
      <trkpt lat="42.127913" lon="-73.958889">
        <ele>74.560001</ele>
        <time>2022-10-10T09:32:35.000Z</time>
      </trkpt>
      <trkpt lat="42.127674" lon="-73.958943">
        <ele>74.540004</ele>
        <time>2022-10-10T09:32:38.000Z</time>
      </trkpt>
      <trkpt lat="42.1271380002" lon="-73.9591770019">
        <ele>74.359998</ele>
        <time>2022-10-10T09:32:44.000Z</time>
      </trkpt>
      <trkpt lat="42.126606" lon="-73.959398">
        <ele>74.060006</ele>
        <time>2022-10-10T09:32:50.000Z</time>
      </trkpt>
      <trkpt lat="42.126889" lon="-73.959714">
        <ele>74.139998</ele>
        <time>2022-10-10T09:32:54.000Z</time>
      </trkpt>
      <trkpt lat="42.127029" lon="-73.959804">
        <ele>73.929998</ele>
        <time>2022-10-10T09:32:56.000Z</time>
      </trkpt>
      <trkpt lat="42.1275140005" lon="-73.9600829981">
        <ele>71.649992</ele>
        <time>2022-10-10T09:33:02.000Z</time>
      </trkpt>
      <trkpt lat="42.127999" lon="-73.960351">
        <ele>70.930006</ele>
        <time>2022-10-10T09:33:08.000Z</time>
      </trkpt>
      <trkpt lat="42.1285220003" lon="-73.9606079978">
        <ele>69.229998</ele>
        <time>2022-10-10T09:33:14.000Z</time>
      </trkpt>
      <trkpt lat="42.129044" lon="-73.960877">
        <ele>66.400004</ele>
        <time>2022-10-10T09:33:20.000Z</time>
      </trkpt>
      <trkpt lat="42.129637" lon="-73.961054">
        <ele>64.669997</ele>
        <time>2022-10-10T09:33:27.000Z</time>
      </trkpt>
      <trkpt lat="42.130173" lon="-73.961094">
        <ele>62.390006</ele>
        <time>2022-10-10T09:33:33.000Z</time>
      </trkpt>
      <trkpt lat="42.130466" lon="-73.961146">
        <ele>60.769994</ele>
        <time>2022-10-10T09:33:36.000Z</time>
      </trkpt>
      <trkpt lat="42.130581" lon="-73.961184">
        <ele>59.66</ele>
        <time>2022-10-10T09:33:37.000Z</time>
      </trkpt>
      <trkpt lat="42.13119" lon="-73.961516">
        <ele>57.070004</ele>
        <time>2022-10-10T09:33:44.000Z</time>
      </trkpt>
      <trkpt lat="42.131443" lon="-73.961635">
        <ele>55.379999</ele>
        <time>2022-10-10T09:33:47.000Z</time>
      </trkpt>
      <trkpt lat="42.13171" lon="-73.961684">
        <ele>54.370001</ele>
        <time>2022-10-10T09:33:50.000Z</time>
      </trkpt>
      <trkpt lat="42.132041" lon="-73.961716">
        <ele>53.239996</ele>
        <time>2022-10-10T09:33:54.000Z</time>
      </trkpt>
      <trkpt lat="42.132318" lon="-73.961682">
        <ele>52.730001</ele>
        <time>2022-10-10T09:33:57.000Z</time>
      </trkpt>
      <trkpt lat="42.133153" lon="-73.961405">
        <ele>49.580007</ele>
        <time>2022-10-10T09:34:07.000Z</time>
      </trkpt>
      <trkpt lat="42.133272" lon="-73.961417">
        <ele>49.090002</ele>
        <time>2022-10-10T09:34:08.000Z</time>
      </trkpt>
      <trkpt lat="42.133353" lon="-73.961458">
        <ele>48.819991</ele>
        <time>2022-10-10T09:34:09.000Z</time>
      </trkpt>
      <trkpt lat="42.133425" lon="-73.961499">
        <ele>48.620008</ele>
        <time>2022-10-10T09:34:10.000Z</time>
      </trkpt>
      <trkpt lat="42.133471" lon="-73.961596">
        <ele>48.619993</ele>
        <time>2022-10-10T09:34:11.000Z</time>
      </trkpt>
      <trkpt lat="42.133532" lon="-73.961904">
        <ele>48.119998</ele>
        <time>2022-10-10T09:34:14.000Z</time>
      </trkpt>
      <trkpt lat="42.1335680047" lon="-73.9629429996">
        <ele>47.589992</ele>
        <time>2022-10-10T09:34:23.000Z</time>
      </trkpt>
      <trkpt lat="42.133582" lon="-73.963972">
        <ele>46.779994</ele>
        <time>2022-10-10T09:34:31.000Z</time>
      </trkpt>
      <trkpt lat="42.133584" lon="-73.963897">
        <ele>46.969995</ele>
        <time>2022-10-10T09:34:32.000Z</time>
      </trkpt>
      <trkpt lat="42.133597" lon="-73.964137">
        <ele>46.349993</ele>
        <time>2022-10-10T09:34:34.000Z</time>
      </trkpt>
      <trkpt lat="42.133672" lon="-73.96451">
        <ele>44.900008</ele>
        <time>2022-10-10T09:34:37.000Z</time>
      </trkpt>
      <trkpt lat="42.133878" lon="-73.965208">
        <ele>38.189994</ele>
        <time>2022-10-10T09:34:43.000Z</time>
      </trkpt>
      <trkpt lat="42.133945" lon="-73.965431">
        <ele>36.34</ele>
        <time>2022-10-10T09:34:45.000Z</time>
      </trkpt>
      <trkpt lat="42.134024" lon="-73.965518">
        <ele>35.320006</ele>
        <time>2022-10-10T09:34:46.000Z</time>
      </trkpt>
      <trkpt lat="42.134128" lon="-73.965566">
        <ele>34.760001</ele>
        <time>2022-10-10T09:34:47.000Z</time>
      </trkpt>
      <trkpt lat="42.134853501" lon="-73.9658449903">
        <ele>33.680003</ele>
        <time>2022-10-10T09:34:55.000Z</time>
      </trkpt>
      <trkpt lat="42.1355810013" lon="-73.966136987">
        <ele>34.779992</ele>
        <time>2022-10-10T09:35:03.000Z</time>
      </trkpt>
      <trkpt lat="42.136323501" lon="-73.9664119903">
        <ele>36.140008</ele>
        <time>2022-10-10T09:35:12.000Z</time>
      </trkpt>
      <trkpt lat="42.137048" lon="-73.966696">
        <ele>42.239999</ele>
        <time>2022-10-10T09:35:20.000Z</time>
      </trkpt>
      <trkpt lat="42.137844" lon="-73.967246">
        <ele>52.840003</ele>
        <time>2022-10-10T09:35:30.000Z</time>
      </trkpt>
      <trkpt lat="42.137949" lon="-73.96741">
        <ele>53.099998</ele>
        <time>2022-10-10T09:35:32.000Z</time>
      </trkpt>
      <trkpt lat="42.137965" lon="-73.967584">
        <ele>53.16</ele>
        <time>2022-10-10T09:35:33.000Z</time>
      </trkpt>
      <trkpt lat="42.137937" lon="-73.967778">
        <ele>53.070008</ele>
        <time>2022-10-10T09:35:35.000Z</time>
      </trkpt>
      <trkpt lat="42.137832" lon="-73.968089">
        <ele>52.730009</ele>
        <time>2022-10-10T09:35:38.000Z</time>
      </trkpt>
      <trkpt lat="42.1375740022" lon="-73.9687700029">
        <ele>52.619998</ele>
        <time>2022-10-10T09:35:44.000Z</time>
      </trkpt>
      <trkpt lat="42.137299" lon="-73.969477">
        <ele>53.050002</ele>
        <time>2022-10-10T09:35:51.000Z</time>
      </trkpt>
      <trkpt lat="42.137165" lon="-73.969659">
        <ele>53.230001</ele>
        <time>2022-10-10T09:35:53.000Z</time>
      </trkpt>
      <trkpt lat="42.137052" lon="-73.969799">
        <ele>53.780005</ele>
        <time>2022-10-10T09:35:55.000Z</time>
      </trkpt>
      <trkpt lat="42.136561" lon="-73.970049">
        <ele>55.770005</ele>
        <time>2022-10-10T09:36:01.000Z</time>
      </trkpt>
      <trkpt lat="42.136361" lon="-73.970184">
        <ele>56.030002</ele>
        <time>2022-10-10T09:36:03.000Z</time>
      </trkpt>
      <trkpt lat="42.135765" lon="-73.970817">
        <ele>57.189998</ele>
        <time>2022-10-10T09:36:11.000Z</time>
      </trkpt>
      <trkpt lat="42.135591" lon="-73.971061">
        <ele>58.389999</ele>
        <time>2022-10-10T09:36:14.000Z</time>
      </trkpt>
      <trkpt lat="42.135512" lon="-73.971218">
        <ele>58.769992</ele>
        <time>2022-10-10T09:36:16.000Z</time>
      </trkpt>
      <trkpt lat="42.135419" lon="-73.971451">
        <ele>59.509997</ele>
        <time>2022-10-10T09:36:18.000Z</time>
      </trkpt>
      <trkpt lat="42.13536" lon="-73.971765">
        <ele>61.220009</ele>
        <time>2022-10-10T09:36:21.000Z</time>
      </trkpt>
      <trkpt lat="42.135353" lon="-73.972017">
        <ele>62.200001</ele>
        <time>2022-10-10T09:36:23.000Z</time>
      </trkpt>
      <trkpt lat="42.135427" lon="-73.972554">
        <ele>66.410002</ele>
        <time>2022-10-10T09:36:28.000Z</time>
      </trkpt>
      <trkpt lat="42.135438" lon="-73.972996">
        <ele>71.019997</ele>
        <time>2022-10-10T09:36:32.000Z</time>
      </trkpt>
      <trkpt lat="42.135457" lon="-73.973098">
        <ele>73.400002</ele>
        <time>2022-10-10T09:36:33.000Z</time>
      </trkpt>
      <trkpt lat="42.135545" lon="-73.973315">
        <ele>76.399997</ele>
        <time>2022-10-10T09:36:35.000Z</time>
      </trkpt>
      <trkpt lat="42.135881" lon="-73.973721">
        <ele>81.849998</ele>
        <time>2022-10-10T09:36:40.000Z</time>
      </trkpt>
      <trkpt lat="42.136171" lon="-73.973996">
        <ele>85.130008</ele>
        <time>2022-10-10T09:36:44.000Z</time>
      </trkpt>
      <trkpt lat="42.136251" lon="-73.974079">
        <ele>85.130002</ele>
        <time>2022-10-10T09:36:45.000Z</time>
      </trkpt>
      <trkpt lat="42.136353" lon="-73.974301">
        <ele>86.679997</ele>
        <time>2022-10-10T09:36:47.000Z</time>
      </trkpt>
      <trkpt lat="42.136515" lon="-73.975289">
        <ele>86.580001</ele>
        <time>2022-10-10T09:36:55.000Z</time>
      </trkpt>
      <trkpt lat="42.136536" lon="-73.976354">
        <ele>89.939997</ele>
        <time>2022-10-10T09:37:04.000Z</time>
      </trkpt>
      <trkpt lat="42.136628" lon="-73.977474">
        <ele>91.400006</ele>
        <time>2022-10-10T09:37:13.000Z</time>
      </trkpt>
      <trkpt lat="42.136668" lon="-73.978413">
        <ele>91.959998</ele>
        <time>2022-10-10T09:37:21.000Z</time>
      </trkpt>
      <trkpt lat="42.136513" lon="-73.979261">
        <ele>90.720009</ele>
        <time>2022-10-10T09:37:28.000Z</time>
      </trkpt>
      <trkpt lat="42.136503" lon="-73.979733">
        <ele>91.639996</ele>
        <time>2022-10-10T09:37:32.000Z</time>
      </trkpt>
      <trkpt lat="42.136568" lon="-73.980449">
        <ele>93.520007</ele>
        <time>2022-10-10T09:37:38.000Z</time>
      </trkpt>
      <trkpt lat="42.136602" lon="-73.980563">
        <ele>93.519992</ele>
        <time>2022-10-10T09:37:39.000Z</time>
      </trkpt>
      <trkpt lat="42.136825" lon="-73.980975">
        <ele>94.379994</ele>
        <time>2022-10-10T09:37:43.000Z</time>
      </trkpt>
      <trkpt lat="42.136969" lon="-73.981201">
        <ele>95.060004</ele>
        <time>2022-10-10T09:37:45.000Z</time>
      </trkpt>
      <trkpt lat="42.137347" lon="-73.981693">
        <ele>96.580007</ele>
        <time>2022-10-10T09:37:51.000Z</time>
      </trkpt>
      <trkpt lat="42.137661" lon="-73.982224">
        <ele>98.949991</ele>
        <time>2022-10-10T09:37:57.000Z</time>
      </trkpt>
      <trkpt lat="42.138006" lon="-73.982637">
        <ele>102.69</ele>
        <time>2022-10-10T09:38:02.000Z</time>
      </trkpt>
      <trkpt lat="42.138061" lon="-73.98278">
        <ele>102.809994</ele>
        <time>2022-10-10T09:38:03.000Z</time>
      </trkpt>
      <trkpt lat="42.138225" lon="-73.983355">
        <ele>101.919999</ele>
        <time>2022-10-10T09:38:08.000Z</time>
      </trkpt>
      <trkpt lat="42.138513" lon="-73.984157">
        <ele>97.549994</ele>
        <time>2022-10-10T09:38:15.000Z</time>
      </trkpt>
      <trkpt lat="42.138592" lon="-73.984281">
        <ele>97.590008</ele>
        <time>2022-10-10T09:38:16.000Z</time>
      </trkpt>
      <trkpt lat="42.138864" lon="-73.984598">
        <ele>98.270003</ele>
        <time>2022-10-10T09:38:20.000Z</time>
      </trkpt>
      <trkpt lat="42.138984" lon="-73.984742">
        <ele>98.529995</ele>
        <time>2022-10-10T09:38:22.000Z</time>
      </trkpt>
      <trkpt lat="42.139204" lon="-73.985197">
        <ele>97.960006</ele>
        <time>2022-10-10T09:38:26.000Z</time>
      </trkpt>
      <trkpt lat="42.13934" lon="-73.985347">
        <ele>97.750009</ele>
        <time>2022-10-10T09:38:28.000Z</time>
      </trkpt>
      <trkpt lat="42.139771" lon="-73.985629">
        <ele>97.340008</ele>
        <time>2022-10-10T09:38:33.000Z</time>
      </trkpt>
      <trkpt lat="42.140238" lon="-73.985727">
        <ele>97.880007</ele>
        <time>2022-10-10T09:38:38.000Z</time>
      </trkpt>
      <trkpt lat="42.140385" lon="-73.985718">
        <ele>98.750002</ele>
        <time>2022-10-10T09:38:40.000Z</time>
      </trkpt>
      <trkpt lat="42.140682" lon="-73.985688">
        <ele>99.250004</ele>
        <time>2022-10-10T09:38:43.000Z</time>
      </trkpt>
      <trkpt lat="42.140814" lon="-73.985702">
        <ele>99.319999</ele>
        <time>2022-10-10T09:38:44.000Z</time>
      </trkpt>
      <trkpt lat="42.140949" lon="-73.985794">
        <ele>99.319997</ele>
        <time>2022-10-10T09:38:46.000Z</time>
      </trkpt>
      <trkpt lat="42.140982" lon="-73.9859">
        <ele>99.219998</ele>
        <time>2022-10-10T09:38:47.000Z</time>
      </trkpt>
      <trkpt lat="42.141095" lon="-73.986473">
        <ele>98.359992</ele>
        <time>2022-10-10T09:38:52.000Z</time>
      </trkpt>
      <trkpt lat="42.141331" lon="-73.987506">
        <ele>98.57</ele>
        <time>2022-10-10T09:39:01.000Z</time>
      </trkpt>
      <trkpt lat="42.141480005" lon="-73.9885839974">
        <ele>100.930009</ele>
        <time>2022-10-10T09:39:10.000Z</time>
      </trkpt>
      <trkpt lat="42.141629" lon="-73.989657">
        <ele>104.289991</ele>
        <time>2022-10-10T09:39:19.000Z</time>
      </trkpt>
      <trkpt lat="42.141867" lon="-73.989536">
        <ele>104.630005</ele>
        <time>2022-10-10T09:39:22.000Z</time>
      </trkpt>
      <trkpt lat="42.14224" lon="-73.989289">
        <ele>105.610008</ele>
        <time>2022-10-10T09:39:27.000Z</time>
      </trkpt>
      <trkpt lat="42.142518" lon="-73.989168">
        <ele>105.920009</ele>
        <time>2022-10-10T09:39:30.000Z</time>
      </trkpt>
      <trkpt lat="42.143273" lon="-73.988984">
        <ele>105.780005</ele>
        <time>2022-10-10T09:39:39.000Z</time>
      </trkpt>
      <trkpt lat="42.143418" lon="-73.98891">
        <ele>105.719998</ele>
        <time>2022-10-10T09:39:41.000Z</time>
      </trkpt>
      <trkpt lat="42.143789" lon="-73.988765">
        <ele>105.849998</ele>
        <time>2022-10-10T09:39:45.000Z</time>
      </trkpt>
      <trkpt lat="42.144019" lon="-73.988698">
        <ele>106.070005</ele>
        <time>2022-10-10T09:39:48.000Z</time>
      </trkpt>
      <trkpt lat="42.144273" lon="-73.988674">
        <ele>106.019995</ele>
        <time>2022-10-10T09:39:51.000Z</time>
      </trkpt>
      <trkpt lat="42.1447260001" lon="-73.9884700015">
        <ele>105.700006</ele>
        <time>2022-10-10T09:39:56.000Z</time>
      </trkpt>
      <trkpt lat="42.145179" lon="-73.988266">
        <ele>106.379993</ele>
        <time>2022-10-10T09:40:01.000Z</time>
      </trkpt>
      <trkpt lat="42.145302" lon="-73.988289">
        <ele>107.179999</ele>
        <time>2022-10-10T09:40:02.000Z</time>
      </trkpt>
      <trkpt lat="42.145623" lon="-73.988487">
        <ele>109.150004</ele>
        <time>2022-10-10T09:40:06.000Z</time>
      </trkpt>
      <trkpt lat="42.145854" lon="-73.98859">
        <ele>109.809991</ele>
        <time>2022-10-10T09:40:09.000Z</time>
      </trkpt>
      <trkpt lat="42.146356" lon="-73.988414">
        <ele>110.399996</ele>
        <time>2022-10-10T09:40:15.000Z</time>
      </trkpt>
      <trkpt lat="42.14699" lon="-73.988266">
        <ele>111.509998</ele>
        <time>2022-10-10T09:40:22.000Z</time>
      </trkpt>
      <trkpt lat="42.1476" lon="-73.98797">
        <ele>111.889999</ele>
        <time>2022-10-10T09:40:29.000Z</time>
      </trkpt>
      <trkpt lat="42.147602" lon="-73.987988">
        <ele>111.889998</ele>
        <time>2022-10-10T09:40:29.000Z</time>
      </trkpt>
      <trkpt lat="42.1482200005" lon="-73.9876850029">
        <ele>111.259993</ele>
        <time>2022-10-10T09:40:36.000Z</time>
      </trkpt>
      <trkpt lat="42.148848" lon="-73.987386">
        <ele>111.06</ele>
        <time>2022-10-10T09:40:43.000Z</time>
      </trkpt>
      <trkpt lat="42.149359" lon="-73.987155">
        <ele>111.069996</ele>
        <time>2022-10-10T09:40:49.000Z</time>
      </trkpt>
      <trkpt lat="42.149556" lon="-73.987024">
        <ele>110.79</ele>
        <time>2022-10-10T09:40:51.000Z</time>
      </trkpt>
      <trkpt lat="42.149694" lon="-73.986939">
        <ele>110.429994</ele>
        <time>2022-10-10T09:40:53.000Z</time>
      </trkpt>
      <trkpt lat="42.149776" lon="-73.986841">
        <ele>110.090001</ele>
        <time>2022-10-10T09:40:54.000Z</time>
      </trkpt>
      <trkpt lat="42.149954" lon="-73.986389">
        <ele>108.620004</ele>
        <time>2022-10-10T09:40:58.000Z</time>
      </trkpt>
      <trkpt lat="42.150124" lon="-73.986048">
        <ele>107.569995</ele>
        <time>2022-10-10T09:41:01.000Z</time>
      </trkpt>
      <trkpt lat="42.150304" lon="-73.985817">
        <ele>107.029999</ele>
        <time>2022-10-10T09:41:04.000Z</time>
      </trkpt>
      <trkpt lat="42.150748" lon="-73.985402">
        <ele>106.700008</ele>
        <time>2022-10-10T09:41:10.000Z</time>
      </trkpt>
      <trkpt lat="42.15115" lon="-73.984907">
        <ele>107.390007</ele>
        <time>2022-10-10T09:41:16.000Z</time>
      </trkpt>
      <trkpt lat="42.151625" lon="-73.984673">
        <ele>107.179992</ele>
        <time>2022-10-10T09:41:22.000Z</time>
      </trkpt>
      <trkpt lat="42.151738" lon="-73.984587">
        <ele>106.659995</ele>
        <time>2022-10-10T09:41:23.000Z</time>
      </trkpt>
      <trkpt lat="42.152057" lon="-73.984115">
        <ele>104.800006</ele>
        <time>2022-10-10T09:41:28.000Z</time>
      </trkpt>
      <trkpt lat="42.1522" lon="-73.983977">
        <ele>104.640006</ele>
        <time>2022-10-10T09:41:30.000Z</time>
      </trkpt>
      <trkpt lat="42.1528160012" lon="-73.9834410052">
        <ele>104.009991</ele>
        <time>2022-10-10T09:41:38.000Z</time>
      </trkpt>
      <trkpt lat="42.153417" lon="-73.982899">
        <ele>104.020005</ele>
        <time>2022-10-10T09:41:46.000Z</time>
      </trkpt>
      <trkpt lat="42.153993" lon="-73.982494">
        <ele>102.530007</ele>
        <time>2022-10-10T09:41:53.000Z</time>
      </trkpt>
      <trkpt lat="42.154238" lon="-73.982323">
        <ele>100.059997</ele>
        <time>2022-10-10T09:41:56.000Z</time>
      </trkpt>
      <trkpt lat="42.154485" lon="-73.982046">
        <ele>96.969995</ele>
        <time>2022-10-10T09:42:00.000Z</time>
      </trkpt>
      <trkpt lat="42.1548550009" lon="-73.9815510029">
        <ele>92.910003</ele>
        <time>2022-10-10T09:42:06.000Z</time>
      </trkpt>
      <trkpt lat="42.155206" lon="-73.981062">
        <ele>91.790004</ele>
        <time>2022-10-10T09:42:12.000Z</time>
      </trkpt>
      <trkpt lat="42.155745" lon="-73.980589">
        <ele>92.229994</ele>
        <time>2022-10-10T09:42:19.000Z</time>
      </trkpt>
      <trkpt lat="42.1561730006" lon="-73.9802530023">
        <ele>93.599995</ele>
        <time>2022-10-10T09:42:25.000Z</time>
      </trkpt>
      <trkpt lat="42.156606" lon="-73.979895">
        <ele>92.860009</ele>
        <time>2022-10-10T09:42:31.000Z</time>
      </trkpt>
      <trkpt lat="42.156796" lon="-73.979717">
        <ele>90.479993</ele>
        <time>2022-10-10T09:42:34.000Z</time>
      </trkpt>
      <trkpt lat="42.1569" lon="-73.979542">
        <ele>89.689994</ele>
        <time>2022-10-10T09:42:36.000Z</time>
      </trkpt>
      <trkpt lat="42.157222" lon="-73.978839">
        <ele>86.26</ele>
        <time>2022-10-10T09:42:43.000Z</time>
      </trkpt>
      <trkpt lat="42.157337" lon="-73.978646">
        <ele>86.109991</ele>
        <time>2022-10-10T09:42:45.000Z</time>
      </trkpt>
      <trkpt lat="42.157481" lon="-73.978513">
        <ele>86.259993</ele>
        <time>2022-10-10T09:42:47.000Z</time>
      </trkpt>
      <trkpt lat="42.157556" lon="-73.978479">
        <ele>86.569994</ele>
        <time>2022-10-10T09:42:48.000Z</time>
      </trkpt>
      <trkpt lat="42.158283" lon="-73.978348">
        <ele>90.209995</ele>
        <time>2022-10-10T09:42:56.000Z</time>
      </trkpt>
      <trkpt lat="42.1588800002" lon="-73.9781770015">
        <ele>92.469998</ele>
        <time>2022-10-10T09:43:03.000Z</time>
      </trkpt>
      <trkpt lat="42.15949" lon="-73.978016">
        <ele>94.269997</ele>
        <time>2022-10-10T09:43:10.000Z</time>
      </trkpt>
      <trkpt lat="42.159721" lon="-73.977922">
        <ele>93.840001</ele>
        <time>2022-10-10T09:43:13.000Z</time>
      </trkpt>
      <trkpt lat="42.159716" lon="-73.977925">
        <ele>93.860008</ele>
        <time>2022-10-10T09:43:13.000Z</time>
      </trkpt>
      <trkpt lat="42.160469" lon="-73.977527">
        <ele>93.779996</ele>
        <time>2022-10-10T09:43:22.000Z</time>
      </trkpt>
      <trkpt lat="42.160908" lon="-73.977368">
        <ele>93.560007</ele>
        <time>2022-10-10T09:43:27.000Z</time>
      </trkpt>
      <trkpt lat="42.161154" lon="-73.97721">
        <ele>91.870006</ele>
        <time>2022-10-10T09:43:30.000Z</time>
      </trkpt>
      <trkpt lat="42.161448" lon="-73.976895">
        <ele>90.350001</ele>
        <time>2022-10-10T09:43:34.000Z</time>
      </trkpt>
      <trkpt lat="42.161401" lon="-73.976762">
        <ele>89.350006</ele>
        <time>2022-10-10T09:43:35.000Z</time>
      </trkpt>
      <trkpt lat="42.161391" lon="-73.976593">
        <ele>87.560007</ele>
        <time>2022-10-10T09:43:36.000Z</time>
      </trkpt>
      <trkpt lat="42.161413" lon="-73.976442">
        <ele>84.919997</ele>
        <time>2022-10-10T09:43:37.000Z</time>
      </trkpt>
      <trkpt lat="42.161642" lon="-73.975911">
        <ele>81.619994</ele>
        <time>2022-10-10T09:43:42.000Z</time>
      </trkpt>
      <trkpt lat="42.161729" lon="-73.975694">
        <ele>80.919992</ele>
        <time>2022-10-10T09:43:44.000Z</time>
      </trkpt>
      <trkpt lat="42.161753" lon="-73.975283">
        <ele>80.650008</ele>
        <time>2022-10-10T09:43:47.000Z</time>
      </trkpt>
      <trkpt lat="42.161654" lon="-73.974649">
        <ele>83.529994</ele>
        <time>2022-10-10T09:43:52.000Z</time>
      </trkpt>
      <trkpt lat="42.161671" lon="-73.97403">
        <ele>88.680002</ele>
        <time>2022-10-10T09:43:57.000Z</time>
      </trkpt>
      <trkpt lat="42.161731" lon="-73.973708">
        <ele>86.529995</ele>
        <time>2022-10-10T09:44:00.000Z</time>
      </trkpt>
      <trkpt lat="42.161979" lon="-73.973312">
        <ele>84.180003</ele>
        <time>2022-10-10T09:44:04.000Z</time>
      </trkpt>
      <trkpt lat="42.162045" lon="-73.973171">
        <ele>84.069997</ele>
        <time>2022-10-10T09:44:05.000Z</time>
      </trkpt>
      <trkpt lat="42.162035" lon="-73.972974">
        <ele>84.230006</ele>
        <time>2022-10-10T09:44:07.000Z</time>
      </trkpt>
      <trkpt lat="42.161975" lon="-73.972601">
        <ele>84.930002</ele>
        <time>2022-10-10T09:44:10.000Z</time>
      </trkpt>
      <trkpt lat="42.161976" lon="-73.972494">
        <ele>84.930006</ele>
        <time>2022-10-10T09:44:11.000Z</time>
      </trkpt>
      <trkpt lat="42.161837" lon="-73.972334">
        <ele>84.939992</ele>
        <time>2022-10-10T09:44:13.000Z</time>
      </trkpt>
      <trkpt lat="42.161729" lon="-73.972169">
        <ele>85.369996</ele>
        <time>2022-10-10T09:44:15.000Z</time>
      </trkpt>
      <trkpt lat="42.161671" lon="-73.971938">
        <ele>86.069995</ele>
        <time>2022-10-10T09:44:17.000Z</time>
      </trkpt>
      <trkpt lat="42.161662" lon="-73.971688">
        <ele>86.020007</ele>
        <time>2022-10-10T09:44:19.000Z</time>
      </trkpt>
      <trkpt lat="42.161728" lon="-73.971494">
        <ele>85.559992</ele>
        <time>2022-10-10T09:44:21.000Z</time>
      </trkpt>
      <trkpt lat="42.161774" lon="-73.971392">
        <ele>85.559997</ele>
        <time>2022-10-10T09:44:22.000Z</time>
      </trkpt>
      <trkpt lat="42.162046" lon="-73.971031">
        <ele>82.140005</ele>
        <time>2022-10-10T09:44:26.000Z</time>
      </trkpt>
      <trkpt lat="42.162189" lon="-73.970716">
        <ele>81.410008</ele>
        <time>2022-10-10T09:44:29.000Z</time>
      </trkpt>
      <trkpt lat="42.162241" lon="-73.970492">
        <ele>80.279991</ele>
        <time>2022-10-10T09:44:31.000Z</time>
      </trkpt>
      <trkpt lat="42.162289" lon="-73.970058">
        <ele>77.949995</ele>
        <time>2022-10-10T09:44:35.000Z</time>
      </trkpt>
      <trkpt lat="42.162326" lon="-73.969953">
        <ele>77.120004</ele>
        <time>2022-10-10T09:44:36.000Z</time>
      </trkpt>
      <trkpt lat="42.162562" lon="-73.969519">
        <ele>72.210008</ele>
        <time>2022-10-10T09:44:40.000Z</time>
      </trkpt>
      <trkpt lat="42.162613" lon="-73.969232">
        <ele>69.889992</ele>
        <time>2022-10-10T09:44:42.000Z</time>
      </trkpt>
      <trkpt lat="42.162625" lon="-73.969039">
        <ele>68.680001</ele>
        <time>2022-10-10T09:44:44.000Z</time>
      </trkpt>
      <trkpt lat="42.162573" lon="-73.968759">
        <ele>67.539992</ele>
        <time>2022-10-10T09:44:46.000Z</time>
      </trkpt>
      <trkpt lat="42.162533" lon="-73.968615">
        <ele>66.979999</ele>
        <time>2022-10-10T09:44:47.000Z</time>
      </trkpt>
      <trkpt lat="42.162336" lon="-73.968095">
        <ele>67.309992</ele>
        <time>2022-10-10T09:44:52.000Z</time>
      </trkpt>
      <trkpt lat="42.162119" lon="-73.967677">
        <ele>68.360002</ele>
        <time>2022-10-10T09:44:56.000Z</time>
      </trkpt>
      <trkpt lat="42.162296" lon="-73.967518">
        <ele>68.749991</ele>
        <time>2022-10-10T09:44:58.000Z</time>
      </trkpt>
      <trkpt lat="42.162586" lon="-73.967046">
        <ele>71.529996</ele>
        <time>2022-10-10T09:45:03.000Z</time>
      </trkpt>
      <trkpt lat="42.162712" lon="-73.966919">
        <ele>72.020003</ele>
        <time>2022-10-10T09:45:05.000Z</time>
      </trkpt>
      <trkpt lat="42.162887" lon="-73.966824">
        <ele>72.599996</ele>
        <time>2022-10-10T09:45:07.000Z</time>
      </trkpt>
      <trkpt lat="42.163007" lon="-73.966742">
        <ele>73.200004</ele>
        <time>2022-10-10T09:45:08.000Z</time>
      </trkpt>
      <trkpt lat="42.163285001" lon="-73.9662540023">
        <ele>76.550008</ele>
        <time>2022-10-10T09:45:13.000Z</time>
      </trkpt>
      <trkpt lat="42.163556" lon="-73.965767">
        <ele>77.190003</ele>
        <time>2022-10-10T09:45:18.000Z</time>
      </trkpt>
      <trkpt lat="42.163841" lon="-73.965213">
        <ele>81.269998</ele>
        <time>2022-10-10T09:45:24.000Z</time>
      </trkpt>
      <trkpt lat="42.163908" lon="-73.964989">
        <ele>82.289995</ele>
        <time>2022-10-10T09:45:26.000Z</time>
      </trkpt>
      <trkpt lat="42.163929" lon="-73.964587">
        <ele>81.460002</ele>
        <time>2022-10-10T09:45:29.000Z</time>
      </trkpt>
      <trkpt lat="42.163969" lon="-73.964372">
        <ele>81.080006</ele>
        <time>2022-10-10T09:45:31.000Z</time>
      </trkpt>
      <trkpt lat="42.164003" lon="-73.964272">
        <ele>80.960008</ele>
        <time>2022-10-10T09:45:32.000Z</time>
      </trkpt>
      <trkpt lat="42.164531" lon="-73.963368">
        <ele>81.35</ele>
        <time>2022-10-10T09:45:41.000Z</time>
      </trkpt>
      <trkpt lat="42.164696" lon="-73.962971">
        <ele>80.039998</ele>
        <time>2022-10-10T09:45:45.000Z</time>
      </trkpt>
      <trkpt lat="42.164899" lon="-73.962617">
        <ele>77.630004</ele>
        <time>2022-10-10T09:45:49.000Z</time>
      </trkpt>
      <trkpt lat="42.165287" lon="-73.962075">
        <ele>76.199994</ele>
        <time>2022-10-10T09:45:55.000Z</time>
      </trkpt>
      <trkpt lat="42.165424" lon="-73.961768">
        <ele>75.979999</ele>
        <time>2022-10-10T09:45:58.000Z</time>
      </trkpt>
      <trkpt lat="42.165542" lon="-73.961372">
        <ele>75.939992</ele>
        <time>2022-10-10T09:46:02.000Z</time>
      </trkpt>
      <trkpt lat="42.165752" lon="-73.960359">
        <ele>76.329995</ele>
        <time>2022-10-10T09:46:11.000Z</time>
      </trkpt>
      <trkpt lat="42.165863" lon="-73.959949">
        <ele>75.870001</ele>
        <time>2022-10-10T09:46:15.000Z</time>
      </trkpt>
      <trkpt lat="42.166179" lon="-73.959137">
        <ele>77.080001</ele>
        <time>2022-10-10T09:46:23.000Z</time>
      </trkpt>
      <trkpt lat="42.166243" lon="-73.958991">
        <ele>77.420001</ele>
        <time>2022-10-10T09:46:24.000Z</time>
      </trkpt>
      <trkpt lat="42.166481" lon="-73.958637">
        <ele>77.829996</ele>
        <time>2022-10-10T09:46:28.000Z</time>
      </trkpt>
      <trkpt lat="42.166916" lon="-73.95822">
        <ele>77.609992</ele>
        <time>2022-10-10T09:46:34.000Z</time>
      </trkpt>
      <trkpt lat="42.167507" lon="-73.957919">
        <ele>76.239993</ele>
        <time>2022-10-10T09:46:41.000Z</time>
      </trkpt>
      <trkpt lat="42.167825" lon="-73.957686">
        <ele>74.989997</ele>
        <time>2022-10-10T09:46:45.000Z</time>
      </trkpt>
      <trkpt lat="42.168108" lon="-73.957473">
        <ele>74.849995</ele>
        <time>2022-10-10T09:46:49.000Z</time>
      </trkpt>
      <trkpt lat="42.168377" lon="-73.957152">
        <ele>75.169994</ele>
        <time>2022-10-10T09:46:53.000Z</time>
      </trkpt>
      <trkpt lat="42.168522" lon="-73.956933">
        <ele>75.010005</ele>
        <time>2022-10-10T09:46:55.000Z</time>
      </trkpt>
      <trkpt lat="42.168701" lon="-73.956476">
        <ele>72.929993</ele>
        <time>2022-10-10T09:46:59.000Z</time>
      </trkpt>
      <trkpt lat="42.168816" lon="-73.956352">
        <ele>71.870001</ele>
        <time>2022-10-10T09:47:01.000Z</time>
      </trkpt>
      <trkpt lat="42.168946" lon="-73.956183">
        <ele>68.860005</ele>
        <time>2022-10-10T09:47:03.000Z</time>
      </trkpt>
      <trkpt lat="42.169306" lon="-73.955825">
        <ele>64.020002</ele>
        <time>2022-10-10T09:47:08.000Z</time>
      </trkpt>
      <trkpt lat="42.169951" lon="-73.955361">
        <ele>63.069998</ele>
        <time>2022-10-10T09:47:16.000Z</time>
      </trkpt>
      <trkpt lat="42.170545" lon="-73.955019">
        <ele>63.730008</ele>
        <time>2022-10-10T09:47:23.000Z</time>
      </trkpt>
      <trkpt lat="42.170892" lon="-73.954765">
        <ele>63.590007</ele>
        <time>2022-10-10T09:47:27.000Z</time>
      </trkpt>
      <trkpt lat="42.171318" lon="-73.954375">
        <ele>63.859996</ele>
        <time>2022-10-10T09:47:33.000Z</time>
      </trkpt>
      <trkpt lat="42.171574" lon="-73.954098">
        <ele>64.470004</ele>
        <time>2022-10-10T09:47:37.000Z</time>
      </trkpt>
      <trkpt lat="42.171711" lon="-73.953925">
        <ele>65.24</ele>
        <time>2022-10-10T09:47:39.000Z</time>
      </trkpt>
      <trkpt lat="42.171988" lon="-73.953481">
        <ele>65.779991</ele>
        <time>2022-10-10T09:47:44.000Z</time>
      </trkpt>
      <trkpt lat="42.172089" lon="-73.953253">
        <ele>65.729997</ele>
        <time>2022-10-10T09:47:46.000Z</time>
      </trkpt>
      <trkpt lat="42.1723040021" lon="-73.9525740023">
        <ele>63.730005</ele>
        <time>2022-10-10T09:47:52.000Z</time>
      </trkpt>
      <trkpt lat="42.172511" lon="-73.951861">
        <ele>65.419992</ele>
        <time>2022-10-10T09:47:58.000Z</time>
      </trkpt>
      <trkpt lat="42.172615" lon="-73.951609">
        <ele>67.679998</ele>
        <time>2022-10-10T09:48:00.000Z</time>
      </trkpt>
      <trkpt lat="42.172851" lon="-73.951254">
        <ele>71.339992</ele>
        <time>2022-10-10T09:48:04.000Z</time>
      </trkpt>
      <trkpt lat="42.173132" lon="-73.950971">
        <ele>72.649996</ele>
        <time>2022-10-10T09:48:08.000Z</time>
      </trkpt>
      <trkpt lat="42.173313" lon="-73.950848">
        <ele>73.100006</ele>
        <time>2022-10-10T09:48:10.000Z</time>
      </trkpt>
      <trkpt lat="42.173778" lon="-73.950656">
        <ele>71.999996</ele>
        <time>2022-10-10T09:48:15.000Z</time>
      </trkpt>
      <trkpt lat="42.174081" lon="-73.950431">
        <ele>70.630003</ele>
        <time>2022-10-10T09:48:19.000Z</time>
      </trkpt>
      <trkpt lat="42.1746550004" lon="-73.9501980021">
        <ele>67.470002</ele>
        <time>2022-10-10T09:48:26.000Z</time>
      </trkpt>
      <trkpt lat="42.175213" lon="-73.949952">
        <ele>65.359993</ele>
        <time>2022-10-10T09:48:33.000Z</time>
      </trkpt>
      <trkpt lat="42.175614" lon="-73.949727">
        <ele>64.949991</ele>
        <time>2022-10-10T09:48:38.000Z</time>
      </trkpt>
      <trkpt lat="42.175899" lon="-73.949496">
        <ele>64.980006</ele>
        <time>2022-10-10T09:48:42.000Z</time>
      </trkpt>
      <trkpt lat="42.176453" lon="-73.948741">
        <ele>69.139998</ele>
        <time>2022-10-10T09:48:51.000Z</time>
      </trkpt>
      <trkpt lat="42.17672" lon="-73.948232">
        <ele>71.860009</ele>
        <time>2022-10-10T09:48:56.000Z</time>
      </trkpt>
      <trkpt lat="42.176856" lon="-73.947429">
        <ele>65.08</ele>
        <time>2022-10-10T09:49:03.000Z</time>
      </trkpt>
      <trkpt lat="42.176915" lon="-73.947252">
        <ele>63.060008</ele>
        <time>2022-10-10T09:49:05.000Z</time>
      </trkpt>
      <trkpt lat="42.177017" lon="-73.947039">
        <ele>61.39</ele>
        <time>2022-10-10T09:49:07.000Z</time>
      </trkpt>
      <trkpt lat="42.177152" lon="-73.946818">
        <ele>59.329996</ele>
        <time>2022-10-10T09:49:09.000Z</time>
      </trkpt>
      <trkpt lat="42.177296" lon="-73.946628">
        <ele>58.250006</ele>
        <time>2022-10-10T09:49:11.000Z</time>
      </trkpt>
      <trkpt lat="42.177553" lon="-73.946406">
        <ele>57.629995</ele>
        <time>2022-10-10T09:49:14.000Z</time>
      </trkpt>
      <trkpt lat="42.1780480006" lon="-73.9460230029">
        <ele>58.529995</ele>
        <time>2022-10-10T09:49:20.000Z</time>
      </trkpt>
      <trkpt lat="42.17854" lon="-73.945653">
        <ele>57.499993</ele>
        <time>2022-10-10T09:49:26.000Z</time>
      </trkpt>
      <trkpt lat="42.178666" lon="-73.945478">
        <ele>56.069991</ele>
        <time>2022-10-10T09:49:28.000Z</time>
      </trkpt>
      <trkpt lat="42.178685" lon="-73.945254">
        <ele>53.719995</ele>
        <time>2022-10-10T09:49:30.000Z</time>
      </trkpt>
      <trkpt lat="42.178662" lon="-73.945034">
        <ele>52.009994</ele>
        <time>2022-10-10T09:49:32.000Z</time>
      </trkpt>
      <trkpt lat="42.178408" lon="-73.944165">
        <ele>47.339991</ele>
        <time>2022-10-10T09:49:40.000Z</time>
      </trkpt>
      <trkpt lat="42.178303" lon="-73.943466">
        <ele>42.560009</ele>
        <time>2022-10-10T09:49:46.000Z</time>
      </trkpt>
      <trkpt lat="42.178311" lon="-73.943062">
        <ele>41.120008</ele>
        <time>2022-10-10T09:49:49.000Z</time>
      </trkpt>
      <trkpt lat="42.178404" lon="-73.942753">
        <ele>40.520004</ele>
        <time>2022-10-10T09:49:52.000Z</time>
      </trkpt>
      <trkpt lat="42.178731" lon="-73.942147">
        <ele>35.260006</ele>
        <time>2022-10-10T09:49:58.000Z</time>
      </trkpt>
      <trkpt lat="42.178999" lon="-73.941741">
        <ele>31.219995</ele>
        <time>2022-10-10T09:50:02.000Z</time>
      </trkpt>
      <trkpt lat="42.1794800022" lon="-73.9410280057">
        <ele>27.230001</ele>
        <time>2022-10-10T09:50:10.000Z</time>
      </trkpt>
      <trkpt lat="42.179972" lon="-73.940329">
        <ele>27.810005</ele>
        <time>2022-10-10T09:50:18.000Z</time>
      </trkpt>
      <trkpt lat="42.180177" lon="-73.94023">
        <ele>28.060008</ele>
        <time>2022-10-10T09:50:20.000Z</time>
      </trkpt>
      <trkpt lat="42.180523" lon="-73.940319">
        <ele>28.050003</ele>
        <time>2022-10-10T09:50:24.000Z</time>
      </trkpt>
      <trkpt lat="42.180638" lon="-73.940319">
        <ele>28.539991</ele>
        <time>2022-10-10T09:50:25.000Z</time>
      </trkpt>
      <trkpt lat="42.180693" lon="-73.940288">
        <ele>28.54</ele>
        <time>2022-10-10T09:50:26.000Z</time>
      </trkpt>
      <trkpt lat="42.180748" lon="-73.940142">
        <ele>28.819998</ele>
        <time>2022-10-10T09:50:27.000Z</time>
      </trkpt>
      <trkpt lat="42.180761" lon="-73.939999">
        <ele>28.859999</ele>
        <time>2022-10-10T09:50:28.000Z</time>
      </trkpt>
      <trkpt lat="42.180766" lon="-73.93991">
        <ele>28.950007</ele>
        <time>2022-10-10T09:50:29.000Z</time>
      </trkpt>
      <trkpt lat="42.180727" lon="-73.939796">
        <ele>28.950002</ele>
        <time>2022-10-10T09:50:30.000Z</time>
      </trkpt>
      <trkpt lat="42.180321" lon="-73.939376">
        <ele>29.690004</ele>
        <time>2022-10-10T09:50:36.000Z</time>
      </trkpt>
      <trkpt lat="42.180076" lon="-73.939057">
        <ele>31.370007</ele>
        <time>2022-10-10T09:50:40.000Z</time>
      </trkpt>
      <trkpt lat="42.179918" lon="-73.938833">
        <ele>32.850003</ele>
        <time>2022-10-10T09:50:43.000Z</time>
      </trkpt>
      <trkpt lat="42.180331" lon="-73.939377">
        <ele>29.689995</ele>
        <time>2022-10-10T09:50:49.000Z</time>
      </trkpt>
      <trkpt lat="42.180717" lon="-73.939782">
        <ele>28.949991</ele>
        <time>2022-10-10T09:50:54.000Z</time>
      </trkpt>
      <trkpt lat="42.180759" lon="-73.939914">
        <ele>28.859996</ele>
        <time>2022-10-10T09:50:55.000Z</time>
      </trkpt>
      <trkpt lat="42.180774" lon="-73.940003">
        <ele>28.860009</ele>
        <time>2022-10-10T09:50:56.000Z</time>
      </trkpt>
      <trkpt lat="42.180754" lon="-73.940133">
        <ele>28.820002</ele>
        <time>2022-10-10T09:50:57.000Z</time>
      </trkpt>
      <trkpt lat="42.180709" lon="-73.940275">
        <ele>28.539995</ele>
        <time>2022-10-10T09:50:58.000Z</time>
      </trkpt>
      <trkpt lat="42.180637" lon="-73.940326">
        <ele>28.540003</ele>
        <time>2022-10-10T09:50:59.000Z</time>
      </trkpt>
      <trkpt lat="42.180181" lon="-73.940236">
        <ele>28.059996</ele>
        <time>2022-10-10T09:51:04.000Z</time>
      </trkpt>
      <trkpt lat="42.179988" lon="-73.940325">
        <ele>27.810004</ele>
        <time>2022-10-10T09:51:06.000Z</time>
      </trkpt>
      <trkpt lat="42.1794790023" lon="-73.9410340055">
        <ele>27.230001</ele>
        <time>2022-10-10T09:51:14.000Z</time>
      </trkpt>
      <trkpt lat="42.178992" lon="-73.941744">
        <ele>31.220002</ele>
        <time>2022-10-10T09:51:22.000Z</time>
      </trkpt>
      <trkpt lat="42.178732" lon="-73.942145">
        <ele>35.259998</ele>
        <time>2022-10-10T09:51:26.000Z</time>
      </trkpt>
      <trkpt lat="42.178402" lon="-73.942754">
        <ele>40.519995</ele>
        <time>2022-10-10T09:51:32.000Z</time>
      </trkpt>
      <trkpt lat="42.178319" lon="-73.943051">
        <ele>41.120007</ele>
        <time>2022-10-10T09:51:35.000Z</time>
      </trkpt>
      <trkpt lat="42.178305" lon="-73.943461">
        <ele>42.960005</ele>
        <time>2022-10-10T09:51:38.000Z</time>
      </trkpt>
      <trkpt lat="42.178416" lon="-73.944194">
        <ele>47.519997</ele>
        <time>2022-10-10T09:51:44.000Z</time>
      </trkpt>
      <trkpt lat="42.178667" lon="-73.945047">
        <ele>52.01</ele>
        <time>2022-10-10T09:51:52.000Z</time>
      </trkpt>
      <trkpt lat="42.178694" lon="-73.945249">
        <ele>53.720007</ele>
        <time>2022-10-10T09:51:54.000Z</time>
      </trkpt>
      <trkpt lat="42.178664" lon="-73.945467">
        <ele>56.070004</ele>
        <time>2022-10-10T09:51:56.000Z</time>
      </trkpt>
      <trkpt lat="42.178545" lon="-73.945651">
        <ele>57.829994</ele>
        <time>2022-10-10T09:51:58.000Z</time>
      </trkpt>
      <trkpt lat="42.1780450006" lon="-73.9460290029">
        <ele>58.440009</ele>
        <time>2022-10-10T09:52:04.000Z</time>
      </trkpt>
      <trkpt lat="42.177558" lon="-73.946405">
        <ele>57.629996</ele>
        <time>2022-10-10T09:52:10.000Z</time>
      </trkpt>
      <trkpt lat="42.17729" lon="-73.946634">
        <ele>58.25</ele>
        <time>2022-10-10T09:52:14.000Z</time>
      </trkpt>
      <trkpt lat="42.177165" lon="-73.946812">
        <ele>59.329991</ele>
        <time>2022-10-10T09:52:16.000Z</time>
      </trkpt>
      <trkpt lat="42.177004" lon="-73.947044">
        <ele>61.910001</ele>
        <time>2022-10-10T09:52:19.000Z</time>
      </trkpt>
      <trkpt lat="42.176917" lon="-73.947241">
        <ele>64.369995</ele>
        <time>2022-10-10T09:52:21.000Z</time>
      </trkpt>
      <trkpt lat="42.176856" lon="-73.947429">
        <ele>68.079996</ele>
        <time>2022-10-10T09:52:23.000Z</time>
      </trkpt>
      <trkpt lat="42.176713" lon="-73.948245">
        <ele>71.810009</ele>
        <time>2022-10-10T09:52:30.000Z</time>
      </trkpt>
      <trkpt lat="42.176465" lon="-73.948735">
        <ele>69.140006</ele>
        <time>2022-10-10T09:52:35.000Z</time>
      </trkpt>
      <trkpt lat="42.175884" lon="-73.949493">
        <ele>64.979995</ele>
        <time>2022-10-10T09:52:44.000Z</time>
      </trkpt>
      <trkpt lat="42.175617" lon="-73.949715">
        <ele>64.950003</ele>
        <time>2022-10-10T09:52:47.000Z</time>
      </trkpt>
      <trkpt lat="42.175213" lon="-73.949957">
        <ele>65.67</ele>
        <time>2022-10-10T09:52:52.000Z</time>
      </trkpt>
      <trkpt lat="42.1746570001" lon="-73.9501930022">
        <ele>67.470006</ele>
        <time>2022-10-10T09:52:58.000Z</time>
      </trkpt>
      <trkpt lat="42.174097" lon="-73.950439">
        <ele>70.630002</ele>
        <time>2022-10-10T09:53:05.000Z</time>
      </trkpt>
      <trkpt lat="42.173768" lon="-73.950651">
        <ele>72.000004</ele>
        <time>2022-10-10T09:53:09.000Z</time>
      </trkpt>
      <trkpt lat="42.173315" lon="-73.950834">
        <ele>73.059998</ele>
        <time>2022-10-10T09:53:14.000Z</time>
      </trkpt>
      <trkpt lat="42.17313" lon="-73.950981">
        <ele>72.189998</ele>
        <time>2022-10-10T09:53:16.000Z</time>
      </trkpt>
      <trkpt lat="42.172851" lon="-73.951242">
        <ele>69.130008</ele>
        <time>2022-10-10T09:53:20.000Z</time>
      </trkpt>
      <trkpt lat="42.172617" lon="-73.951605">
        <ele>67.680007</ele>
        <time>2022-10-10T09:53:24.000Z</time>
      </trkpt>
      <trkpt lat="42.172503" lon="-73.951866">
        <ele>65.029994</ele>
        <time>2022-10-10T09:53:27.000Z</time>
      </trkpt>
      <trkpt lat="42.1722980021" lon="-73.9525660025">
        <ele>63.860001</ele>
        <time>2022-10-10T09:53:33.000Z</time>
      </trkpt>
      <trkpt lat="42.172081" lon="-73.953255">
        <ele>65.779996</ele>
        <time>2022-10-10T09:53:39.000Z</time>
      </trkpt>
      <trkpt lat="42.171979" lon="-73.953472">
        <ele>65.780004</ele>
        <time>2022-10-10T09:53:41.000Z</time>
      </trkpt>
      <trkpt lat="42.171712" lon="-73.953922">
        <ele>64.469999</ele>
        <time>2022-10-10T09:53:46.000Z</time>
      </trkpt>
      <trkpt lat="42.171571" lon="-73.954093">
        <ele>64.250009</ele>
        <time>2022-10-10T09:53:48.000Z</time>
      </trkpt>
      <trkpt lat="42.171313" lon="-73.954375">
        <ele>63.860003</ele>
        <time>2022-10-10T09:53:52.000Z</time>
      </trkpt>
      <trkpt lat="42.170895" lon="-73.954764">
        <ele>63.590007</ele>
        <time>2022-10-10T09:53:58.000Z</time>
      </trkpt>
      <trkpt lat="42.170545" lon="-73.955013">
        <ele>63.729994</ele>
        <time>2022-10-10T09:54:02.000Z</time>
      </trkpt>
      <trkpt lat="42.169947" lon="-73.955376">
        <ele>63.070009</ele>
        <time>2022-10-10T09:54:09.000Z</time>
      </trkpt>
      <trkpt lat="42.169304" lon="-73.95582">
        <ele>64.270005</ele>
        <time>2022-10-10T09:54:17.000Z</time>
      </trkpt>
      <trkpt lat="42.168937" lon="-73.956184">
        <ele>68.859998</ele>
        <time>2022-10-10T09:54:22.000Z</time>
      </trkpt>
      <trkpt lat="42.168807" lon="-73.956351">
        <ele>71.869996</ele>
        <time>2022-10-10T09:54:24.000Z</time>
      </trkpt>
      <trkpt lat="42.168701" lon="-73.956486">
        <ele>73.390007</ele>
        <time>2022-10-10T09:54:26.000Z</time>
      </trkpt>
      <trkpt lat="42.168519" lon="-73.956936">
        <ele>75.089995</ele>
        <time>2022-10-10T09:54:30.000Z</time>
      </trkpt>
      <trkpt lat="42.168374" lon="-73.957152">
        <ele>75.169991</ele>
        <time>2022-10-10T09:54:32.000Z</time>
      </trkpt>
      <trkpt lat="42.168112" lon="-73.957479">
        <ele>74.849995</ele>
        <time>2022-10-10T09:54:36.000Z</time>
      </trkpt>
      <trkpt lat="42.167831" lon="-73.957681">
        <ele>75.100009</ele>
        <time>2022-10-10T09:54:40.000Z</time>
      </trkpt>
      <trkpt lat="42.167515" lon="-73.957912">
        <ele>76.239997</ele>
        <time>2022-10-10T09:54:44.000Z</time>
      </trkpt>
      <trkpt lat="42.166922" lon="-73.958212">
        <ele>77.610007</ele>
        <time>2022-10-10T09:54:51.000Z</time>
      </trkpt>
      <trkpt lat="42.166485" lon="-73.958624">
        <ele>77.829993</ele>
        <time>2022-10-10T09:54:57.000Z</time>
      </trkpt>
      <trkpt lat="42.166252" lon="-73.958996">
        <ele>77.079991</ele>
        <time>2022-10-10T09:55:01.000Z</time>
      </trkpt>
      <trkpt lat="42.166188" lon="-73.959124">
        <ele>76.479992</ele>
        <time>2022-10-10T09:55:02.000Z</time>
      </trkpt>
      <trkpt lat="42.165859" lon="-73.95994">
        <ele>75.869996</ele>
        <time>2022-10-10T09:55:10.000Z</time>
      </trkpt>
      <trkpt lat="42.165751" lon="-73.960354">
        <ele>76.329993</ele>
        <time>2022-10-10T09:55:14.000Z</time>
      </trkpt>
      <trkpt lat="42.165542" lon="-73.961365">
        <ele>75.939997</ele>
        <time>2022-10-10T09:55:23.000Z</time>
      </trkpt>
      <trkpt lat="42.165425" lon="-73.961763">
        <ele>75.980003</ele>
        <time>2022-10-10T09:55:27.000Z</time>
      </trkpt>
      <trkpt lat="42.165287" lon="-73.96208">
        <ele>76.390009</ele>
        <time>2022-10-10T09:55:30.000Z</time>
      </trkpt>
      <trkpt lat="42.164895" lon="-73.962626">
        <ele>77.63</ele>
        <time>2022-10-10T09:55:36.000Z</time>
      </trkpt>
      <trkpt lat="42.164692" lon="-73.962975">
        <ele>80.539992</ele>
        <time>2022-10-10T09:55:40.000Z</time>
      </trkpt>
      <trkpt lat="42.164528" lon="-73.963378">
        <ele>81.350009</ele>
        <time>2022-10-10T09:55:44.000Z</time>
      </trkpt>
      <trkpt lat="42.164001" lon="-73.964271">
        <ele>81.080002</ele>
        <time>2022-10-10T09:55:53.000Z</time>
      </trkpt>
      <trkpt lat="42.16397" lon="-73.964364">
        <ele>81.309995</ele>
        <time>2022-10-10T09:55:54.000Z</time>
      </trkpt>
      <trkpt lat="42.163935" lon="-73.964584">
        <ele>81.980006</ele>
        <time>2022-10-10T09:55:56.000Z</time>
      </trkpt>
      <trkpt lat="42.163907" lon="-73.964988">
        <ele>82.180009</ele>
        <time>2022-10-10T09:55:59.000Z</time>
      </trkpt>
      <trkpt lat="42.163842" lon="-73.965213">
        <ele>80.840003</ele>
        <time>2022-10-10T09:56:01.000Z</time>
      </trkpt>
      <trkpt lat="42.163566" lon="-73.965752">
        <ele>77.189999</ele>
        <time>2022-10-10T09:56:06.000Z</time>
      </trkpt>
      <trkpt lat="42.1632730011" lon="-73.966253002">
        <ele>76.339994</ele>
        <time>2022-10-10T09:56:11.000Z</time>
      </trkpt>
      <trkpt lat="42.163006" lon="-73.966748">
        <ele>72.959997</ele>
        <time>2022-10-10T09:56:16.000Z</time>
      </trkpt>
      <trkpt lat="42.162883" lon="-73.966829">
        <ele>72.350001</ele>
        <time>2022-10-10T09:56:18.000Z</time>
      </trkpt>
      <trkpt lat="42.162717" lon="-73.966922">
        <ele>72.020003</ele>
        <time>2022-10-10T09:56:20.000Z</time>
      </trkpt>
      <trkpt lat="42.162575" lon="-73.967055">
        <ele>71.299998</ele>
        <time>2022-10-10T09:56:22.000Z</time>
      </trkpt>
      <trkpt lat="42.162298" lon="-73.967508">
        <ele>68.749994</ele>
        <time>2022-10-10T09:56:27.000Z</time>
      </trkpt>
      <trkpt lat="42.162101" lon="-73.967673">
        <ele>68.359999</ele>
        <time>2022-10-10T09:56:30.000Z</time>
      </trkpt>
      <trkpt lat="42.162338" lon="-73.968082">
        <ele>67.310007</ele>
        <time>2022-10-10T09:56:34.000Z</time>
      </trkpt>
      <trkpt lat="42.16254" lon="-73.968628">
        <ele>67.140007</ele>
        <time>2022-10-10T09:56:39.000Z</time>
      </trkpt>
      <trkpt lat="42.162581" lon="-73.968754">
        <ele>67.540008</ele>
        <time>2022-10-10T09:56:40.000Z</time>
      </trkpt>
      <trkpt lat="42.162615" lon="-73.969031">
        <ele>69.059999</ele>
        <time>2022-10-10T09:56:42.000Z</time>
      </trkpt>
      <trkpt lat="42.162629" lon="-73.969239">
        <ele>69.889997</ele>
        <time>2022-10-10T09:56:44.000Z</time>
      </trkpt>
      <trkpt lat="42.162564" lon="-73.969506">
        <ele>73.250007</ele>
        <time>2022-10-10T09:56:46.000Z</time>
      </trkpt>
      <trkpt lat="42.16232" lon="-73.969951">
        <ele>77.559993</ele>
        <time>2022-10-10T09:56:51.000Z</time>
      </trkpt>
      <trkpt lat="42.162295" lon="-73.970058">
        <ele>78.319996</ele>
        <time>2022-10-10T09:56:52.000Z</time>
      </trkpt>
      <trkpt lat="42.162244" lon="-73.970493">
        <ele>80.800008</ele>
        <time>2022-10-10T09:56:56.000Z</time>
      </trkpt>
      <trkpt lat="42.162189" lon="-73.970713">
        <ele>81.409993</ele>
        <time>2022-10-10T09:56:58.000Z</time>
      </trkpt>
      <trkpt lat="42.162042" lon="-73.971039">
        <ele>82.479994</ele>
        <time>2022-10-10T09:57:01.000Z</time>
      </trkpt>
      <trkpt lat="42.161773" lon="-73.971392">
        <ele>85.559993</ele>
        <time>2022-10-10T09:57:05.000Z</time>
      </trkpt>
      <trkpt lat="42.161722" lon="-73.971497">
        <ele>85.559991</ele>
        <time>2022-10-10T09:57:06.000Z</time>
      </trkpt>
      <trkpt lat="42.161679" lon="-73.971681">
        <ele>86.099996</ele>
        <time>2022-10-10T09:57:08.000Z</time>
      </trkpt>
      <trkpt lat="42.161669" lon="-73.971946">
        <ele>85.930007</ele>
        <time>2022-10-10T09:57:10.000Z</time>
      </trkpt>
      <trkpt lat="42.161725" lon="-73.972151">
        <ele>85.219997</ele>
        <time>2022-10-10T09:57:12.000Z</time>
      </trkpt>
      <trkpt lat="42.161834" lon="-73.972341">
        <ele>84.940004</ele>
        <time>2022-10-10T09:57:14.000Z</time>
      </trkpt>
      <trkpt lat="42.161985" lon="-73.97249">
        <ele>84.929995</ele>
        <time>2022-10-10T09:57:16.000Z</time>
      </trkpt>
      <trkpt lat="42.161981" lon="-73.972605">
        <ele>84.929994</ele>
        <time>2022-10-10T09:57:17.000Z</time>
      </trkpt>
      <trkpt lat="42.162044" lon="-73.972973">
        <ele>84.230004</ele>
        <time>2022-10-10T09:57:20.000Z</time>
      </trkpt>
      <trkpt lat="42.162048" lon="-73.973189">
        <ele>84.070008</ele>
        <time>2022-10-10T09:57:22.000Z</time>
      </trkpt>
      <trkpt lat="42.161986" lon="-73.973313">
        <ele>84.289994</ele>
        <time>2022-10-10T09:57:23.000Z</time>
      </trkpt>
      <trkpt lat="42.161737" lon="-73.973712">
        <ele>87.570007</ele>
        <time>2022-10-10T09:57:27.000Z</time>
      </trkpt>
      <trkpt lat="42.161688" lon="-73.974027">
        <ele>88.540008</ele>
        <time>2022-10-10T09:57:30.000Z</time>
      </trkpt>
      <trkpt lat="42.161654" lon="-73.974655">
        <ele>83.529997</ele>
        <time>2022-10-10T09:57:35.000Z</time>
      </trkpt>
      <trkpt lat="42.161741" lon="-73.975285">
        <ele>80.629997</ele>
        <time>2022-10-10T09:57:40.000Z</time>
      </trkpt>
      <trkpt lat="42.161713" lon="-73.975699">
        <ele>81.180005</ele>
        <time>2022-10-10T09:57:43.000Z</time>
      </trkpt>
      <trkpt lat="42.161656" lon="-73.975911">
        <ele>81.769997</ele>
        <time>2022-10-10T09:57:45.000Z</time>
      </trkpt>
      <trkpt lat="42.161412" lon="-73.976447">
        <ele>87.560002</ele>
        <time>2022-10-10T09:57:50.000Z</time>
      </trkpt>
      <trkpt lat="42.161404" lon="-73.976587">
        <ele>87.560004</ele>
        <time>2022-10-10T09:57:51.000Z</time>
      </trkpt>
      <trkpt lat="42.161401" lon="-73.976766">
        <ele>89.349994</ele>
        <time>2022-10-10T09:57:52.000Z</time>
      </trkpt>
      <trkpt lat="42.16145" lon="-73.976887">
        <ele>90.349992</ele>
        <time>2022-10-10T09:57:53.000Z</time>
      </trkpt>
      <trkpt lat="42.161147" lon="-73.977206">
        <ele>92.270008</ele>
        <time>2022-10-10T09:57:57.000Z</time>
      </trkpt>
      <trkpt lat="42.160894" lon="-73.977364">
        <ele>93.560008</ele>
        <time>2022-10-10T09:58:00.000Z</time>
      </trkpt>
      <trkpt lat="42.160469" lon="-73.977538">
        <ele>93.779991</ele>
        <time>2022-10-10T09:58:05.000Z</time>
      </trkpt>
      <trkpt lat="42.1600409999" lon="-73.9777590016">
        <ele>93.439999</ele>
        <time>2022-10-10T09:58:10.000Z</time>
      </trkpt>
      <trkpt lat="42.159607" lon="-73.977975">
        <ele>94.090001</ele>
        <time>2022-10-10T09:58:15.000Z</time>
      </trkpt>
      <trkpt lat="42.159592" lon="-73.977972">
        <ele>94.120008</ele>
        <time>2022-10-10T09:58:15.000Z</time>
      </trkpt>
      <trkpt lat="42.15949" lon="-73.978017">
        <ele>94.430004</ele>
        <time>2022-10-10T09:58:16.000Z</time>
      </trkpt>
      <trkpt lat="42.158888" lon="-73.9781750015">
        <ele>92.470005</ele>
        <time>2022-10-10T09:58:23.000Z</time>
      </trkpt>
      <trkpt lat="42.158274" lon="-73.97834">
        <ele>90.210002</ele>
        <time>2022-10-10T09:58:30.000Z</time>
      </trkpt>
      <trkpt lat="42.157547" lon="-73.978471">
        <ele>86.569997</ele>
        <time>2022-10-10T09:58:38.000Z</time>
      </trkpt>
      <trkpt lat="42.157488" lon="-73.978507">
        <ele>86.260004</ele>
        <time>2022-10-10T09:58:39.000Z</time>
      </trkpt>
      <trkpt lat="42.157344" lon="-73.978649">
        <ele>86.110003</ele>
        <time>2022-10-10T09:58:41.000Z</time>
      </trkpt>
      <trkpt lat="42.157227" lon="-73.978836">
        <ele>86.260004</ele>
        <time>2022-10-10T09:58:43.000Z</time>
      </trkpt>
      <trkpt lat="42.156908" lon="-73.979538">
        <ele>89.689999</ele>
        <time>2022-10-10T09:58:50.000Z</time>
      </trkpt>
      <trkpt lat="42.156798" lon="-73.979716">
        <ele>90.479995</ele>
        <time>2022-10-10T09:58:52.000Z</time>
      </trkpt>
      <trkpt lat="42.156605" lon="-73.9799">
        <ele>93.179994</ele>
        <time>2022-10-10T09:58:55.000Z</time>
      </trkpt>
      <trkpt lat="42.1561690005" lon="-73.9802450024">
        <ele>93.34</ele>
        <time>2022-10-10T09:59:01.000Z</time>
      </trkpt>
      <trkpt lat="42.155756" lon="-73.980594">
        <ele>92.229993</ele>
        <time>2022-10-10T09:59:06.000Z</time>
      </trkpt>
      <trkpt lat="42.15521" lon="-73.981066">
        <ele>91.789993</ele>
        <time>2022-10-10T09:59:13.000Z</time>
      </trkpt>
      <trkpt lat="42.1548420011" lon="-73.9815480027">
        <ele>93.120008</ele>
        <time>2022-10-10T09:59:19.000Z</time>
      </trkpt>
      <trkpt lat="42.154496" lon="-73.982038">
        <ele>96.969992</ele>
        <time>2022-10-10T09:59:25.000Z</time>
      </trkpt>
      <trkpt lat="42.15424" lon="-73.982326">
        <ele>100.059994</ele>
        <time>2022-10-10T09:59:29.000Z</time>
      </trkpt>
      <trkpt lat="42.154002" lon="-73.982492">
        <ele>102.529993</ele>
        <time>2022-10-10T09:59:32.000Z</time>
      </trkpt>
      <trkpt lat="42.153423" lon="-73.982898">
        <ele>104.099996</ele>
        <time>2022-10-10T09:59:39.000Z</time>
      </trkpt>
      <trkpt lat="42.1528120013" lon="-73.9834410051">
        <ele>104.009996</ele>
        <time>2022-10-10T09:59:47.000Z</time>
      </trkpt>
      <trkpt lat="42.152191" lon="-73.983975">
        <ele>104.640005</ele>
        <time>2022-10-10T09:59:55.000Z</time>
      </trkpt>
      <trkpt lat="42.152063" lon="-73.984124">
        <ele>104.799992</ele>
        <time>2022-10-10T09:59:57.000Z</time>
      </trkpt>
      <trkpt lat="42.151732" lon="-73.984592">
        <ele>106.880004</ele>
        <time>2022-10-10T10:00:02.000Z</time>
      </trkpt>
      <trkpt lat="42.151633" lon="-73.984672">
        <ele>107.179995</ele>
        <time>2022-10-10T10:00:03.000Z</time>
      </trkpt>
      <trkpt lat="42.151158" lon="-73.984916">
        <ele>107.390002</ele>
        <time>2022-10-10T10:00:09.000Z</time>
      </trkpt>
      <trkpt lat="42.150738" lon="-73.985399">
        <ele>106.699995</ele>
        <time>2022-10-10T10:00:15.000Z</time>
      </trkpt>
      <trkpt lat="42.150302" lon="-73.985819">
        <ele>107.030002</ele>
        <time>2022-10-10T10:00:21.000Z</time>
      </trkpt>
      <trkpt lat="42.150121" lon="-73.986031">
        <ele>107.570004</ele>
        <time>2022-10-10T10:00:24.000Z</time>
      </trkpt>
      <trkpt lat="42.149948" lon="-73.986383">
        <ele>108.619996</ele>
        <time>2022-10-10T10:00:27.000Z</time>
      </trkpt>
      <trkpt lat="42.14977" lon="-73.986846">
        <ele>110.090003</ele>
        <time>2022-10-10T10:00:31.000Z</time>
      </trkpt>
      <trkpt lat="42.149689" lon="-73.986922">
        <ele>110.429992</ele>
        <time>2022-10-10T10:00:32.000Z</time>
      </trkpt>
      <trkpt lat="42.149557" lon="-73.987031">
        <ele>110.790003</ele>
        <time>2022-10-10T10:00:34.000Z</time>
      </trkpt>
      <trkpt lat="42.149361" lon="-73.98715">
        <ele>111.069999</ele>
        <time>2022-10-10T10:00:36.000Z</time>
      </trkpt>
      <trkpt lat="42.148834" lon="-73.987382">
        <ele>111.060007</ele>
        <time>2022-10-10T10:00:42.000Z</time>
      </trkpt>
      <trkpt lat="42.1481370005" lon="-73.9877150037">
        <ele>111.619997</ele>
        <time>2022-10-10T10:00:50.000Z</time>
      </trkpt>
      <trkpt lat="42.147435" lon="-73.988043">
        <ele>111.880009</ele>
        <time>2022-10-10T10:00:58.000Z</time>
      </trkpt>
      <trkpt lat="42.147435" lon="-73.988049">
        <ele>111.870005</ele>
        <time>2022-10-10T10:00:58.000Z</time>
      </trkpt>
      <trkpt lat="42.146998" lon="-73.988261">
        <ele>111.509993</ele>
        <time>2022-10-10T10:01:03.000Z</time>
      </trkpt>
      <trkpt lat="42.146359" lon="-73.988427">
        <ele>110.400003</ele>
        <time>2022-10-10T10:01:10.000Z</time>
      </trkpt>
      <trkpt lat="42.145866" lon="-73.988587">
        <ele>109.809993</ele>
        <time>2022-10-10T10:01:16.000Z</time>
      </trkpt>
      <trkpt lat="42.145621" lon="-73.988478">
        <ele>109.149997</ele>
        <time>2022-10-10T10:01:19.000Z</time>
      </trkpt>
      <trkpt lat="42.145291" lon="-73.988284">
        <ele>106.729996</ele>
        <time>2022-10-10T10:01:23.000Z</time>
      </trkpt>
      <trkpt lat="42.14517" lon="-73.98827">
        <ele>106.379996</ele>
        <time>2022-10-10T10:01:24.000Z</time>
      </trkpt>
      <trkpt lat="42.1447230003" lon="-73.9884640014">
        <ele>105.699998</ele>
        <time>2022-10-10T10:01:29.000Z</time>
      </trkpt>
      <trkpt lat="42.144288" lon="-73.988675">
        <ele>106.100009</ele>
        <time>2022-10-10T10:01:34.000Z</time>
      </trkpt>
      <trkpt lat="42.14401" lon="-73.988706">
        <ele>106.070001</ele>
        <time>2022-10-10T10:01:37.000Z</time>
      </trkpt>
      <trkpt lat="42.14378" lon="-73.988751">
        <ele>105.850005</ele>
        <time>2022-10-10T10:01:40.000Z</time>
      </trkpt>
      <trkpt lat="42.143424" lon="-73.988908">
        <ele>105.719996</ele>
        <time>2022-10-10T10:01:44.000Z</time>
      </trkpt>
      <trkpt lat="42.143274" lon="-73.988988">
        <ele>105.780008</ele>
        <time>2022-10-10T10:01:46.000Z</time>
      </trkpt>
      <trkpt lat="42.142512" lon="-73.989167">
        <ele>105.919992</ele>
        <time>2022-10-10T10:01:55.000Z</time>
      </trkpt>
      <trkpt lat="42.142249" lon="-73.98929">
        <ele>105.609992</ele>
        <time>2022-10-10T10:01:58.000Z</time>
      </trkpt>
      <trkpt lat="42.141861" lon="-73.989523">
        <ele>104.630008</ele>
        <time>2022-10-10T10:02:03.000Z</time>
      </trkpt>
      <trkpt lat="42.141623" lon="-73.989659">
        <ele>104.290007</ele>
        <time>2022-10-10T10:02:06.000Z</time>
      </trkpt>
      <trkpt lat="42.141485005" lon="-73.9885879975">
        <ele>100.930005</ele>
        <time>2022-10-10T10:02:15.000Z</time>
      </trkpt>
      <trkpt lat="42.141328" lon="-73.987502">
        <ele>98.570005</ele>
        <time>2022-10-10T10:02:24.000Z</time>
      </trkpt>
      <trkpt lat="42.141101" lon="-73.986488">
        <ele>98.489999</ele>
        <time>2022-10-10T10:02:33.000Z</time>
      </trkpt>
      <trkpt lat="42.140988" lon="-73.985906">
        <ele>99.219999</ele>
        <time>2022-10-10T10:02:38.000Z</time>
      </trkpt>
      <trkpt lat="42.140944" lon="-73.9858">
        <ele>99.319998</ele>
        <time>2022-10-10T10:02:39.000Z</time>
      </trkpt>
      <trkpt lat="42.140804" lon="-73.985708">
        <ele>99.319996</ele>
        <time>2022-10-10T10:02:41.000Z</time>
      </trkpt>
      <trkpt lat="42.140683" lon="-73.985677">
        <ele>99.159995</ele>
        <time>2022-10-10T10:02:42.000Z</time>
      </trkpt>
      <trkpt lat="42.14038" lon="-73.985729">
        <ele>98.619991</ele>
        <time>2022-10-10T10:02:45.000Z</time>
      </trkpt>
      <trkpt lat="42.140239" lon="-73.985726">
        <ele>97.880002</ele>
        <time>2022-10-10T10:02:47.000Z</time>
      </trkpt>
      <trkpt lat="42.139782" lon="-73.985626">
        <ele>97.339991</ele>
        <time>2022-10-10T10:02:52.000Z</time>
      </trkpt>
      <trkpt lat="42.139341" lon="-73.985348">
        <ele>97.879996</ele>
        <time>2022-10-10T10:02:57.000Z</time>
      </trkpt>
      <trkpt lat="42.139217" lon="-73.985191">
        <ele>97.960002</ele>
        <time>2022-10-10T10:02:59.000Z</time>
      </trkpt>
      <trkpt lat="42.138981" lon="-73.98474">
        <ele>98.510002</ele>
        <time>2022-10-10T10:03:04.000Z</time>
      </trkpt>
      <trkpt lat="42.138859" lon="-73.984595">
        <ele>98.269993</ele>
        <time>2022-10-10T10:03:06.000Z</time>
      </trkpt>
      <trkpt lat="42.138594" lon="-73.984282">
        <ele>97.589997</ele>
        <time>2022-10-10T10:03:10.000Z</time>
      </trkpt>
      <trkpt lat="42.138523" lon="-73.984148">
        <ele>97.550003</ele>
        <time>2022-10-10T10:03:11.000Z</time>
      </trkpt>
      <trkpt lat="42.138236" lon="-73.983358">
        <ele>101.919998</ele>
        <time>2022-10-10T10:03:18.000Z</time>
      </trkpt>
      <trkpt lat="42.138053" lon="-73.982782">
        <ele>102.81</ele>
        <time>2022-10-10T10:03:23.000Z</time>
      </trkpt>
      <trkpt lat="42.138007" lon="-73.982647">
        <ele>102.690008</ele>
        <time>2022-10-10T10:03:24.000Z</time>
      </trkpt>
      <trkpt lat="42.13766" lon="-73.982239">
        <ele>98.949995</ele>
        <time>2022-10-10T10:03:29.000Z</time>
      </trkpt>
      <trkpt lat="42.137347" lon="-73.981705">
        <ele>96.580003</ele>
        <time>2022-10-10T10:03:35.000Z</time>
      </trkpt>
      <trkpt lat="42.136958" lon="-73.981209">
        <ele>94.86</ele>
        <time>2022-10-10T10:03:41.000Z</time>
      </trkpt>
      <trkpt lat="42.136707" lon="-73.980788">
        <ele>93.970001</ele>
        <time>2022-10-10T10:03:45.000Z</time>
      </trkpt>
      <trkpt lat="42.136609" lon="-73.980566">
        <ele>93.519996</ele>
        <time>2022-10-10T10:03:47.000Z</time>
      </trkpt>
      <trkpt lat="42.136576" lon="-73.980434">
        <ele>93.520004</ele>
        <time>2022-10-10T10:03:48.000Z</time>
      </trkpt>
      <trkpt lat="42.136503" lon="-73.97973">
        <ele>91.639993</ele>
        <time>2022-10-10T10:03:54.000Z</time>
      </trkpt>
      <trkpt lat="42.136528" lon="-73.979268">
        <ele>90.720008</ele>
        <time>2022-10-10T10:03:58.000Z</time>
      </trkpt>
      <trkpt lat="42.136667" lon="-73.978411">
        <ele>91.959994</ele>
        <time>2022-10-10T10:04:05.000Z</time>
      </trkpt>
      <trkpt lat="42.136622" lon="-73.977488">
        <ele>91.400002</ele>
        <time>2022-10-10T10:04:13.000Z</time>
      </trkpt>
      <trkpt lat="42.136543" lon="-73.976355">
        <ele>89.939994</ele>
        <time>2022-10-10T10:04:22.000Z</time>
      </trkpt>
      <trkpt lat="42.136514" lon="-73.975298">
        <ele>86.580003</ele>
        <time>2022-10-10T10:04:31.000Z</time>
      </trkpt>
      <trkpt lat="42.136352" lon="-73.974306">
        <ele>86.479996</ele>
        <time>2022-10-10T10:04:39.000Z</time>
      </trkpt>
      <trkpt lat="42.136252" lon="-73.974082">
        <ele>85.130001</ele>
        <time>2022-10-10T10:04:41.000Z</time>
      </trkpt>
      <trkpt lat="42.136171" lon="-73.973993">
        <ele>85.130001</ele>
        <time>2022-10-10T10:04:42.000Z</time>
      </trkpt>
      <trkpt lat="42.135898" lon="-73.973734">
        <ele>81.849996</ele>
        <time>2022-10-10T10:04:46.000Z</time>
      </trkpt>
      <trkpt lat="42.135534" lon="-73.973312">
        <ele>74.939994</ele>
        <time>2022-10-10T10:04:51.000Z</time>
      </trkpt>
      <trkpt lat="42.135448" lon="-73.973108">
        <ele>73.400003</ele>
        <time>2022-10-10T10:04:53.000Z</time>
      </trkpt>
      <trkpt lat="42.135437" lon="-73.973001">
        <ele>71.019993</ele>
        <time>2022-10-10T10:04:54.000Z</time>
      </trkpt>
      <trkpt lat="42.135414" lon="-73.972542">
        <ele>65.900009</ele>
        <time>2022-10-10T10:04:58.000Z</time>
      </trkpt>
      <trkpt lat="42.135357" lon="-73.972013">
        <ele>62.199999</ele>
        <time>2022-10-10T10:05:02.000Z</time>
      </trkpt>
      <trkpt lat="42.135364" lon="-73.971752">
        <ele>61.219998</ele>
        <time>2022-10-10T10:05:04.000Z</time>
      </trkpt>
      <trkpt lat="42.135417" lon="-73.971458">
        <ele>59.510006</ele>
        <time>2022-10-10T10:05:07.000Z</time>
      </trkpt>
      <trkpt lat="42.135523" lon="-73.971217">
        <ele>58.770007</ele>
        <time>2022-10-10T10:05:09.000Z</time>
      </trkpt>
      <trkpt lat="42.135603" lon="-73.971063">
        <ele>58.389998</ele>
        <time>2022-10-10T10:05:11.000Z</time>
      </trkpt>
      <trkpt lat="42.135756" lon="-73.970815">
        <ele>57.190001</ele>
        <time>2022-10-10T10:05:14.000Z</time>
      </trkpt>
      <trkpt lat="42.136357" lon="-73.970172">
        <ele>56.030008</ele>
        <time>2022-10-10T10:05:23.000Z</time>
      </trkpt>
      <trkpt lat="42.136563" lon="-73.970053">
        <ele>55.769995</ele>
        <time>2022-10-10T10:05:25.000Z</time>
      </trkpt>
      <trkpt lat="42.137046" lon="-73.96979">
        <ele>53.780005</ele>
        <time>2022-10-10T10:05:31.000Z</time>
      </trkpt>
      <trkpt lat="42.137161" lon="-73.96966">
        <ele>53.229992</ele>
        <time>2022-10-10T10:05:33.000Z</time>
      </trkpt>
      <trkpt lat="42.137295" lon="-73.969468">
        <ele>52.900001</ele>
        <time>2022-10-10T10:05:35.000Z</time>
      </trkpt>
      <trkpt lat="42.137568002" lon="-73.9687680032">
        <ele>52.619996</ele>
        <time>2022-10-10T10:05:42.000Z</time>
      </trkpt>
      <trkpt lat="42.137838" lon="-73.968076">
        <ele>52.729997</ele>
        <time>2022-10-10T10:05:48.000Z</time>
      </trkpt>
      <trkpt lat="42.137934" lon="-73.967778">
        <ele>53.070003</ele>
        <time>2022-10-10T10:05:51.000Z</time>
      </trkpt>
      <trkpt lat="42.137978" lon="-73.967599">
        <ele>53.159999</ele>
        <time>2022-10-10T10:05:53.000Z</time>
      </trkpt>
      <trkpt lat="42.137947" lon="-73.967417">
        <ele>53.100001</ele>
        <time>2022-10-10T10:05:55.000Z</time>
      </trkpt>
      <trkpt lat="42.137857" lon="-73.967243">
        <ele>52.840001</ele>
        <time>2022-10-10T10:05:57.000Z</time>
      </trkpt>
      <trkpt lat="42.137042" lon="-73.966698">
        <ele>41.439998</ele>
        <time>2022-10-10T10:06:07.000Z</time>
      </trkpt>
      <trkpt lat="42.136312501" lon="-73.9664119903">
        <ele>36.140003</ele>
        <time>2022-10-10T10:06:15.000Z</time>
      </trkpt>
      <trkpt lat="42.1355830014" lon="-73.9661379871">
        <ele>34.780008</ele>
        <time>2022-10-10T10:06:23.000Z</time>
      </trkpt>
      <trkpt lat="42.134857501" lon="-73.9658509903">
        <ele>33.679993</ele>
        <time>2022-10-10T10:06:31.000Z</time>
      </trkpt>
      <trkpt lat="42.134124" lon="-73.96557">
        <ele>34.759992</ele>
        <time>2022-10-10T10:06:39.000Z</time>
      </trkpt>
      <trkpt lat="42.134024" lon="-73.965519">
        <ele>35.630008</ele>
        <time>2022-10-10T10:06:40.000Z</time>
      </trkpt>
      <trkpt lat="42.133953" lon="-73.965424">
        <ele>36.339996</ele>
        <time>2022-10-10T10:06:41.000Z</time>
      </trkpt>
      <trkpt lat="42.133876" lon="-73.965219">
        <ele>38.189992</ele>
        <time>2022-10-10T10:06:43.000Z</time>
      </trkpt>
      <trkpt lat="42.133679" lon="-73.964502">
        <ele>44.899999</ele>
        <time>2022-10-10T10:06:49.000Z</time>
      </trkpt>
      <trkpt lat="42.133609" lon="-73.964149">
        <ele>46.349996</ele>
        <time>2022-10-10T10:06:52.000Z</time>
      </trkpt>
      <trkpt lat="42.133577" lon="-73.963908">
        <ele>46.97</ele>
        <time>2022-10-10T10:06:54.000Z</time>
      </trkpt>
      <trkpt lat="42.1335550043" lon="-73.9628919995">
        <ele>47.590008</ele>
        <time>2022-10-10T10:07:02.000Z</time>
      </trkpt>
      <trkpt lat="42.133526" lon="-73.961904">
        <ele>48.120008</ele>
        <time>2022-10-10T10:07:10.000Z</time>
      </trkpt>
      <trkpt lat="42.133477" lon="-73.961599">
        <ele>48.619992</ele>
        <time>2022-10-10T10:07:13.000Z</time>
      </trkpt>
      <trkpt lat="42.133422" lon="-73.961497">
        <ele>48.819996</ele>
        <time>2022-10-10T10:07:14.000Z</time>
      </trkpt>
      <trkpt lat="42.133345" lon="-73.961449">
        <ele>49.090003</ele>
        <time>2022-10-10T10:07:15.000Z</time>
      </trkpt>
      <trkpt lat="42.133284" lon="-73.961407">
        <ele>49.09</ele>
        <time>2022-10-10T10:07:16.000Z</time>
      </trkpt>
      <trkpt lat="42.133169" lon="-73.961417">
        <ele>49.579996</ele>
        <time>2022-10-10T10:07:17.000Z</time>
      </trkpt>
      <trkpt lat="42.13232" lon="-73.961674">
        <ele>52.729994</ele>
        <time>2022-10-10T10:07:27.000Z</time>
      </trkpt>
      <trkpt lat="42.132056" lon="-73.961714">
        <ele>53.239994</ele>
        <time>2022-10-10T10:07:30.000Z</time>
      </trkpt>
      <trkpt lat="42.131704" lon="-73.961679">
        <ele>54.369999</ele>
        <time>2022-10-10T10:07:34.000Z</time>
      </trkpt>
      <trkpt lat="42.131446" lon="-73.961625">
        <ele>55.380006</ele>
        <time>2022-10-10T10:07:37.000Z</time>
      </trkpt>
      <trkpt lat="42.131184" lon="-73.961519">
        <ele>57.070006</ele>
        <time>2022-10-10T10:07:40.000Z</time>
      </trkpt>
      <trkpt lat="42.130585" lon="-73.961193">
        <ele>59.659993</ele>
        <time>2022-10-10T10:07:47.000Z</time>
      </trkpt>
      <trkpt lat="42.130454" lon="-73.961137">
        <ele>60.769993</ele>
        <time>2022-10-10T10:07:49.000Z</time>
      </trkpt>
      <trkpt lat="42.130185" lon="-73.961096">
        <ele>62.390007</ele>
        <time>2022-10-10T10:07:52.000Z</time>
      </trkpt>
      <trkpt lat="42.12963" lon="-73.961041">
        <ele>64.670006</ele>
        <time>2022-10-10T10:07:58.000Z</time>
      </trkpt>
      <trkpt lat="42.129055" lon="-73.960877">
        <ele>66.399991</ele>
        <time>2022-10-10T10:08:05.000Z</time>
      </trkpt>
      <trkpt lat="42.1285270003" lon="-73.9606059978">
        <ele>69.229999</ele>
        <time>2022-10-10T10:08:11.000Z</time>
      </trkpt>
      <trkpt lat="42.127982" lon="-73.96035">
        <ele>70.930002</ele>
        <time>2022-10-10T10:08:17.000Z</time>
      </trkpt>
      <trkpt lat="42.1274990001" lon="-73.9600779978">
        <ele>71.649999</ele>
        <time>2022-10-10T10:08:23.000Z</time>
      </trkpt>
      <trkpt lat="42.127019" lon="-73.959808">
        <ele>74.039995</ele>
        <time>2022-10-10T10:08:29.000Z</time>
      </trkpt>
      <trkpt lat="42.12688" lon="-73.959712">
        <ele>74.140007</ele>
        <time>2022-10-10T10:08:31.000Z</time>
      </trkpt>
      <trkpt lat="42.126609" lon="-73.959382">
        <ele>74.060008</ele>
        <time>2022-10-10T10:08:35.000Z</time>
      </trkpt>
      <trkpt lat="42.1271410002" lon="-73.9591790019">
        <ele>74.380007</ele>
        <time>2022-10-10T10:08:41.000Z</time>
      </trkpt>
      <trkpt lat="42.127683" lon="-73.958948">
        <ele>74.540002</ele>
        <time>2022-10-10T10:08:47.000Z</time>
      </trkpt>
      <trkpt lat="42.127925" lon="-73.958895">
        <ele>74.559993</ele>
        <time>2022-10-10T10:08:50.000Z</time>
      </trkpt>
      <trkpt lat="42.1286" lon="-73.958812">
        <ele>74.509994</ele>
        <time>2022-10-10T10:08:58.000Z</time>
      </trkpt>
      <trkpt lat="42.129335" lon="-73.9587440008">
        <ele>75.290002</ele>
        <time>2022-10-10T10:09:06.000Z</time>
      </trkpt>
      <trkpt lat="42.130054" lon="-73.958672">
        <ele>75.120009</ele>
        <time>2022-10-10T10:09:14.000Z</time>
      </trkpt>
      <trkpt lat="42.130252" lon="-73.958639">
        <ele>74.149995</ele>
        <time>2022-10-10T10:09:16.000Z</time>
      </trkpt>
      <trkpt lat="42.130399" lon="-73.958585">
        <ele>72.580009</ele>
        <time>2022-10-10T10:09:18.000Z</time>
      </trkpt>
      <trkpt lat="42.130907" lon="-73.958143">
        <ele>70.310005</ele>
        <time>2022-10-10T10:09:25.000Z</time>
      </trkpt>
      <trkpt lat="42.131173" lon="-73.957961">
        <ele>70.260004</ele>
        <time>2022-10-10T10:09:28.000Z</time>
      </trkpt>
      <trkpt lat="42.1317610003" lon="-73.9576860025">
        <ele>69.780008</ele>
        <time>2022-10-10T10:09:35.000Z</time>
      </trkpt>
      <trkpt lat="42.132348" lon="-73.957411">
        <ele>66.890008</ele>
        <time>2022-10-10T10:09:42.000Z</time>
      </trkpt>
      <trkpt lat="42.132567" lon="-73.957363">
        <ele>65.86</ele>
        <time>2022-10-10T10:09:44.000Z</time>
      </trkpt>
      <trkpt lat="42.132851" lon="-73.957306">
        <ele>64.990001</ele>
        <time>2022-10-10T10:09:47.000Z</time>
      </trkpt>
      <trkpt lat="42.133232" lon="-73.957242">
        <ele>64.479992</ele>
        <time>2022-10-10T10:09:51.000Z</time>
      </trkpt>
      <trkpt lat="42.133487" lon="-73.957172">
        <ele>64.489991</ele>
        <time>2022-10-10T10:09:54.000Z</time>
      </trkpt>
      <trkpt lat="42.13385" lon="-73.957038">
        <ele>64.21</ele>
        <time>2022-10-10T10:09:58.000Z</time>
      </trkpt>
      <trkpt lat="42.13463" lon="-73.956654">
        <ele>64.559995</ele>
        <time>2022-10-10T10:10:07.000Z</time>
      </trkpt>
      <trkpt lat="42.1351100006" lon="-73.9563470023">
        <ele>63.88</ele>
        <time>2022-10-10T10:10:13.000Z</time>
      </trkpt>
      <trkpt lat="42.135584" lon="-73.956035">
        <ele>62.020008</ele>
        <time>2022-10-10T10:10:19.000Z</time>
      </trkpt>
      <trkpt lat="42.136018" lon="-73.955763">
        <ele>61.410007</ele>
        <time>2022-10-10T10:10:24.000Z</time>
      </trkpt>
      <trkpt lat="42.136292" lon="-73.955677">
        <ele>61.410001</ele>
        <time>2022-10-10T10:10:27.000Z</time>
      </trkpt>
      <trkpt lat="42.136581" lon="-73.955578">
        <ele>60.889997</ele>
        <time>2022-10-10T10:10:30.000Z</time>
      </trkpt>
      <trkpt lat="42.137155" lon="-73.955438">
        <ele>60.310008</ele>
        <time>2022-10-10T10:10:36.000Z</time>
      </trkpt>
      <trkpt lat="42.137402" lon="-73.95541">
        <ele>57.770009</ele>
        <time>2022-10-10T10:10:39.000Z</time>
      </trkpt>
      <trkpt lat="42.138104" lon="-73.955226">
        <ele>55.130004</ele>
        <time>2022-10-10T10:10:47.000Z</time>
      </trkpt>
      <trkpt lat="42.1387510004" lon="-73.954924003">
        <ele>54.000008</ele>
        <time>2022-10-10T10:10:55.000Z</time>
      </trkpt>
      <trkpt lat="42.139393" lon="-73.954639">
        <ele>52.630003</ele>
        <time>2022-10-10T10:11:03.000Z</time>
      </trkpt>
      <trkpt lat="42.139856" lon="-73.954259">
        <ele>51.749996</ele>
        <time>2022-10-10T10:11:09.000Z</time>
      </trkpt>
      <trkpt lat="42.140153" lon="-73.954074">
        <ele>51.250002</ele>
        <time>2022-10-10T10:11:13.000Z</time>
      </trkpt>
      <trkpt lat="42.1407620003" lon="-73.953861002">
        <ele>50.43</ele>
        <time>2022-10-10T10:11:20.000Z</time>
      </trkpt>
      <trkpt lat="42.141399" lon="-73.953664">
        <ele>50.459994</ele>
        <time>2022-10-10T10:11:27.000Z</time>
      </trkpt>
      <trkpt lat="42.141629" lon="-73.953711">
        <ele>50.730001</ele>
        <time>2022-10-10T10:11:30.000Z</time>
      </trkpt>
      <trkpt lat="42.141382" lon="-73.953656">
        <ele>50.459993</ele>
        <time>2022-10-10T10:11:33.000Z</time>
      </trkpt>
      <trkpt lat="42.1409260018" lon="-73.9530209955">
        <ele>49.869994</ele>
        <time>2022-10-10T10:11:40.000Z</time>
      </trkpt>
      <trkpt lat="42.140466" lon="-73.952407">
        <ele>49.940004</ele>
        <time>2022-10-10T10:11:47.000Z</time>
      </trkpt>
      <trkpt lat="42.140198" lon="-73.951956">
        <ele>50.069998</ele>
        <time>2022-10-10T10:11:52.000Z</time>
      </trkpt>
      <trkpt lat="42.1398070175" lon="-73.9510583054">
        <ele>49.880005</ele>
        <time>2022-10-10T10:12:01.000Z</time>
      </trkpt>
      <trkpt lat="42.1394040279" lon="-73.9501596219">
        <ele>52.890005</ele>
        <time>2022-10-10T10:12:10.000Z</time>
      </trkpt>
      <trkpt lat="42.1390200314" lon="-73.9492729497">
        <ele>54.340007</ele>
        <time>2022-10-10T10:12:18.000Z</time>
      </trkpt>
      <trkpt lat="42.1386130279" lon="-73.9483812886">
        <ele>52.440004</ele>
        <time>2022-10-10T10:12:27.000Z</time>
      </trkpt>
      <trkpt lat="42.1382240175" lon="-73.9474776387">
        <ele>49.140004</ele>
        <time>2022-10-10T10:12:36.000Z</time>
      </trkpt>
      <trkpt lat="42.137828" lon="-73.946579">
        <ele>48.730004</ele>
        <time>2022-10-10T10:12:45.000Z</time>
      </trkpt>
      <trkpt lat="42.137552" lon="-73.945782">
        <ele>50.01</ele>
        <time>2022-10-10T10:12:52.000Z</time>
      </trkpt>
      <trkpt lat="42.137455" lon="-73.945567">
        <ele>50.800004</ele>
        <time>2022-10-10T10:12:54.000Z</time>
      </trkpt>
      <trkpt lat="42.137359" lon="-73.945436">
        <ele>51.929994</ele>
        <time>2022-10-10T10:12:56.000Z</time>
      </trkpt>
      <trkpt lat="42.137244" lon="-73.945365">
        <ele>51.930003</ele>
        <time>2022-10-10T10:12:57.000Z</time>
      </trkpt>
      <trkpt lat="42.137117" lon="-73.945343">
        <ele>52.209998</ele>
        <time>2022-10-10T10:12:58.000Z</time>
      </trkpt>
      <trkpt lat="42.137003" lon="-73.945345">
        <ele>52.559993</ele>
        <time>2022-10-10T10:12:59.000Z</time>
      </trkpt>
      <trkpt lat="42.136335" lon="-73.945618">
        <ele>51.58</ele>
        <time>2022-10-10T10:13:07.000Z</time>
      </trkpt>
      <trkpt lat="42.136183" lon="-73.945567">
        <ele>51.169997</ele>
        <time>2022-10-10T10:13:09.000Z</time>
      </trkpt>
      <trkpt lat="42.136046" lon="-73.945523">
        <ele>50.850009</ele>
        <time>2022-10-10T10:13:11.000Z</time>
      </trkpt>
      <trkpt lat="42.135872" lon="-73.945376">
        <ele>49.969997</ele>
        <time>2022-10-10T10:13:13.000Z</time>
      </trkpt>
      <trkpt lat="42.135419001" lon="-73.9448679961">
        <ele>48.779992</ele>
        <time>2022-10-10T10:13:20.000Z</time>
      </trkpt>
      <trkpt lat="42.134959" lon="-73.944351">
        <ele>48.359998</ele>
        <time>2022-10-10T10:13:27.000Z</time>
      </trkpt>
      <trkpt lat="42.134331" lon="-73.943738">
        <ele>48.390003</ele>
        <time>2022-10-10T10:13:36.000Z</time>
      </trkpt>
      <trkpt lat="42.134163" lon="-73.943547">
        <ele>49.780001</ele>
        <time>2022-10-10T10:13:38.000Z</time>
      </trkpt>
      <trkpt lat="42.134099" lon="-73.943404">
        <ele>51.429999</ele>
        <time>2022-10-10T10:13:39.000Z</time>
      </trkpt>
      <trkpt lat="42.133805" lon="-73.942348">
        <ele>54.550008</ele>
        <time>2022-10-10T10:13:48.000Z</time>
      </trkpt>
      <trkpt lat="42.133761" lon="-73.942252">
        <ele>54.659997</ele>
        <time>2022-10-10T10:13:49.000Z</time>
      </trkpt>
      <trkpt lat="42.133454" lon="-73.94198">
        <ele>51.979992</ele>
        <time>2022-10-10T10:13:53.000Z</time>
      </trkpt>
      <trkpt lat="42.133296" lon="-73.941713">
        <ele>49.799994</ele>
        <time>2022-10-10T10:13:56.000Z</time>
      </trkpt>
      <trkpt lat="42.132818" lon="-73.940833">
        <ele>48.890005</ele>
        <time>2022-10-10T10:14:05.000Z</time>
      </trkpt>
      <trkpt lat="42.132338" lon="-73.939957">
        <ele>49.869995</ele>
        <time>2022-10-10T10:14:14.000Z</time>
      </trkpt>
      <trkpt lat="42.132012" lon="-73.939595">
        <ele>51.669999</ele>
        <time>2022-10-10T10:14:19.000Z</time>
      </trkpt>
      <trkpt lat="42.131774" lon="-73.939381">
        <ele>52.389999</ele>
        <time>2022-10-10T10:14:22.000Z</time>
      </trkpt>
      <trkpt lat="42.131637" lon="-73.93934">
        <ele>52.530005</ele>
        <time>2022-10-10T10:14:24.000Z</time>
      </trkpt>
      <trkpt lat="42.1311280001" lon="-73.9392559993">
        <ele>52.460007</ele>
        <time>2022-10-10T10:14:30.000Z</time>
      </trkpt>
      <trkpt lat="42.130601" lon="-73.939152">
        <ele>52.109998</ele>
        <time>2022-10-10T10:14:36.000Z</time>
      </trkpt>
      <trkpt lat="42.130374" lon="-73.939036">
        <ele>52.029997</ele>
        <time>2022-10-10T10:14:39.000Z</time>
      </trkpt>
      <trkpt lat="42.130337" lon="-73.939172">
        <ele>51.019999</ele>
        <time>2022-10-10T10:14:40.000Z</time>
      </trkpt>
      <trkpt lat="42.1301950054" lon="-73.93996467">
        <ele>49.819994</ele>
        <time>2022-10-10T10:14:47.000Z</time>
      </trkpt>
      <trkpt lat="42.1300530054" lon="-73.9407513366">
        <ele>49.590005</ele>
        <time>2022-10-10T10:14:54.000Z</time>
      </trkpt>
      <trkpt lat="42.129921" lon="-73.941534">
        <ele>49.109998</ele>
        <time>2022-10-10T10:15:01.000Z</time>
      </trkpt>
      <trkpt lat="42.129848" lon="-73.941775">
        <ele>49.200005</ele>
        <time>2022-10-10T10:15:03.000Z</time>
      </trkpt>
      <trkpt lat="42.129813" lon="-73.941851">
        <ele>49.260003</ele>
        <time>2022-10-10T10:15:04.000Z</time>
      </trkpt>
      <trkpt lat="42.129616" lon="-73.942078">
        <ele>49.650005</ele>
        <time>2022-10-10T10:15:07.000Z</time>
      </trkpt>
      <trkpt lat="42.129513" lon="-73.942104">
        <ele>49.590004</ele>
        <time>2022-10-10T10:15:08.000Z</time>
      </trkpt>
      <trkpt lat="42.128663" lon="-73.942325">
        <ele>49.709995</ele>
        <time>2022-10-10T10:15:18.000Z</time>
      </trkpt>
      <trkpt lat="42.127889" lon="-73.942424">
        <ele>52.470008</ele>
        <time>2022-10-10T10:15:27.000Z</time>
      </trkpt>
      <trkpt lat="42.127573" lon="-73.942522">
        <ele>53.880008</ele>
        <time>2022-10-10T10:15:31.000Z</time>
      </trkpt>
      <trkpt lat="42.127383" lon="-73.942601">
        <ele>54.399994</ele>
        <time>2022-10-10T10:15:33.000Z</time>
      </trkpt>
      <trkpt lat="42.127132" lon="-73.942741">
        <ele>55.790007</ele>
        <time>2022-10-10T10:15:36.000Z</time>
      </trkpt>
      <trkpt lat="42.126722" lon="-73.943007">
        <ele>57.019999</ele>
        <time>2022-10-10T10:15:41.000Z</time>
      </trkpt>
      <trkpt lat="42.1263450004" lon="-73.9433500022">
        <ele>58.840001</ele>
        <time>2022-10-10T10:15:46.000Z</time>
      </trkpt>
      <trkpt lat="42.125961" lon="-73.943698">
        <ele>59.579992</ele>
        <time>2022-10-10T10:15:51.000Z</time>
      </trkpt>
      <trkpt lat="42.125959" lon="-73.943709">
        <ele>59.580001</ele>
        <time>2022-10-10T10:15:51.000Z</time>
      </trkpt>
      <trkpt lat="42.125618" lon="-73.944042">
        <ele>59.449994</ele>
        <time>2022-10-10T10:15:56.000Z</time>
      </trkpt>
      <trkpt lat="42.1250420017" lon="-73.9446640056">
        <ele>58.960003</ele>
        <time>2022-10-10T10:16:04.000Z</time>
      </trkpt>
      <trkpt lat="42.12448" lon="-73.945281">
        <ele>58.970006</ele>
        <time>2022-10-10T10:16:12.000Z</time>
      </trkpt>
      <trkpt lat="42.1240630015" lon="-73.9459000041">
        <ele>57.559994</ele>
        <time>2022-10-10T10:16:19.000Z</time>
      </trkpt>
      <trkpt lat="42.123622" lon="-73.946502">
        <ele>52.890008</ele>
        <time>2022-10-10T10:16:26.000Z</time>
      </trkpt>
      <trkpt lat="42.123593" lon="-73.946689">
        <ele>51.809994</ele>
        <time>2022-10-10T10:16:28.000Z</time>
      </trkpt>
      <trkpt lat="42.123546" lon="-73.946786">
        <ele>51.250004</ele>
        <time>2022-10-10T10:16:29.000Z</time>
      </trkpt>
      <trkpt lat="42.123427" lon="-73.946969">
        <ele>50.780007</ele>
        <time>2022-10-10T10:16:31.000Z</time>
      </trkpt>
      <trkpt lat="42.122778" lon="-73.947579">
        <ele>50.219994</ele>
        <time>2022-10-10T10:16:40.000Z</time>
      </trkpt>
      <trkpt lat="42.122629" lon="-73.947744">
        <ele>50.220002</ele>
        <time>2022-10-10T10:16:42.000Z</time>
      </trkpt>
      <trkpt lat="42.122547" lon="-73.947845">
        <ele>50.160004</ele>
        <time>2022-10-10T10:16:43.000Z</time>
      </trkpt>
      <trkpt lat="42.122431" lon="-73.948208">
        <ele>50.439991</ele>
        <time>2022-10-10T10:16:46.000Z</time>
      </trkpt>
      <trkpt lat="42.122338" lon="-73.948678">
        <ele>50.469998</ele>
        <time>2022-10-10T10:16:50.000Z</time>
      </trkpt>
      <trkpt lat="42.122303" lon="-73.948637">
        <ele>50.500005</ele>
        <time>2022-10-10T10:16:51.000Z</time>
      </trkpt>
      <trkpt lat="42.12194" lon="-73.947888">
        <ele>46.659999</ele>
        <time>2022-10-10T10:16:58.000Z</time>
      </trkpt>
      <trkpt lat="42.1216390018" lon="-73.9472289966">
        <ele>46.089994</ele>
        <time>2022-10-10T10:17:04.000Z</time>
      </trkpt>
      <trkpt lat="42.121333" lon="-73.946544">
        <ele>46.420005</ele>
        <time>2022-10-10T10:17:11.000Z</time>
      </trkpt>
      <trkpt lat="42.121106" lon="-73.945967">
        <ele>47.299998</ele>
        <time>2022-10-10T10:17:16.000Z</time>
      </trkpt>
      <trkpt lat="42.120959" lon="-73.945598">
        <ele>47.399992</ele>
        <time>2022-10-10T10:17:19.000Z</time>
      </trkpt>
      <trkpt lat="42.120736" lon="-73.945297">
        <ele>47.86</ele>
        <time>2022-10-10T10:17:23.000Z</time>
      </trkpt>
      <trkpt lat="42.120664" lon="-73.945151">
        <ele>47.310003</ele>
        <time>2022-10-10T10:17:24.000Z</time>
      </trkpt>
      <trkpt lat="42.120596" lon="-73.944717">
        <ele>44.999994</ele>
        <time>2022-10-10T10:17:28.000Z</time>
      </trkpt>
      <trkpt lat="42.120492" lon="-73.94436">
        <ele>44.580009</ele>
        <time>2022-10-10T10:17:31.000Z</time>
      </trkpt>
      <trkpt lat="42.1202500017" lon="-73.9437219974">
        <ele>44.329997</ele>
        <time>2022-10-10T10:17:37.000Z</time>
      </trkpt>
      <trkpt lat="42.120008" lon="-73.943097">
        <ele>44.410002</ele>
        <time>2022-10-10T10:17:43.000Z</time>
      </trkpt>
      <trkpt lat="42.1197186711" lon="-73.9423676602">
        <ele>44.379995</ele>
        <time>2022-10-10T10:17:50.000Z</time>
      </trkpt>
      <trkpt lat="42.1194263377" lon="-73.9416623268">
        <ele>44.450007</ele>
        <time>2022-10-10T10:17:57.000Z</time>
      </trkpt>
      <trkpt lat="42.119152" lon="-73.94095">
        <ele>44.820002</ele>
        <time>2022-10-10T10:18:04.000Z</time>
      </trkpt>
      <trkpt lat="42.118731" lon="-73.940057">
        <ele>44.799993</ele>
        <time>2022-10-10T10:18:13.000Z</time>
      </trkpt>
      <trkpt lat="42.1183473379" lon="-73.939312991">
        <ele>44.709996</ele>
        <time>2022-10-10T10:18:20.000Z</time>
      </trkpt>
      <trkpt lat="42.1179736712" lon="-73.938595991">
        <ele>45.730004</ele>
        <time>2022-10-10T10:18:27.000Z</time>
      </trkpt>
      <trkpt lat="42.117574" lon="-73.937858">
        <ele>47.269998</ele>
        <time>2022-10-10T10:18:35.000Z</time>
      </trkpt>
      <trkpt lat="42.117524" lon="-73.937684">
        <ele>47.730008</ele>
        <time>2022-10-10T10:18:37.000Z</time>
      </trkpt>
      <trkpt lat="42.117456" lon="-73.937154">
        <ele>48.629994</ele>
        <time>2022-10-10T10:18:41.000Z</time>
      </trkpt>
      <trkpt lat="42.117322" lon="-73.936038">
        <ele>47.690007</ele>
        <time>2022-10-10T10:18:50.000Z</time>
      </trkpt>
      <trkpt lat="42.117274" lon="-73.935266">
        <ele>47.849999</ele>
        <time>2022-10-10T10:18:56.000Z</time>
      </trkpt>
      <trkpt lat="42.117201" lon="-73.934967">
        <ele>48.410005</ele>
        <time>2022-10-10T10:18:59.000Z</time>
      </trkpt>
      <trkpt lat="42.116979" lon="-73.935196">
        <ele>48.189991</ele>
        <time>2022-10-10T10:19:02.000Z</time>
      </trkpt>
      <trkpt lat="42.116656" lon="-73.935434">
        <ele>47.629999</ele>
        <time>2022-10-10T10:19:06.000Z</time>
      </trkpt>
      <trkpt lat="42.116476" lon="-73.935535">
        <ele>47.369995</ele>
        <time>2022-10-10T10:19:08.000Z</time>
      </trkpt>
      <trkpt lat="42.116183" lon="-73.935628">
        <ele>47.569999</ele>
        <time>2022-10-10T10:19:11.000Z</time>
      </trkpt>
      <trkpt lat="42.1154360002" lon="-73.9358163377">
        <ele>52.689992</ele>
        <time>2022-10-10T10:19:19.000Z</time>
      </trkpt>
      <trkpt lat="42.1146730002" lon="-73.9359976711">
        <ele>55.65</ele>
        <time>2022-10-10T10:19:28.000Z</time>
      </trkpt>
      <trkpt lat="42.113904" lon="-73.936174">
        <ele>55.539991</ele>
        <time>2022-10-10T10:19:37.000Z</time>
      </trkpt>
      <trkpt lat="42.113415" lon="-73.936255">
        <ele>54.679994</ele>
        <time>2022-10-10T10:19:42.000Z</time>
      </trkpt>
      <trkpt lat="42.112974" lon="-73.93626">
        <ele>53.779996</ele>
        <time>2022-10-10T10:19:47.000Z</time>
      </trkpt>
      <trkpt lat="42.112719" lon="-73.936249">
        <ele>53.110009</ele>
        <time>2022-10-10T10:19:50.000Z</time>
      </trkpt>
      <trkpt lat="42.112529" lon="-73.936199">
        <ele>51.800003</ele>
        <time>2022-10-10T10:19:52.000Z</time>
      </trkpt>
      <trkpt lat="42.111776" lon="-73.935923">
        <ele>51.570007</ele>
        <time>2022-10-10T10:20:01.000Z</time>
      </trkpt>
      <trkpt lat="42.111589" lon="-73.935927">
        <ele>51.570001</ele>
        <time>2022-10-10T10:20:03.000Z</time>
      </trkpt>
      <trkpt lat="42.111373" lon="-73.935986">
        <ele>52.219997</ele>
        <time>2022-10-10T10:20:05.000Z</time>
      </trkpt>
      <trkpt lat="42.111096" lon="-73.936078">
        <ele>52.390007</ele>
        <time>2022-10-10T10:20:08.000Z</time>
      </trkpt>
      <trkpt lat="42.1104870018" lon="-73.9364535108">
        <ele>52.749991</ele>
        <time>2022-10-10T10:20:15.000Z</time>
      </trkpt>
      <trkpt lat="42.1098650023" lon="-73.9368070144">
        <ele>53.830008</ele>
        <time>2022-10-10T10:20:23.000Z</time>
      </trkpt>
      <trkpt lat="42.1092440018" lon="-73.9371885108">
        <ele>53.989992</ele>
        <time>2022-10-10T10:20:31.000Z</time>
      </trkpt>
      <trkpt lat="42.108611" lon="-73.937545">
        <ele>53.570001</ele>
        <time>2022-10-10T10:20:39.000Z</time>
      </trkpt>
      <trkpt lat="42.108435" lon="-73.93763">
        <ele>52.899997</ele>
        <time>2022-10-10T10:20:41.000Z</time>
      </trkpt>
      <trkpt lat="42.108031" lon="-73.937728">
        <ele>51.239998</ele>
        <time>2022-10-10T10:20:46.000Z</time>
      </trkpt>
      <trkpt lat="42.107715" lon="-73.937775">
        <ele>50.449997</ele>
        <time>2022-10-10T10:20:50.000Z</time>
      </trkpt>
      <trkpt lat="42.1069040001" lon="-73.9378310015">
        <ele>46.780005</ele>
        <time>2022-10-10T10:20:59.000Z</time>
      </trkpt>
      <trkpt lat="42.1061010002" lon="-73.9378900015">
        <ele>46.299998</ele>
        <time>2022-10-10T10:21:08.000Z</time>
      </trkpt>
      <trkpt lat="42.105281" lon="-73.937958">
        <ele>47.239993</ele>
        <time>2022-10-10T10:21:17.000Z</time>
      </trkpt>
      <trkpt lat="42.105046" lon="-73.937937">
        <ele>48.009997</ele>
        <time>2022-10-10T10:21:20.000Z</time>
      </trkpt>
      <trkpt lat="42.104525" lon="-73.9378399991">
        <ele>50.370007</ele>
        <time>2022-10-10T10:21:26.000Z</time>
      </trkpt>
      <trkpt lat="42.103994" lon="-73.937727">
        <ele>51.889992</ele>
        <time>2022-10-10T10:21:32.000Z</time>
      </trkpt>
      <trkpt lat="42.103372" lon="-73.937549">
        <ele>51.409993</ele>
        <time>2022-10-10T10:21:39.000Z</time>
      </trkpt>
      <trkpt lat="42.103015" lon="-73.937514">
        <ele>50.570008</ele>
        <time>2022-10-10T10:21:43.000Z</time>
      </trkpt>
      <trkpt lat="42.102682" lon="-73.937556">
        <ele>49.039991</ele>
        <time>2022-10-10T10:21:47.000Z</time>
      </trkpt>
      <trkpt lat="42.10229" lon="-73.937626">
        <ele>48.249993</ele>
        <time>2022-10-10T10:21:51.000Z</time>
      </trkpt>
      <trkpt lat="42.1017630003" lon="-73.937866002">
        <ele>47.530003</ele>
        <time>2022-10-10T10:21:57.000Z</time>
      </trkpt>
      <trkpt lat="42.101248" lon="-73.938111">
        <ele>47.590003</ele>
        <time>2022-10-10T10:22:03.000Z</time>
      </trkpt>
      <trkpt lat="42.1006830003" lon="-73.938346002">
        <ele>47.67</ele>
        <time>2022-10-10T10:22:10.000Z</time>
      </trkpt>
      <trkpt lat="42.100127" lon="-73.938572">
        <ele>48.119992</ele>
        <time>2022-10-10T10:22:16.000Z</time>
      </trkpt>
      <trkpt lat="42.099625" lon="-73.938764">
        <ele>49.06</ele>
        <time>2022-10-10T10:22:22.000Z</time>
      </trkpt>
      <trkpt lat="42.099342" lon="-73.938837">
        <ele>50.630003</ele>
        <time>2022-10-10T10:22:25.000Z</time>
      </trkpt>
      <trkpt lat="42.099045" lon="-73.938886">
        <ele>52.789996</ele>
        <time>2022-10-10T10:22:28.000Z</time>
      </trkpt>
      <trkpt lat="42.098284" lon="-73.938905">
        <ele>55.269997</ele>
        <time>2022-10-10T10:22:36.000Z</time>
      </trkpt>
      <trkpt lat="42.097492" lon="-73.939014">
        <ele>56.730004</ele>
        <time>2022-10-10T10:22:45.000Z</time>
      </trkpt>
      <trkpt lat="42.096664" lon="-73.939186">
        <ele>59.079991</ele>
        <time>2022-10-10T10:22:54.000Z</time>
      </trkpt>
      <trkpt lat="42.096426" lon="-73.939234">
        <ele>59.889994</ele>
        <time>2022-10-10T10:22:57.000Z</time>
      </trkpt>
      <trkpt lat="42.0959000004" lon="-73.9394650018">
        <ele>60.599995</ele>
        <time>2022-10-10T10:23:03.000Z</time>
      </trkpt>
      <trkpt lat="42.095354" lon="-73.939689">
        <ele>59.599997</ele>
        <time>2022-10-10T10:23:09.000Z</time>
      </trkpt>
      <trkpt lat="42.094629" lon="-73.939968">
        <ele>56.080005</ele>
        <time>2022-10-10T10:23:17.000Z</time>
      </trkpt>
      <trkpt lat="42.094438" lon="-73.939992">
        <ele>55.529994</ele>
        <time>2022-10-10T10:23:19.000Z</time>
      </trkpt>
      <trkpt lat="42.094146" lon="-73.939972">
        <ele>54.950009</ele>
        <time>2022-10-10T10:23:22.000Z</time>
      </trkpt>
      <trkpt lat="42.093998" lon="-73.939951">
        <ele>54.859991</ele>
        <time>2022-10-10T10:23:24.000Z</time>
      </trkpt>
      <trkpt lat="42.093245" lon="-73.939752">
        <ele>52.689994</ele>
        <time>2022-10-10T10:23:33.000Z</time>
      </trkpt>
      <trkpt lat="42.092731" lon="-73.939684">
        <ele>50.780003</ele>
        <time>2022-10-10T10:23:39.000Z</time>
      </trkpt>
      <trkpt lat="42.091888" lon="-73.939616">
        <ele>48.379997</ele>
        <time>2022-10-10T10:23:48.000Z</time>
      </trkpt>
      <trkpt lat="42.091428" lon="-73.939644">
        <ele>47.879997</ele>
        <time>2022-10-10T10:23:53.000Z</time>
      </trkpt>
      <trkpt lat="42.090986" lon="-73.939718">
        <ele>47.059994</ele>
        <time>2022-10-10T10:23:58.000Z</time>
      </trkpt>
      <trkpt lat="42.090651" lon="-73.939828">
        <ele>46.729993</ele>
        <time>2022-10-10T10:24:02.000Z</time>
      </trkpt>
      <trkpt lat="42.090353" lon="-73.939968">
        <ele>46.899993</ele>
        <time>2022-10-10T10:24:06.000Z</time>
      </trkpt>
      <trkpt lat="42.090011" lon="-73.940278">
        <ele>47.119993</ele>
        <time>2022-10-10T10:24:11.000Z</time>
      </trkpt>
      <trkpt lat="42.089403" lon="-73.940998">
        <ele>49.109999</ele>
        <time>2022-10-10T10:24:20.000Z</time>
      </trkpt>
      <trkpt lat="42.089147" lon="-73.941228">
        <ele>51.490001</ele>
        <time>2022-10-10T10:24:23.000Z</time>
      </trkpt>
      <trkpt lat="42.088874" lon="-73.941402">
        <ele>51.490007</ele>
        <time>2022-10-10T10:24:26.000Z</time>
      </trkpt>
      <trkpt lat="42.088707" lon="-73.941499">
        <ele>52.820004</ele>
        <time>2022-10-10T10:24:28.000Z</time>
      </trkpt>
      <trkpt lat="42.088413" lon="-73.941607">
        <ele>53.929991</ele>
        <time>2022-10-10T10:24:31.000Z</time>
      </trkpt>
      <trkpt lat="42.088278" lon="-73.941631">
        <ele>54.350004</ele>
        <time>2022-10-10T10:24:33.000Z</time>
      </trkpt>
      <trkpt lat="42.0876690001" lon="-73.9416940006">
        <ele>53.899994</ele>
        <time>2022-10-10T10:24:40.000Z</time>
      </trkpt>
      <trkpt lat="42.087087" lon="-73.941763">
        <ele>51.999995</ele>
        <time>2022-10-10T10:24:46.000Z</time>
      </trkpt>
      <trkpt lat="42.0865390001" lon="-73.9419690017">
        <ele>51.060004</ele>
        <time>2022-10-10T10:24:52.000Z</time>
      </trkpt>
      <trkpt lat="42.086014" lon="-73.942154">
        <ele>51.340003</ele>
        <time>2022-10-10T10:24:58.000Z</time>
      </trkpt>
      <trkpt lat="42.085475" lon="-73.942385">
        <ele>49.899994</ele>
        <time>2022-10-10T10:25:04.000Z</time>
      </trkpt>
      <trkpt lat="42.085299" lon="-73.942469">
        <ele>49.169991</ele>
        <time>2022-10-10T10:25:06.000Z</time>
      </trkpt>
      <trkpt lat="42.085018" lon="-73.942694">
        <ele>47.490003</ele>
        <time>2022-10-10T10:25:10.000Z</time>
      </trkpt>
      <trkpt lat="42.0846060005" lon="-73.9430370023">
        <ele>43.769996</ele>
        <time>2022-10-10T10:25:15.000Z</time>
      </trkpt>
      <trkpt lat="42.084188" lon="-73.943389">
        <ele>42.969997</ele>
        <time>2022-10-10T10:25:20.000Z</time>
      </trkpt>
      <trkpt lat="42.083695" lon="-73.943725">
        <ele>42.839992</ele>
        <time>2022-10-10T10:25:26.000Z</time>
      </trkpt>
      <trkpt lat="42.0829710002" lon="-73.9438473361">
        <ele>43.809993</ele>
        <time>2022-10-10T10:25:34.000Z</time>
      </trkpt>
      <trkpt lat="42.0822510002" lon="-73.9439676695">
        <ele>45.270003</ele>
        <time>2022-10-10T10:25:42.000Z</time>
      </trkpt>
      <trkpt lat="42.081539" lon="-73.944099">
        <ele>46.690003</ele>
        <time>2022-10-10T10:25:50.000Z</time>
      </trkpt>
      <trkpt lat="42.080731" lon="-73.944129">
        <ele>46.840002</ele>
        <time>2022-10-10T10:25:59.000Z</time>
      </trkpt>
      <trkpt lat="42.080545" lon="-73.944093">
        <ele>46.939997</ele>
        <time>2022-10-10T10:26:01.000Z</time>
      </trkpt>
      <trkpt lat="42.080354" lon="-73.944124">
        <ele>46.959993</ele>
        <time>2022-10-10T10:26:03.000Z</time>
      </trkpt>
      <trkpt lat="42.080105" lon="-73.943997">
        <ele>47.249992</ele>
        <time>2022-10-10T10:26:06.000Z</time>
      </trkpt>
      <trkpt lat="42.08036" lon="-73.944137">
        <ele>46.96</ele>
        <time>2022-10-10T10:26:09.000Z</time>
      </trkpt>
      <trkpt lat="42.080275" lon="-73.944305">
        <ele>46.509996</ele>
        <time>2022-10-10T10:26:11.000Z</time>
      </trkpt>
      <trkpt lat="42.0800910034" lon="-73.9451970027">
        <ele>45.879995</ele>
        <time>2022-10-10T10:26:19.000Z</time>
      </trkpt>
      <trkpt lat="42.079894" lon="-73.946077">
        <ele>46.350007</ele>
        <time>2022-10-10T10:26:27.000Z</time>
      </trkpt>
      <trkpt lat="42.079701" lon="-73.946894">
        <ele>47.079998</ele>
        <time>2022-10-10T10:26:34.000Z</time>
      </trkpt>
      <trkpt lat="42.0793370095" lon="-73.947952679">
        <ele>47.69</ele>
        <time>2022-10-10T10:26:44.000Z</time>
      </trkpt>
      <trkpt lat="42.0789670095" lon="-73.9489893457">
        <ele>47.499994</ele>
        <time>2022-10-10T10:26:53.000Z</time>
      </trkpt>
      <trkpt lat="42.078586" lon="-73.950041">
        <ele>47.299996</ele>
        <time>2022-10-10T10:27:03.000Z</time>
      </trkpt>
      <trkpt lat="42.078696" lon="-73.950094">
        <ele>47.199995</ele>
        <time>2022-10-10T10:27:04.000Z</time>
      </trkpt>
      <trkpt lat="42.078587" lon="-73.950035">
        <ele>47.299992</ele>
        <time>2022-10-10T10:27:05.000Z</time>
      </trkpt>
      <trkpt lat="42.0783270054" lon="-73.9508343401">
        <ele>46.859999</ele>
        <time>2022-10-10T10:27:12.000Z</time>
      </trkpt>
      <trkpt lat="42.0780430054" lon="-73.9516306735">
        <ele>46.770007</ele>
        <time>2022-10-10T10:27:19.000Z</time>
      </trkpt>
      <trkpt lat="42.077773" lon="-73.952423">
        <ele>47.009992</ele>
        <time>2022-10-10T10:27:26.000Z</time>
      </trkpt>
      <trkpt lat="42.07798" lon="-73.952496">
        <ele>46.980009</ele>
        <time>2022-10-10T10:27:28.000Z</time>
      </trkpt>
      <trkpt lat="42.077789" lon="-73.952429">
        <ele>47.010008</ele>
        <time>2022-10-10T10:27:30.000Z</time>
      </trkpt>
      <trkpt lat="42.0771820007" lon="-73.9521366614">
        <ele>46.569992</ele>
        <time>2022-10-10T10:27:37.000Z</time>
      </trkpt>
      <trkpt lat="42.0765940008" lon="-73.9518533281">
        <ele>46.309998</ele>
        <time>2022-10-10T10:27:44.000Z</time>
      </trkpt>
      <trkpt lat="42.076004" lon="-73.951579">
        <ele>45.089999</ele>
        <time>2022-10-10T10:27:51.000Z</time>
      </trkpt>
      <trkpt lat="42.0754680003" lon="-73.951346998">
        <ele>41.869994</ele>
        <time>2022-10-10T10:27:57.000Z</time>
      </trkpt>
      <trkpt lat="42.074917" lon="-73.951113">
        <ele>37.640001</ele>
        <time>2022-10-10T10:28:03.000Z</time>
      </trkpt>
      <trkpt lat="42.0744720002" lon="-73.9508609983">
        <ele>33.050003</ele>
        <time>2022-10-10T10:28:08.000Z</time>
      </trkpt>
      <trkpt lat="42.074049" lon="-73.950629">
        <ele>30.55</ele>
        <time>2022-10-10T10:28:13.000Z</time>
      </trkpt>
      <trkpt lat="42.07373" lon="-73.950527">
        <ele>28.820008</ele>
        <time>2022-10-10T10:28:17.000Z</time>
      </trkpt>
      <trkpt lat="42.073599" lon="-73.950591">
        <ele>27.54</ele>
        <time>2022-10-10T10:28:19.000Z</time>
      </trkpt>
    </trkseg>
  </trk>
</gpx>

<!--
Performance optimized by W3 Total Cache. Learn more: https://www.boldgrid.com/w3-total-cache/?utm_source=w3tc&utm_medium=footer_comment&utm_campaign=free_plugin

Page Caching using Disk: Enhanced{w3tc_pagecache_reject_reason} 

Served from: www.aquabike.world @ 2026-05-02 18:55:33 by W3 Total Cache
-->